[[{"header":{"parameterUnit":"m.s-1","parameterCategory":1,"la1":31.0,"la2":29.5877,"lo1":-88.7671,"lo2":-86.6584,"dy":0.0162,"dx":0.0185,"nx":115,"ny":88,"refTime":"2023-10-08T18:00:00:Z","depth":0,"parameterNumber":2,"parameterNumberName":"U-component_of_WINDS"},"data":[0.0,0.0,0.0,0.0,0.0,0.0,0.0,0.0,0.0,0.0,0.0,0.0,0.0,0.0,0.0,0.0,0.0,0.0,0.0,0.0,0.0,0.0,0.0,0.0,0.0,0.0,0.0,0.0,0.0,0.0,0.0,0.0,0.0,0.0,0.0,0.0,0.0,0.0,0.0,0.0,0.0,0.0,0.0,0.0,0.0,0.0,0.0,0.0,0.0,0.0,0.0,0.0,0.0,0.0,0.0,0.0,0.0,0.0,0.0,0.0,0.0,0.0,0.0,0.0,0.0,0.0,0.0,0.0,0.0,0.0,0.0,0.0,0.0,0.0,0.0,0.0,0.0,0.0,0.0,0.0,0.0,0.0,0.0,0.0,0.0,0.0,0.0,0.0,0.0,0.0,0.0,0.0,0.0,0.0,0.0,0.0,0.0,0.0,0.0,0.0,0.0,0.0,0.0,0.0,0.0,0.0,0.0,0.0,0.0,0.0,0.0,0.0,0.0,0.0,0.0,0.0,0.0,0.0,0.0,0.0,0.0,0.0,0.0,0.0,0.0,0.0,0.0,0.0,0.0,0.0,0.0,0.0,0.0,0.0,0.0,0.0,0.0,0.0,0.0,0.0,0.0,0.0,0.0,0.0,0.0,0.0,0.0,0.0,0.0,0.0,0.0,0.0,0.0,0.0,0.0,0.0,0.0,0.0,0.0,0.0,0.0,0.0,0.0,0.0,0.0,0.0,0.0,0.0,0.0,0.0,0.0,0.0,0.0,0.0,0.0,0.0,0.0,0.0,0.0,0.0,0.0,0.0,0.0,0.0,0.0,0.0,0.0,0.0,0.0,0.0,0.0,0.0,0.0,0.0,0.0,0.0,0.0,0.0,0.0,0.0,0.0,0.0,0.0,0.0,0.0,0.0,0.0,0.0,0.0,0.0,0.0,0.0,0.0,0.0,0.0,0.0,0.0,0.0,0.0,0.0,0.0,0.0,0.0,0.0,0.0,0.0,0.0,0.0,0.0,0.0,0.0,0.0,0.0,0.0,0.0,0.0,0.0,0.0,0.0,0.0,0.0,0.0,0.0,0.0,0.0,0.0,0.0,0.0,0.0,0.0,0.0,0.0,0.0,0.0,0.0,0.0,0.0,0.0,0.0,0.0,0.0,0.0,0.0,0.0,0.0,0.0,0.0,0.0,0.0,0.0,0.0,0.0,0.0,0.0,0.0,0.0,0.0,0.0,0.0,0.0,0.0,0.0,0.0,0.0,0.0,0.0,0.0,0.0,0.0,0.0,0.0,0.0,0.0,0.0,0.0,0.0,0.0,0.0,0.0,0.0,0.0,0.0,0.0,0.0,0.0,0.0,0.0,0.0,0.0,0.0,0.0,0.0,0.0,0.0,0.0,0.0,0.0,0.0,0.0,0.0,0.0,0.0,0.0,0.0,0.0,0.0,0.0,0.0,0.0,0.0,0.0,0.0,0.0,0.0,0.0,0.0,0.0,0.0,0.0,0.0,0.0,0.0,0.0,0.0,0.0,0.0,0.0,0.0,0.0,0.0,0.0,0.0,0.0,0.0,0.0,0.0,0.0,0.0,0.0,0.0,0.0,0.0,0.0,0.0,0.0,0.0,0.0,0.0,0.0,0.0,0.0,0.0,0.0,0.0,0.0,0.0,0.0,0.0,0.0,0.0,0.0,0.0,0.0,0.0,0.0,0.0,0.0,0.0,0.0,0.0,0.0,0.0,0.0,0.0,0.0,0.0,0.0,0.0,0.0,0.0,0.0,0.0,0.0,0.0,0.0,0.0,0.0,0.0,0.0,0.0,0.0,0.0,0.0,0.0,0.0,0.0,0.0,0.0,0.0,0.0,0.0,0.0,0.0,0.0,0.0,0.0,0.0,0.0,0.0,0.0,0.0,0.0,0.0,0.0,0.0,0.0,0.0,0.0,0.0,0.0,0.0,0.0,0.0,0.0,0.0,0.0,0.0,0.0,0.0,0.0,0.0,0.0,0.0,0.0,0.0,0.0,0.0,0.0,0.0,0.0,0.0,0.0,0.0,0.0,0.0,0.0,0.0,0.0,0.0,0.0,0.0,0.0,0.0,0.0,0.0,0.0,0.0,0.0,0.0,0.0,0.0,0.0,0.0,0.0,0.0,0.0,0.0,0.0,0.0,0.0,0.0,0.0,0.0,0.0,0.0,0.0,0.0,0.0,0.0,0.0,0.0,0.0,0.0,0.0,0.0,0.0,0.0,0.0,0.0,0.0,0.0,0.0,0.0,0.0,0.0,0.0,0.0,0.0,0.0,0.0,0.0,0.0,0.0,0.0,0.0,0.0,0.0,0.0,0.0,0.0,0.0,0.0,0.0,0.0,0.0,0.0,0.0,0.0,0.0,0.0,0.0,0.0,0.0,0.0,0.0,0.0,0.0,0.0,0.0,0.0,0.0,0.0,0.0,0.0,0.0,0.0,0.0,0.0,0.0,0.0,0.0,0.0,0.0,0.0,0.0,0.0,0.0,0.0,0.0,0.0,0.0,0.0,0.0,0.0,0.0,0.0,0.0,0.0,0.0,0.0,0.0,0.0,0.0,0.0,0.0,0.0,0.0,0.0,0.0,0.0,0.0,0.0,0.0,0.0,0.0,0.0,0.0,0.0,0.0,0.0,0.0,0.0,0.0,0.0,0.0,0.0,0.0,0.0,0.0,0.0,0.0,0.0,0.0,0.0,0.0,0.0,0.0,0.0,0.0,0.0,0.0,0.0,0.0,0.0,0.0,0.0,0.0,0.0,0.0,0.0,0.0,0.0,0.0,0.0,0.0,0.0,0.0,0.0,0.0,0.0,0.0,0.0,0.0,0.0,0.0,0.0,0.0,0.0,0.0,0.0,0.0,0.0,0.0,0.0,0.0,0.0,0.0,0.0,0.0,0.0,0.0,0.0,0.0,0.0,0.0,0.0,0.0,0.0,0.0,0.0,0.0,0.0,0.0,0.0,0.0,0.0,0.0,0.0,0.0,0.0,0.0,0.0,0.0,0.0,0.0,0.0,0.0,0.0,0.0,0.0,0.0,0.0,0.0,0.0,0.0,0.0,0.0,0.0,0.0,0.0,0.0,0.0,0.0,0.0,0.0,0.0,0.0,0.0,0.0,0.0,0.0,0.0,0.0,0.0,0.0,0.0,0.0,0.0,0.0,0.0,0.0,0.0,0.0,0.0,0.0,0.0,0.0,0.0,0.0,0.0,0.0,0.0,0.0,0.0,0.0,0.0,0.0,0.0,0.0,0.0,0.0,0.0,0.0,0.0,0.0,0.0,0.0,0.0,0.0,0.0,0.0,0.0,0.0,0.0,0.0,0.0,0.0,0.0,0.0,0.0,0.0,0.0,0.0,0.0,0.0,0.0,0.0,0.0,0.0,0.0,0.0,0.0,0.0,0.0,0.0,0.0,0.0,0.0,0.0,0.0,0.0,0.0,0.0,0.0,0.0,0.0,0.0,0.0,0.0,0.0,0.0,0.0,0.0,0.0,0.0,0.0,0.0,0.0,0.0,0.0,0.0,0.0,0.0,0.0,0.0,0.0,0.0,0.0,0.0,0.0,0.0,0.0,0.0,0.0,0.0,0.0,0.0,0.0,0.0,0.0,0.0,0.0,0.0,0.0,0.0,0.0,0.0,0.0,0.0,0.0,0.0,0.0,0.0,0.0,0.0,0.0,0.0,0.0,0.0,0.0,0.0,0.0,0.0,0.0,0.0,0.0,0.0,0.0,0.0,0.0,0.0,0.0,0.0,0.0,0.0,0.0,0.0,0.0,0.0,0.0,0.0,0.0,0.0,0.0,0.0,0.0,0.0,0.0,0.0,0.0,0.0,0.0,0.0,0.0,0.0,0.0,0.0,0.0,0.0,0.0,0.0,0.0,0.0,0.0,0.0,0.0,0.0,0.0,0.0,0.0,0.0,0.0,0.0,0.0,0.0,0.0,0.0,0.0,0.0,0.0,0.0,0.0,0.0,0.0,0.0,0.0,0.0,0.0,0.0,0.0,0.0,0.0,0.0,0.0,0.0,0.0,0.0,0.0,0.0,0.0,0.0,0.0,0.0,0.0,0.0,0.0,0.0,0.0,0.0,0.0,0.0,0.0,0.0,0.0,0.0,0.0,0.0,0.0,0.0,0.0,0.0,0.0,0.0,0.0,0.0,0.0,0.0,0.0,0.0,0.0,0.0,0.0,0.0,0.0,0.0,0.0,0.0,0.0,0.0,0.0,0.0,0.0,0.0,0.0,0.0,0.0,-3.2895,0.0,0.0,0.0,0.0,0.0,0.0,0.0,0.0,0.0,0.0,0.0,0.0,0.0,0.0,0.0,0.0,0.0,0.0,0.0,0.0,0.0,0.0,0.0,0.0,0.0,0.0,0.0,0.0,0.0,0.0,0.0,0.0,0.0,0.0,0.0,0.0,0.0,0.0,0.0,0.0,0.0,0.0,0.0,0.0,0.0,0.0,0.0,0.0,0.0,0.0,0.0,0.0,0.0,0.0,0.0,0.0,0.0,0.0,0.0,0.0,0.0,0.0,0.0,0.0,0.0,0.0,0.0,0.0,0.0,0.0,0.0,0.0,0.0,0.0,0.0,0.0,0.0,0.0,0.0,0.0,0.0,0.0,0.0,0.0,0.0,0.0,0.0,0.0,0.0,0.0,0.0,0.0,0.0,0.0,0.0,0.0,0.0,0.0,0.0,0.0,0.0,0.0,0.0,0.0,0.0,0.0,0.0,0.0,0.0,0.0,-3.5364,-3.6052,-3.6007,-3.5462,-3.4433,0.0,0.0,0.0,0.0,0.0,0.0,0.0,0.0,0.0,0.0,0.0,0.0,0.0,0.0,0.0,0.0,0.0,0.0,0.0,0.0,0.0,0.0,0.0,0.0,0.0,0.0,0.0,0.0,0.0,0.0,0.0,0.0,0.0,0.0,0.0,0.0,0.0,0.0,0.0,0.0,0.0,0.0,0.0,0.0,0.0,0.0,0.0,0.0,0.0,0.0,0.0,0.0,0.0,0.0,0.0,0.0,0.0,0.0,0.0,0.0,0.0,0.0,0.0,0.0,0.0,0.0,0.0,0.0,0.0,0.0,0.0,0.0,0.0,0.0,0.0,0.0,0.0,0.0,0.0,0.0,0.0,0.0,0.0,0.0,0.0,0.0,0.0,0.0,0.0,0.0,0.0,0.0,0.0,0.0,0.0,0.0,0.0,0.0,0.0,0.0,0.0,0.0,0.0,0.0,0.0,0.0,0.0,0.0,0.0,0.0,0.0,0.0,-3.7371,-3.6647,-3.5259,0.0,0.0,0.0,0.0,0.0,0.0,0.0,0.0,0.0,0.0,0.0,0.0,0.0,0.0,0.0,0.0,0.0,0.0,0.0,0.0,0.0,0.0,0.0,0.0,0.0,0.0,0.0,0.0,0.0,0.0,0.0,0.0,0.0,0.0,0.0,0.0,0.0,0.0,0.0,0.0,0.0,0.0,0.0,0.0,0.0,0.0,0.0,0.0,0.0,0.0,0.0,0.0,0.0,0.0,0.0,0.0,0.0,0.0,0.0,0.0,0.0,0.0,0.0,0.0,0.0,0.0,0.0,0.0,0.0,0.0,0.0,0.0,0.0,0.0,0.0,0.0,0.0,0.0,0.0,0.0,0.0,0.0,0.0,0.0,0.0,0.0,0.0,0.0,0.0,0.0,0.0,0.0,0.0,0.0,0.0,0.0,0.0,0.0,0.0,0.0,0.0,0.0,0.0,0.0,0.0,0.0,0.0,0.0,0.0,0.0,-3.6781,-3.7636,-3.7547,0.0,-3.4046,0.0,0.0,0.0,0.0,0.0,0.0,0.0,0.0,0.0,0.0,0.0,0.0,0.0,0.0,0.0,0.0,0.0,0.0,0.0,0.0,0.0,0.0,0.0,0.0,0.0,0.0,0.0,0.0,0.0,0.0,0.0,0.0,0.0,0.0,0.0,0.0,0.0,0.0,0.0,0.0,0.0,0.0,0.0,0.0,0.0,0.0,0.0,0.0,0.0,0.0,0.0,0.0,0.0,0.0,0.0,0.0,0.0,0.0,0.0,0.0,0.0,0.0,0.0,0.0,0.0,0.0,0.0,0.0,0.0,0.0,0.0,0.0,0.0,0.0,0.0,0.0,0.0,0.0,0.0,0.0,0.0,0.0,0.0,0.0,0.0,0.0,0.0,0.0,0.0,0.0,0.0,0.0,0.0,0.0,0.0,0.0,0.0,0.0,0.0,0.0,0.0,0.0,0.0,0.0,0.0,0.0,0.0,0.0,0.0,0.0,-3.846,-3.9289,-3.8458,-3.7192,0.0,0.0,0.0,0.0,0.0,0.0,0.0,0.0,0.0,0.0,0.0,0.0,0.0,0.0,0.0,0.0,0.0,0.0,0.0,0.0,0.0,0.0,0.0,0.0,0.0,0.0,0.0,0.0,0.0,0.0,0.0,0.0,0.0,0.0,0.0,0.0,0.0,0.0,0.0,0.0,0.0,0.0,0.0,0.0,0.0,0.0,0.0,0.0,0.0,0.0,0.0,0.0,0.0,0.0,0.0,0.0,0.0,0.0,0.0,0.0,0.0,0.0,0.0,0.0,0.0,0.0,0.0,0.0,0.0,0.0,0.0,0.0,0.0,0.0,0.0,0.0,0.0,0.0,0.0,0.0,0.0,0.0,0.0,0.0,0.0,0.0,0.0,0.0,0.0,0.0,0.0,0.0,0.0,0.0,0.0,0.0,0.0,0.0,0.0,0.0,0.0,0.0,0.0,0.0,0.0,0.0,0.0,0.0,0.0,0.0,-3.9114,-3.9965,-4.0572,-3.9193,-3.7735,-3.6389,0.0,0.0,0.0,0.0,0.0,0.0,0.0,0.0,0.0,0.0,0.0,0.0,0.0,0.0,0.0,0.0,0.0,0.0,0.0,0.0,0.0,0.0,0.0,0.0,0.0,0.0,0.0,0.0,0.0,0.0,0.0,0.0,0.0,0.0,0.0,0.0,0.0,0.0,0.0,0.0,0.0,0.0,0.0,0.0,0.0,0.0,0.0,0.0,0.0,0.0,0.0,0.0,0.0,0.0,0.0,0.0,0.0,0.0,0.0,0.0,0.0,0.0,0.0,0.0,0.0,0.0,0.0,0.0,0.0,0.0,0.0,0.0,0.0,0.0,0.0,0.0,0.0,0.0,0.0,0.0,0.0,0.0,0.0,0.0,0.0,0.0,0.0,0.0,0.0,0.0,0.0,0.0,0.0,0.0,0.0,0.0,0.0,0.0,0.0,0.0,0.0,0.0,0.0,0.0,0.0,0.0,0.0,0.0,-3.9174,-4.0185,-4.0906,-4.138,-3.9418,-3.7679,0.0,0.0,0.0,0.0,0.0,0.0,0.0,0.0,0.0,0.0,0.0,0.0,0.0,0.0,0.0,0.0,0.0,0.0,0.0,0.0,0.0,0.0,0.0,0.0,0.0,0.0,0.0,0.0,0.0,0.0,0.0,0.0,0.0,0.0,0.0,0.0,0.0,0.0,0.0,0.0,0.0,0.0,0.0,0.0,0.0,0.0,0.0,0.0,0.0,0.0,0.0,0.0,0.0,0.0,0.0,0.0,0.0,0.0,0.0,0.0,0.0,0.0,0.0,0.0,0.0,0.0,0.0,0.0,0.0,0.0,0.0,0.0,0.0,0.0,0.0,0.0,0.0,0.0,0.0,0.0,0.0,0.0,0.0,0.0,0.0,0.0,0.0,0.0,0.0,0.0,0.0,0.0,0.0,0.0,0.0,0.0,0.0,0.0,0.0,0.0,0.0,0.0,0.0,0.0,0.0,0.0,0.0,0.0,0.0,-3.9366,-4.1266,-4.2033,-4.1602,-4.0053,-3.8357,0.0,0.0,0.0,0.0,0.0,0.0,0.0,0.0,0.0,0.0,0.0,0.0,0.0,0.0,0.0,0.0,0.0,0.0,0.0,0.0,0.0,0.0,0.0,0.0,0.0,0.0,0.0,0.0,0.0,0.0,0.0,0.0,0.0,0.0,0.0,0.0,0.0,0.0,0.0,0.0,0.0,0.0,0.0,0.0,0.0,0.0,0.0,0.0,0.0,0.0,0.0,0.0,0.0,0.0,0.0,0.0,0.0,0.0,0.0,0.0,0.0,0.0,0.0,0.0,0.0,0.0,0.0,0.0,0.0,0.0,0.0,0.0,0.0,0.0,0.0,0.0,0.0,0.0,0.0,0.0,0.0,0.0,0.0,0.0,0.0,0.0,0.0,0.0,0.0,0.0,0.0,0.0,0.0,0.0,0.0,0.0,0.0,0.0,0.0,0.0,0.0,0.0,0.0,0.0,0.0,0.0,0.0,0.0,0.0,-4.1067,0.0,-4.3346,-4.2864,-4.0817,-3.8855,0.0,0.0,0.0,0.0,0.0,0.0,0.0,0.0,0.0,0.0,0.0,0.0,0.0,0.0,0.0,0.0,0.0,0.0,0.0,0.0,0.0,0.0,0.0,0.0,0.0,0.0,0.0,0.0,0.0,0.0,0.0,0.0,0.0,0.0,0.0,0.0,0.0,0.0,0.0,0.0,0.0,0.0,0.0,0.0,0.0,0.0,0.0,0.0,0.0,0.0,0.0,0.0,0.0,0.0,0.0,0.0,0.0,0.0,0.0,0.0,0.0,0.0,0.0,0.0,0.0,0.0,0.0,0.0,0.0,0.0,0.0,0.0,0.0,0.0,0.0,0.0,0.0,0.0,0.0,0.0,0.0,0.0,0.0,0.0,0.0,0.0,0.0,0.0,0.0,0.0,0.0,0.0,0.0,0.0,0.0,0.0,0.0,0.0,0.0,0.0,0.0,0.0,0.0,0.0,0.0,0.0,0.0,0.0,-3.9065,-4.4337,-4.4529,-4.4762,-4.5266,-4.1708,-3.9107,0.0,0.0,0.0,0.0,0.0,0.0,0.0,0.0,0.0,0.0,0.0,0.0,0.0,0.0,0.0,0.0,0.0,0.0,0.0,0.0,0.0,0.0,0.0,0.0,0.0,0.0,0.0,0.0,0.0,0.0,0.0,0.0,0.0,0.0,0.0,0.0,0.0,0.0,0.0,0.0,0.0,0.0,0.0,0.0,0.0,0.0,0.0,0.0,0.0,0.0,0.0,0.0,0.0,0.0,0.0,0.0,0.0,0.0,0.0,0.0,0.0,0.0,0.0,0.0,0.0,0.0,0.0,0.0,0.0,0.0,0.0,0.0,0.0,0.0,0.0,0.0,0.0,0.0,0.0,0.0,0.0,0.0,0.0,0.0,0.0,0.0,0.0,0.0,0.0,0.0,0.0,0.0,0.0,0.0,0.0,0.0,0.0,0.0,0.0,0.0,0.0,0.0,0.0,0.0,0.0,0.0,0.0,0.0,0.0,-4.4438,-4.5549,-4.5837,-4.5265,-4.2765,-4.019,0.0,0.0,0.0,0.0,0.0,0.0,0.0,0.0,0.0,0.0,0.0,0.0,0.0,0.0,0.0,0.0,0.0,0.0,0.0,0.0,0.0,0.0,0.0,0.0,0.0,0.0,0.0,0.0,0.0,0.0,0.0,0.0,0.0,0.0,0.0,0.0,0.0,0.0,0.0,0.0,0.0,0.0,0.0,0.0,0.0,0.0,0.0,0.0,0.0,0.0,0.0,0.0,0.0,0.0,0.0,0.0,0.0,0.0,0.0,0.0,0.0,0.0,0.0,0.0,0.0,0.0,0.0,0.0,0.0,0.0,0.0,0.0,0.0,0.0,0.0,0.0,0.0,0.0,0.0,0.0,0.0,0.0,0.0,0.0,0.0,0.0,0.0,0.0,0.0,0.0,0.0,0.0,0.0,0.0,0.0,0.0,0.0,0.0,0.0,0.0,0.0,0.0,0.0,0.0,0.0,0.0,0.0,0.0,0.0,-4.5303,-4.6531,-4.6991,-4.6658,-4.3682,-4.1008,-3.8655,0.0,0.0,0.0,0.0,0.0,0.0,0.0,0.0,0.0,0.0,0.0,0.0,0.0,0.0,0.0,0.0,0.0,0.0,0.0,0.0,0.0,0.0,0.0,0.0,0.0,0.0,0.0,0.0,0.0,0.0,0.0,0.0,0.0,0.0,0.0,0.0,0.0,0.0,0.0,0.0,0.0,0.0,0.0,0.0,0.0,0.0,0.0,0.0,0.0,0.0,0.0,0.0,0.0,0.0,0.0,0.0,0.0,0.0,0.0,0.0,0.0,0.0,0.0,0.0,0.0,0.0,0.0,0.0,0.0,0.0,0.0,0.0,0.0,0.0,0.0,0.0,0.0,0.0,0.0,0.0,0.0,0.0,0.0,0.0,0.0,0.0,0.0,0.0,0.0,0.0,0.0,0.0,0.0,0.0,0.0,0.0,0.0,0.0,0.0,0.0,0.0,0.0,0.0,0.0,0.0,0.0,0.0,0.0,-4.6788,-4.753,-4.8224,-4.8829,-4.4619,-4.1603,0.0,0.0,0.0,0.0,0.0,0.0,0.0,0.0,0.0,0.0,0.0,0.0,0.0,0.0,0.0,0.0,0.0,0.0,0.0,0.0,0.0,0.0,0.0,0.0,0.0,0.0,0.0,0.0,0.0,0.0,0.0,0.0,0.0,0.0,0.0,0.0,0.0,0.0,0.0,0.0,0.0,0.0,0.0,0.0,0.0,0.0,0.0,0.0,0.0,0.0,0.0,0.0,0.0,0.0,0.0,0.0,0.0,0.0,0.0,0.0,0.0,0.0,0.0,0.0,0.0,0.0,0.0,0.0,0.0,0.0,0.0,0.0,0.0,0.0,0.0,0.0,0.0,0.0,0.0,0.0,0.0,0.0,0.0,0.0,0.0,0.0,0.0,0.0,0.0,0.0,0.0,0.0,0.0,0.0,0.0,0.0,0.0,0.0,0.0,0.0,0.0,0.0,0.0,0.0,0.0,0.0,0.0,0.0,0.0,-4.6116,-4.8851,-4.9997,-4.9372,-4.6863,-4.3729,0.0,0.0,0.0,0.0,0.0,0.0,0.0,0.0,0.0,0.0,0.0,0.0,0.0,0.0,0.0,0.0,0.0,0.0,0.0,0.0,0.0,0.0,0.0,0.0,0.0,0.0,0.0,0.0,0.0,0.0,0.0,0.0,0.0,0.0,0.0,0.0,0.0,0.0,0.0,0.0,0.0,0.0,0.0,0.0,0.0,0.0,0.0,0.0,0.0,0.0,0.0,0.0,0.0,0.0,0.0,0.0,0.0,0.0,0.0,0.0,0.0,0.0,0.0,0.0,0.0,0.0,0.0,0.0,0.0,0.0,0.0,0.0,0.0,0.0,0.0,0.0,0.0,0.0,0.0,0.0,0.0,0.0,0.0,0.0,0.0,0.0,0.0,0.0,0.0,0.0,0.0,0.0,0.0,0.0,0.0,0.0,0.0,0.0,0.0,0.0,0.0,0.0,0.0,0.0,0.0,0.0,0.0,0.0,-4.3212,-4.5763,-4.8823,-5.012,-4.9575,-4.7555,-4.4656,0.0,0.0,0.0,0.0,0.0,0.0,0.0,0.0,0.0,0.0,0.0,0.0,0.0,0.0,0.0,0.0,0.0,0.0,0.0,0.0,0.0,0.0,0.0,0.0,0.0,0.0,0.0,0.0,0.0,0.0,0.0,0.0,0.0,0.0,0.0,0.0,0.0,0.0,0.0,0.0,0.0,0.0,0.0,0.0,0.0,0.0,0.0,0.0,0.0,0.0,0.0,0.0,0.0,0.0,0.0,0.0,0.0,0.0,0.0,0.0,0.0,0.0,0.0,0.0,0.0,0.0,0.0,0.0,0.0,0.0,0.0,0.0,0.0,0.0,0.0,0.0,0.0,0.0,0.0,0.0,0.0,0.0,0.0,0.0,0.0,0.0,0.0,0.0,0.0,0.0,0.0,0.0,0.0,0.0,0.0,0.0,0.0,0.0,0.0,0.0,0.0,0.0,0.0,0.0,0.0,0.0,0.0,0.0,-4.274,-4.5579,-4.8013,-4.9318,-4.931,-4.7371,-4.4941,0.0,0.0,0.0,0.0,0.0,0.0,0.0,0.0,0.0,0.0,0.0,0.0,0.0,0.0,0.0,0.0,0.0,0.0,0.0,0.0,0.0,0.0,0.0,0.0,0.0,0.0,0.0,0.0,0.0,0.0,0.0,0.0,0.0,0.0,0.0,0.0,0.0,0.0,0.0,0.0,0.0,0.0,0.0,0.0,0.0,0.0,0.0,0.0,0.0,0.0,0.0,0.0,0.0,0.0,0.0,0.0,0.0,0.0,0.0,0.0,0.0,0.0,0.0,0.0,0.0,0.0,0.0,0.0,0.0,0.0,0.0,0.0,0.0,0.0,0.0,0.0,0.0,0.0,0.0,0.0,0.0,0.0,0.0,0.0,0.0,0.0,0.0,0.0,0.0,0.0,0.0,0.0,0.0,0.0,0.0,0.0,0.0,0.0,0.0,0.0,0.0,0.0,0.0,0.0,0.0,0.0,0.0,0.0,-4.2406,-4.5029,-4.7725,-4.9018,-4.8735,-4.7484,-4.5187,0.0,0.0,0.0,0.0,0.0,0.0,0.0,0.0,0.0,0.0,0.0,0.0,0.0,0.0,0.0,0.0,0.0,0.0,0.0,0.0,0.0,0.0,0.0,0.0,0.0,0.0,0.0,0.0,0.0,0.0,0.0,0.0,0.0,0.0,0.0,0.0,0.0,0.0,0.0,0.0,0.0,0.0,0.0,0.0,0.0,0.0,0.0,0.0,-3.8924,0.0,0.0,0.0,0.0,0.0,0.0,0.0,0.0,0.0,0.0,0.0,0.0,0.0,0.0,0.0,0.0,0.0,0.0,0.0,0.0,0.0,0.0,0.0,0.0,0.0,0.0,0.0,0.0,0.0,0.0,0.0,0.0,0.0,0.0,0.0,0.0,0.0,0.0,0.0,0.0,0.0,0.0,0.0,0.0,0.0,0.0,0.0,0.0,0.0,0.0,0.0,0.0,0.0,0.0,0.0,0.0,0.0,0.0,0.0,-4.0951,-4.3227,-4.5866,-4.6968,-4.6525,-4.5989,-4.4448,0.0,0.0,0.0,0.0,0.0,0.0,0.0,0.0,0.0,0.0,0.0,0.0,0.0,0.0,0.0,0.0,0.0,0.0,0.0,0.0,0.0,0.0,0.0,0.0,0.0,0.0,0.0,0.0,0.0,0.0,0.0,0.0,0.0,0.0,0.0,0.0,0.0,0.0,0.0,0.0,0.0,0.0,0.0,0.0,0.0,0.0,0.0,0.0,0.0,0.0,0.0,0.0,0.0,0.0,0.0,0.0,0.0,0.0,0.0,0.0,0.0,0.0,0.0,0.0,0.0,0.0,0.0,0.0,0.0,0.0,0.0,0.0,0.0,0.0,0.0,0.0,0.0,0.0,0.0,0.0,0.0,0.0,0.0,0.0,0.0,0.0,0.0,0.0,0.0,0.0,0.0,0.0,0.0,0.0,0.0,0.0,0.0,0.0,0.0,0.0,0.0,0.0,0.0,0.0,0.0,0.0,0.0,-3.7387,-3.9294,-4.1308,-4.3586,-4.4571,-4.4152,-4.4074,-4.3217,-4.1464,0.0,0.0,0.0,0.0,0.0,0.0,0.0,0.0,0.0,0.0,0.0,0.0,0.0,0.0,0.0,0.0,0.0,0.0,0.0,0.0,0.0,0.0,0.0,0.0,0.0,0.0,0.0,0.0,0.0,0.0,0.0,0.0,0.0,0.0,0.0,0.0,0.0,0.0,-3.6928,-4.1053,0.0,0.0,0.0,0.0,0.0,0.0,0.0,0.0,-3.9846,0.0,0.0,0.0,0.0,0.0,0.0,0.0,0.0,0.0,0.0,0.0,0.0,0.0,0.0,0.0,0.0,0.0,0.0,0.0,0.0,0.0,0.0,0.0,0.0,0.0,0.0,0.0,0.0,0.0,0.0,0.0,0.0,0.0,0.0,0.0,0.0,0.0,0.0,0.0,0.0,0.0,0.0,0.0,0.0,0.0,0.0,0.0,0.0,0.0,0.0,0.0,0.0,0.0,0.0,0.0,0.0,-3.5742,-3.7064,-3.8825,-4.0998,-4.2501,-4.3366,-4.3523,-4.2992,-4.1771,-3.9841,0.0,0.0,0.0,0.0,0.0,0.0,0.0,0.0,0.0,0.0,0.0,0.0,0.0,0.0,0.0,0.0,0.0,0.0,0.0,0.0,0.0,0.0,0.0,0.0,0.0,0.0,0.0,0.0,0.0,0.0,0.0,0.0,0.0,0.0,0.0,0.0,0.0,0.0,0.0,-4.3137,-4.5423,0.0,0.0,0.0,0.0,0.0,0.0,0.0,0.0,-3.9738,0.0,0.0,0.0,0.0,0.0,0.0,0.0,0.0,0.0,0.0,0.0,0.0,0.0,0.0,0.0,0.0,0.0,0.0,0.0,0.0,0.0,0.0,0.0,0.0,0.0,0.0,0.0,0.0,0.0,0.0,0.0,0.0,0.0,0.0,0.0,0.0,0.0,0.0,0.0,0.0,0.0,0.0,0.0,0.0,0.0,0.0,0.0,0.0,0.0,0.0,0.0,0.0,0.0,0.0,0.0,-3.5187,-3.6527,-3.8104,-4.0113,-4.1443,-4.2021,-4.1778,-4.1529,-4.035,0.0,0.0,0.0,0.0,0.0,0.0,0.0,0.0,0.0,0.0,0.0,0.0,0.0,0.0,0.0,0.0,0.0,0.0,0.0,0.0,0.0,0.0,0.0,0.0,0.0,0.0,0.0,0.0,0.0,0.0,0.0,0.0,0.0,0.0,0.0,0.0,0.0,0.0,0.0,0.0,-4.446,-4.6702,-4.7571,0.0,0.0,0.0,0.0,0.0,0.0,-4.2437,-4.1499,0.0,0.0,0.0,0.0,0.0,0.0,0.0,0.0,0.0,0.0,0.0,0.0,0.0,0.0,0.0,0.0,0.0,0.0,0.0,0.0,0.0,0.0,0.0,0.0,0.0,0.0,0.0,0.0,0.0,0.0,0.0,0.0,0.0,0.0,0.0,0.0,0.0,0.0,0.0,0.0,0.0,0.0,0.0,0.0,0.0,0.0,0.0,0.0,0.0,0.0,0.0,0.0,0.0,0.0,0.0,-3.4759,-3.6007,-3.7557,-3.9315,-4.0457,-4.0765,-4.0222,-4.0184,-3.8999,0.0,0.0,0.0,0.0,0.0,0.0,0.0,0.0,0.0,0.0,0.0,0.0,0.0,0.0,0.0,0.0,0.0,0.0,0.0,0.0,0.0,0.0,0.0,0.0,0.0,0.0,0.0,0.0,0.0,0.0,0.0,0.0,0.0,0.0,0.0,0.0,0.0,0.0,0.0,0.0,0.0,-4.7572,-4.8456,-4.8488,0.0,0.0,0.0,0.0,-4.4226,-4.3676,0.0,0.0,0.0,0.0,0.0,0.0,0.0,0.0,0.0,0.0,0.0,0.0,0.0,0.0,0.0,0.0,0.0,0.0,0.0,0.0,0.0,0.0,0.0,0.0,0.0,0.0,0.0,0.0,0.0,0.0,0.0,0.0,0.0,0.0,0.0,0.0,0.0,0.0,0.0,0.0,0.0,0.0,0.0,0.0,0.0,0.0,0.0,0.0,0.0,0.0,0.0,0.0,0.0,0.0,0.0,0.0,-3.4707,-3.5934,-3.7433,-3.9242,-3.9692,-3.9917,-3.9935,-3.9345,-3.8151,0.0,0.0,0.0,0.0,0.0,0.0,0.0,0.0,0.0,0.0,0.0,0.0,0.0,0.0,0.0,0.0,0.0,0.0,0.0,0.0,0.0,0.0,0.0,0.0,0.0,0.0,0.0,0.0,0.0,0.0,0.0,0.0,0.0,0.0,0.0,0.0,0.0,0.0,0.0,0.0,0.0,-4.7814,-4.8816,-4.8805,-4.8326,0.0,0.0,-4.4347,-4.4492,-4.3662,0.0,0.0,0.0,0.0,0.0,0.0,0.0,0.0,0.0,0.0,0.0,0.0,0.0,0.0,0.0,0.0,0.0,0.0,0.0,0.0,0.0,0.0,0.0,0.0,0.0,0.0,0.0,0.0,0.0,0.0,0.0,0.0,0.0,0.0,0.0,0.0,0.0,0.0,0.0,0.0,0.0,0.0,0.0,0.0,0.0,0.0,0.0,0.0,0.0,0.0,0.0,0.0,0.0,0.0,0.0,-3.1577,-3.3705,-3.5616,-3.7288,-3.8642,-3.9268,-3.9406,-3.8937,-3.8237,-3.6804,0.0,0.0,0.0,0.0,0.0,0.0,0.0,0.0,0.0,0.0,0.0,0.0,0.0,0.0,0.0,0.0,0.0,0.0,0.0,0.0,0.0,0.0,0.0,0.0,0.0,0.0,0.0,0.0,0.0,0.0,0.0,0.0,0.0,0.0,0.0,0.0,0.0,0.0,0.0,0.0,0.0,0.0,-4.89,-4.9374,0.0,0.0,0.0,-4.5486,-4.4993,0.0,0.0,0.0,0.0,0.0,0.0,0.0,0.0,0.0,0.0,0.0,0.0,0.0,0.0,0.0,0.0,0.0,0.0,0.0,0.0,0.0,0.0,0.0,0.0,0.0,0.0,0.0,0.0,0.0,0.0,0.0,0.0,0.0,0.0,0.0,0.0,0.0,0.0,0.0,0.0,0.0,0.0,0.0,0.0,0.0,0.0,0.0,0.0,0.0,0.0,0.0,0.0,0.0,0.0,0.0,0.0,0.0,-3.2739,-3.5,-3.668,-3.781,-3.8444,-3.8477,-3.7826,-3.7032,0.0,0.0,0.0,0.0,0.0,0.0,0.0,0.0,0.0,0.0,0.0,0.0,0.0,0.0,0.0,0.0,0.0,0.0,0.0,0.0,0.0,0.0,0.0,0.0,0.0,0.0,0.0,-2.2665,0.0,0.0,0.0,0.0,0.0,0.0,0.0,0.0,0.0,0.0,0.0,0.0,0.0,0.0,-4.7121,-4.8746,-4.9354,-4.9342,0.0,0.0,-4.5885,-4.5101,-4.3948,-4.278,0.0,0.0,0.0,0.0,0.0,0.0,0.0,0.0,0.0,0.0,0.0,0.0,0.0,0.0,0.0,0.0,0.0,0.0,0.0,0.0,0.0,0.0,0.0,0.0,0.0,0.0,0.0,0.0,0.0,0.0,0.0,0.0,0.0,0.0,0.0,0.0,0.0,0.0,0.0,0.0,0.0,0.0,0.0,0.0,0.0,0.0,0.0,0.0,0.0,0.0,0.0,0.0,0.0,0.0,0.0,-3.2326,-3.3825,-3.5298,-3.676,-3.6858,-3.6858,-3.6793,-3.5847,-3.4554,0.0,0.0,0.0,0.0,0.0,0.0,0.0,0.0,0.0,0.0,0.0,0.0,0.0,0.0,0.0,0.0,0.0,0.0,0.0,0.0,0.0,0.0,0.0,0.0,0.0,0.0,0.0,0.0,0.0,0.0,0.0,0.0,0.0,0.0,0.0,0.0,0.0,0.0,0.0,0.0,0.0,-4.6359,-4.8293,-4.826,-4.801,0.0,0.0,-4.4703,-4.4423,-4.3501,-4.2482,-4.1411,0.0,0.0,0.0,0.0,0.0,0.0,0.0,0.0,0.0,0.0,0.0,0.0,0.0,0.0,0.0,0.0,0.0,0.0,0.0,0.0,0.0,0.0,0.0,0.0,0.0,0.0,0.0,0.0,0.0,0.0,0.0,0.0,0.0,0.0,0.0,0.0,0.0,0.0,0.0,0.0,0.0,0.0,0.0,0.0,0.0,0.0,0.0,0.0,0.0,0.0,0.0,0.0,0.0,-2.8979,-3.1373,-3.2934,-3.433,-3.5505,-3.5942,-3.5873,-3.5384,-3.5,-3.3834,0.0,0.0,0.0,0.0,0.0,0.0,0.0,0.0,0.0,0.0,0.0,0.0,0.0,0.0,0.0,0.0,0.0,0.0,0.0,0.0,0.0,0.0,0.0,0.0,0.0,0.0,0.0,0.0,-2.7418,-2.8105,-2.8732,0.0,0.0,0.0,0.0,0.0,0.0,0.0,0.0,0.0,0.0,-4.4917,-4.6662,-4.706,0.0,0.0,-4.551,-4.4641,-4.3939,-4.2659,-4.1544,-4.1033,-3.8967,0.0,0.0,0.0,0.0,0.0,0.0,0.0,0.0,0.0,0.0,0.0,0.0,0.0,0.0,0.0,0.0,0.0,0.0,0.0,0.0,0.0,0.0,0.0,0.0,0.0,0.0,0.0,0.0,0.0,0.0,0.0,0.0,0.0,0.0,0.0,0.0,0.0,0.0,0.0,0.0,0.0,0.0,0.0,0.0,0.0,0.0,0.0,0.0,0.0,0.0,0.0,0.0,-2.813,-3.0165,-3.1824,-3.3045,-3.3831,-3.4536,-3.4578,-3.3994,-3.3713,-3.2619,0.0,0.0,0.0,0.0,0.0,0.0,0.0,0.0,0.0,0.0,0.0,0.0,0.0,0.0,0.0,0.0,0.0,0.0,0.0,0.0,0.0,0.0,0.0,0.0,0.0,0.0,0.0,0.0,-2.8278,-2.8621,-2.8779,0.0,0.0,0.0,0.0,0.0,0.0,0.0,0.0,0.0,0.0,-4.3642,-4.5168,-4.5807,-4.5917,-4.5278,-4.473,-4.4125,-4.3185,-4.1829,-4.0753,-4.0154,0.0,0.0,0.0,0.0,0.0,0.0,0.0,0.0,0.0,0.0,0.0,0.0,0.0,0.0,0.0,0.0,0.0,0.0,0.0,0.0,0.0,0.0,0.0,0.0,0.0,0.0,0.0,0.0,0.0,0.0,0.0,0.0,0.0,0.0,0.0,0.0,0.0,0.0,0.0,0.0,0.0,0.0,0.0,0.0,0.0,0.0,0.0,0.0,0.0,0.0,0.0,0.0,0.0,-2.7493,-2.8843,-3.0227,-3.1134,-3.1685,-3.2438,-3.2834,-3.2788,-3.1844,-3.0914,-3.0179,0.0,0.0,0.0,0.0,0.0,0.0,0.0,0.0,0.0,0.0,0.0,0.0,0.0,0.0,0.0,0.0,0.0,0.0,0.0,0.0,0.0,0.0,0.0,0.0,0.0,0.0,-2.8656,-2.8865,-2.8826,0.0,0.0,0.0,0.0,0.0,0.0,0.0,0.0,0.0,0.0,-4.0908,-4.27,-4.3913,-4.4473,-4.4633,-4.4633,-4.3784,-4.2806,-4.1999,-4.1238,-4.0252,0.0,0.0,0.0,0.0,0.0,0.0,0.0,0.0,0.0,0.0,0.0,0.0,0.0,0.0,0.0,0.0,0.0,0.0,0.0,0.0,0.0,0.0,0.0,0.0,0.0,0.0,0.0,-3.026,-3.0228,0.0,0.0,0.0,0.0,0.0,0.0,0.0,0.0,0.0,0.0,0.0,-3.1546,-3.1561,0.0,0.0,0.0,0.0,0.0,0.0,0.0,0.0,0.0,0.0,0.0,0.0,-2.7095,-2.8465,-2.9373,-2.997,-3.0266,-3.0989,-3.1086,-3.0537,-3.0295,-2.9696,-2.877,0.0,0.0,0.0,0.0,0.0,0.0,0.0,0.0,0.0,0.0,0.0,0.0,0.0,0.0,0.0,0.0,0.0,0.0,0.0,0.0,0.0,0.0,0.0,0.0,0.0,-2.6861,0.0,0.0,0.0,0.0,0.0,0.0,0.0,0.0,0.0,0.0,0.0,-3.6478,-3.8068,-3.9421,-4.0603,-4.1583,-4.1792,-4.1896,0.0,0.0,0.0,0.0,0.0,0.0,0.0,0.0,0.0,0.0,0.0,0.0,0.0,0.0,-3.1097,-2.9941,-2.9288,-2.8884,-2.8811,0.0,0.0,0.0,0.0,0.0,0.0,0.0,0.0,0.0,0.0,0.0,0.0,0.0,0.0,0.0,0.0,-3.1393,0.0,0.0,0.0,0.0,0.0,0.0,0.0,0.0,-3.2109,-3.2407,-3.2407,-3.2467,-3.2005,0.0,-3.0703,-2.9699,0.0,0.0,0.0,0.0,0.0,0.0,0.0,0.0,-2.6938,-2.78,-2.832,-2.8634,-2.8717,-2.9411,-2.9491,-2.902,-2.8922,-2.8449,-2.7414,-2.548,-2.4291,0.0,0.0,0.0,0.0,0.0,0.0,0.0,0.0,0.0,0.0,0.0,0.0,0.0,0.0,0.0,0.0,0.0,0.0,0.0,0.0,0.0,0.0,0.0,-2.7445,0.0,0.0,0.0,0.0,0.0,0.0,0.0,0.0,0.0,-3.3432,-3.5086,-3.6616,-3.769,-3.8526,-3.9296,-3.9925,0.0,0.0,0.0,0.0,0.0,0.0,0.0,-3.9108,-3.8434,-3.753,-3.6663,-3.5966,-3.4832,-3.3921,-3.3618,0.0,0.0,-3.1281,-3.0535,-3.005,-3.0003,-3.0344,-3.0693,-3.0977,-3.1189,-3.1316,0.0,0.0,0.0,0.0,0.0,0.0,0.0,0.0,-3.2778,-3.3372,0.0,-3.2614,0.0,0.0,0.0,0.0,0.0,0.0,0.0,0.0,-3.3608,-3.3947,-3.3903,-3.4036,-3.3627,-3.2694,-3.1632,-3.0558,-2.9537,-2.8539,0.0,0.0,0.0,0.0,0.0,0.0,-2.6951,-2.6817,-2.7093,-2.713,-2.7011,-2.7733,-2.8163,-2.8066,-2.7783,-2.7194,-2.6226,-2.4695,-2.377,-2.3654,-2.1961,0.0,0.0,0.0,0.0,0.0,0.0,0.0,0.0,0.0,0.0,0.0,0.0,0.0,0.0,0.0,0.0,0.0,0.0,0.0,0.0,-2.7674,0.0,0.0,0.0,0.0,0.0,0.0,0.0,0.0,0.0,0.0,-3.4454,-3.5385,-3.6381,-3.7488,0.0,0.0,0.0,0.0,-3.9982,-3.9966,-4.0043,-3.9802,-3.907,-3.8942,-3.8419,-3.6921,0.0,0.0,-3.5819,-3.5175,-3.4736,-3.461,-3.4225,-3.3681,-3.2429,-3.2012,-3.1817,-3.1622,-3.1462,-3.1377,-3.123,-3.0825,-3.0383,-3.8673,0.0,0.0,0.0,0.0,-3.3135,-3.3341,-3.4101,-3.4484,-3.4576,-3.4501,-3.4122,0.0,0.0,0.0,0.0,0.0,0.0,-3.3092,-3.2684,-3.341,-3.3469,-3.2917,-3.2966,-3.263,-3.1864,-3.1562,-3.0758,-2.9624,-2.8853,-2.8283,-2.7777,0.0,0.0,0.0,0.0,-2.6614,-2.6141,-2.6637,-2.6651,-2.617,-2.6811,-2.6913,-2.6329,-2.6159,-2.5612,-2.4638,-2.3562,-2.2807,-2.2488,-2.1345,0.0,0.0,0.0,0.0,0.0,0.0,0.0,0.0,0.0,0.0,0.0,0.0,0.0,0.0,0.0,0.0,0.0,0.0,0.0,-2.6573,-2.7689,-2.8405,0.0,0.0,0.0,0.0,0.0,0.0,0.0,0.0,0.0,-3.3064,-3.5077,-3.6613,0.0,0.0,-3.7884,-3.7943,-3.8193,-3.838,-3.8364,0.0,0.0,0.0,-3.8136,-3.7859,-3.7152,-3.615,-3.523,-3.4614,-3.3873,-3.3323,-3.3143,-3.2934,-3.271,-3.2357,-3.2047,-3.1772,-3.1575,-3.1054,-3.0769,-3.1065,-3.089,-3.0538,-4.0974,-3.8959,-3.6875,-3.5607,-3.4948,-3.4482,-3.4577,-3.494,-3.5213,-3.5271,-3.5178,-3.4766,-3.4147,-3.3351,-3.2332,0.0,0.0,0.0,-3.3044,-3.2576,-3.3019,-3.2925,-3.2513,-3.2315,-3.1849,-3.1148,-3.0962,-3.0308,-2.9232,-2.8608,-2.7984,-2.736,0.0,0.0,-2.6387,-2.6387,-2.6083,-2.5458,-2.556,-2.556,-2.5415,-2.5771,-2.572,-2.5178,-2.4961,-2.447,-2.3761,-2.2811,-2.2129,-2.1836,-2.0899,-2.0271,0.0,0.0,0.0,0.0,0.0,0.0,0.0,0.0,0.0,0.0,0.0,-2.0404,-2.1156,0.0,0.0,0.0,-2.4888,-2.5837,-2.7045,-2.7817,0.0,0.0,0.0,0.0,0.0,0.0,0.0,-3.0584,-3.1316,-3.197,-3.2333,-3.4167,-3.5676,-3.6395,-3.6872,-3.7225,-3.7285,0.0,-3.731,-3.7042,-3.7128,-3.7017,-3.6674,-3.6495,-3.626,-3.5811,-3.4681,-3.3754,-3.3422,-3.2684,-3.2101,-3.1916,-3.168,-3.1444,-3.1303,-3.0849,-3.0757,-3.1354,-3.0834,-3.0411,-3.0547,-2.9964,-2.9424,-4.2502,-4.1662,-3.8726,-3.6705,-3.5508,-3.5761,-3.5371,-3.4607,-3.5235,-3.5489,-3.5459,-3.4846,-3.4502,-3.4322,-3.308,0.0,-3.2183,-3.2151,-3.2291,-3.265,-3.2445,-3.2338,-3.2251,-3.1737,-3.1095,-3.0321,-2.9886,-2.9245,-2.8419,-2.7784,-2.7205,-2.6634,-2.6582,-2.6315,-2.5749,-2.572,-2.5415,-2.482,-2.4225,-2.4181,-2.4684,-2.4687,-2.4618,-2.4397,-2.3983,-2.3664,-2.3272,-2.2293,-2.1588,-2.1381,-2.0476,-1.999,-1.999,0.0,0.0,0.0,0.0,0.0,0.0,0.0,0.0,0.0,0.0,0.0,0.0,0.0,0.0,0.0,-2.5992,0.0,-2.7213,-2.7996,0.0,0.0,0.0,-2.9376,-2.9566,-2.9896,-3.0228,-3.0363,0.0,0.0,-3.181,0.0,-3.3759,-3.5135,-3.6028,-3.6569,-3.6783,-3.6736,-3.6609,-3.597,-3.5848,-3.5525,-3.4845,-3.4395,-3.401,-3.3412,-3.2706,-3.2242,-3.2106,-3.1382,-3.0831,-3.0688,-3.0287,-2.9722,-2.9431,-2.8848,-2.8956,-3.0465,-3.0336,-2.9799,-2.9274,-2.8201,-2.7283,-4.0938,-4.0259,-3.9094,-3.818,-3.7464,-3.6174,-3.5479,-3.5295,-3.5429,-3.5489,-3.5489,-3.534,-3.4696,-3.3679,-3.2871,-3.2378,-3.2212,-3.2746,-3.2729,-3.2115,-3.1479,-3.0891,-3.0337,-2.9653,-2.8843,-2.7954,-2.791,-2.725,-2.6069,-2.5988,-2.5563,-2.494,-2.4912,-2.4927,-2.5017,-2.4982,-2.4679,-2.4138,-2.3978,-2.3916,-2.3966,-2.431,-2.4156,-2.3378,-2.3067,-2.2419,-2.1496,-2.1086,-2.0731,-2.0386,-2.0105,-1.999,-1.9862,-1.9798,0.0,0.0,0.0,0.0,0.0,0.0,0.0,0.0,0.0,-2.2287,-2.27,0.0,-2.42,0.0,-2.5949,-2.6693,-2.6933,-2.8167,0.0,0.0,-2.9406,-2.9507,-2.9449,-2.9088,-2.8814,-2.877,-2.8972,-2.9175,-2.9463,-3.0148,-3.1043,-3.221,-3.38,-3.4877,-3.4937,-3.504,-3.5053,-3.4868,-3.457,-3.4252,-3.349,-3.2624,-3.1841,-3.144,-3.0746,-3.0187,-2.9992,-2.9014,-2.8226,-2.814,-2.7541,-2.699,-2.6736,-2.6412,-2.6112,-2.6358,-2.6985,-2.7544,-2.7158,-2.6321,-2.5511,-4.0257,-3.9612,-3.8811,-3.8255,-3.7755,-3.6567,-3.5824,-3.5504,-3.5489,-3.5489,-3.5489,-3.5111,-3.4181,-3.2959,-3.2436,-3.1989,-3.1738,-3.1692,-3.1455,-3.1028,-3.0178,-2.9523,-2.8987,-2.7966,-2.7183,-2.6606,-2.6122,-2.5327,-2.4354,-2.4362,-2.3936,-2.3036,-2.296,-2.2852,-2.2783,-2.3388,-2.3277,-2.2464,-2.3043,-2.3155,-2.2744,-2.3425,-2.3364,-2.2394,-2.1975,-2.1452,-2.0723,-2.0459,-2.0233,-2.0029,-1.9939,-1.9862,-1.9798,-1.9798,-1.9798,0.0,0.0,0.0,0.0,0.0,0.0,0.0,0.0,0.0,0.0,0.0,-2.4229,0.0,-2.572,-2.6408,-2.675,-2.7852,-2.8623,-2.8842,-2.89,-2.8958,-2.8958,-2.8598,-2.8326,-2.844,-2.8383,-2.844,-2.8681,-2.9042,-2.9434,-3.0072,-3.1126,-3.2282,-3.3317,-3.3389,-3.3142,-3.2837,-3.2546,-3.2088,-3.1255,-3.0452,-2.9726,-2.9218,-2.8713,-2.8211,-2.7855,-2.6931,-2.617,-2.6127,-2.55,-2.4716,-2.4293,-2.4012,-2.3622,-2.3124,-2.3415,-2.4176,-2.476,-2.4249,-2.3625,-3.9697,-3.9172,-3.8122,-3.7432,-3.7128,-3.6632,-3.609,-3.537,-3.537,-3.5325,-3.5141,-3.4248,-3.328,-3.2257,-3.1821,-3.1364,-3.0852,-2.9988,-2.9639,-2.9652,-2.8654,-2.8082,-2.7855,-2.6519,-2.5678,-2.532,-2.424,-2.3371,-2.2712,-2.2698,-2.2152,-2.1142,-2.1011,-2.0615,-2.0045,-2.124,-2.1476,-2.0557,-2.1725,-2.2053,-2.1478,-2.2244,-2.2325,-2.1533,-2.1006,-2.0696,-2.051,-2.0182,-1.999,-1.999,-1.9862,-1.9798,-1.9798,-1.9798,-1.9798,0.0,-1.9798,0.0,0.0,0.0,0.0,0.0,0.0,0.0,0.0,-2.3767,-2.4171,-2.4664,-2.5418,-2.612,-2.6651,-2.7227,-2.7666,-2.8011,-2.7926,-2.7897,-2.8009,-2.7825,-2.7838,-2.8132,-2.8076,-2.802,-2.8045,-2.8187,-2.8187,-2.8286,-2.8323,-2.9171,-3.1126,-3.1285,-3.0923,-3.0313,-2.9978,-2.933,-2.8487,-2.7909,-2.7483,-2.6956,-2.6608,-2.6287,-2.5835,-2.504,-2.4393,-2.4285,-2.3561,-2.2702,-2.1947,-2.1716,-2.1292,-2.0484,-2.0408,-2.0939,-2.2195,-2.2166,-2.1533,-3.7963,-3.7631,-3.7095,-3.6676,-3.6189,-3.5594,-3.5102,-3.4681,-3.4666,-3.4319,-3.3672,-3.2694,-3.2129,-3.1804,-3.117,-3.0513,-2.9886,-2.9551,-2.916,-2.8683,-2.7267,-2.6519,-2.616,-2.4822,-2.3413,-2.2065,-2.1907,-2.1192,-1.9978,-2.0057,-1.9948,-1.9642,-1.9597,-1.9257,-1.8709,0.0,0.0,0.0,-2.0655,-2.0892,-2.1032,-2.107,-2.1091,-2.093,-2.0759,0.0,-2.0131,-2.0042,-1.9926,-1.9862,-1.9798,0.0,0.0,0.0,0.0,0.0,0.0,0.0,0.0,0.0,0.0,0.0,-2.1398,-2.2053,-2.2898,-2.3754,-2.4305,-2.4434,-2.5186,-2.5914,-2.6277,-2.6634,-2.6932,-2.7244,-2.6458,-2.595,-2.5936,-2.5549,-2.5234,-2.5285,-2.53,-2.5314,-2.5553,-2.5423,-2.5691,-2.6249,-2.5894,-2.5988,-2.7018,-2.8154,-2.8719,-2.8449,-2.7433,-2.6337,-2.5781,-2.5293,-2.4986,-2.4601,-2.4535,-2.4323,-2.3944,-2.3036,-2.2262,-2.2122,-2.0982,-2.012,-1.9834,-1.9595,-1.9326,-1.8732,-1.8611,-1.8978,-2.0244,-2.0028,-1.9586,-3.7373,0.0,-3.6367,-3.5861,0.0,-3.4774,-3.406,-3.3436,-3.4115,-3.3689,-3.2547,-3.1824,-3.129,-3.0881,-2.9883,-2.9305,-2.9127,-2.7982,-2.7357,-2.71,-2.5596,-2.4755,-2.4447,-2.2978,-2.1807,-2.0885,-2.0412,-1.9635,-1.8711,-1.8729,-1.8583,-1.8205,-1.8482,-1.8438,-1.8131,-1.838,-1.8732,-1.9045,-1.9446,-1.9665,-1.9748,-1.9899,-1.9967,-1.9917,0.0,0.0,0.0,0.0,0.0,0.0,0.0,0.0,0.0,0.0,0.0,-1.9773,-1.956,-1.9409,-1.9409,-1.9447,-1.956,-1.9784,-2.0602,-2.1428,-2.2096,-2.2603,-2.2985,-2.3237,-2.3612,-2.4136,-2.4819,-2.4915,-2.512,-2.5508,-2.5128,-2.4745,-2.4614,-2.4352,-2.4118,-2.419,-2.4204,-2.4269,-2.4469,-2.4469,-2.4619,-2.4941,-2.4482,-2.4118,-2.454,-2.5626,-2.6403,-2.6182,-2.5566,-2.4688,-2.4123,-2.3806,-2.3224,-2.263,-2.229,-2.2055,-2.1588,-2.0962,-2.0462,-2.0314,-1.9601,-1.8923,-1.8468,-1.8235,-1.7931,-1.7393,-1.7227,-1.7318,-1.7939,-1.8213,-1.8411,-3.7191,-3.6765,-3.5843,-3.5232,-3.4759,-3.4091,-3.3126,-3.2109,0.0,0.0,0.0,-3.1008,-3.0444,-2.9856,-2.8669,-2.8199,-2.8246,-2.6341,-2.5439,-2.5397,-2.3802,-2.2926,-2.2613,-2.1196,-2.0404,-2.0103,-1.9191,-1.8435,-1.7831,-1.7909,-1.7726,-1.732,-1.7756,-1.8028,-1.8035,-1.8448,-1.8453,-1.8055,-1.8555,-1.8741,-1.8625,-1.8959,-1.9042,-1.8904,-1.8567,-1.838,-1.838,-1.8239,-1.8204,-1.8204,-1.8204,-1.8417,-1.8795,-1.8833,-1.907,-1.9459,-1.912,-1.8882,-1.8869,-1.8455,-1.8344,-1.8684,-1.9647,-2.0643,-2.1516,-2.1592,-2.1771,-2.2102,-2.2102,-2.2402,-2.313,-2.3022,-2.3067,-2.3448,-2.3371,-2.3238,-2.3139,-2.3031,-2.287,-2.3067,-2.302,-2.323,-2.3343,-2.3427,-2.3589,-2.3469,-2.296,-2.2701,-2.2785,-2.3478,-2.396,-2.3609,-2.3342,-2.3188,-2.263,-2.2352,-2.1882,-2.0822,-2.0492,-2.0143,-1.9543,-1.915,-1.8975,-1.8969,-1.8624,-1.8087,-1.7537,-1.7314,-1.694,-1.633,-1.6156,-1.6144,-1.6086,-1.6752,-1.7372,-3.6924,-3.611,-3.5703,-3.4957,-3.4076,-3.3408,-3.2228,-3.0894,-3.1024,-3.0829,-3.0334,-2.9826,-2.9408,-2.9184,-2.8187,-2.7503,-2.7004,-2.5748,-2.4789,0.0,-2.2264,-2.1286,-2.097,-1.9695,-1.8714,-1.8093,-1.7868,-1.7409,-1.6822,-1.7283,-1.7473,-1.7473,-1.7895,-1.8219,-1.8312,-1.8469,-1.8477,-1.8415,-1.8721,-1.8819,-1.8702,-1.8747,-1.8693,-1.8474,-1.8414,-1.8333,-1.8239,-1.8191,-1.8204,-1.8204,-1.8204,-1.8254,-1.8317,-1.8317,-1.8355,-1.8417,-1.8367,-1.8329,-1.8317,-1.8242,-1.8242,-1.8257,-1.8468,-1.9472,-2.1677,-2.1937,-2.1937,-2.2047,-2.1998,-2.2098,-2.2033,-2.1565,-2.1247,-2.1084,-2.0552,-2.018,-2.0288,-2.0178,-2.0186,-2.0246,-2.0166,-2.0398,-2.0612,-2.0782,-2.0971,-2.0862,-2.0943,-2.0735,-2.0701,-2.1167,-2.1383,-2.0915,-2.0687,-2.0512,-2.0505,-2.0278,-2.003,-1.9615,-1.9413,-1.9165,-1.8839,-1.8306,-1.7983,-1.7837,-1.7327,-1.6835,-1.6598,-1.6486,-1.6298,-1.6044,-1.6044,-1.5957,-1.5881,-1.6086,-1.617,-3.6178,-3.526,-3.4639,-3.4051,-3.3465,-3.2028,-3.0629,-2.9333,-2.904,-2.8884,-2.8797,-2.8235,-2.7906,-2.768,-2.6727,-2.5901,-2.5077,-2.3809,-2.275,-2.1752,-2.0805,-2.0227,-1.9943,-1.9307,-1.8792,-1.8349,-1.8046,-1.7735,-1.7488,-1.7714,-1.7827,-1.7865,-1.838,-1.8794,-1.9144,-1.9206,-1.9206,-1.9193,-1.8874,-1.8647,-1.8601,-1.8554,-1.8321,-1.7923,-1.7877,-1.7693,-1.73,-1.7287,-1.7287,-1.7287,-1.7287,-1.7426,-1.7739,-1.7752,-1.789,-1.8166,-1.7928,-1.7752,-1.7765,-1.7752,-1.7765,-1.7765,-1.8041,-1.8654,-1.9826,-1.9915,-1.9965,-2.0054,-2.0054,-2.0052,-2.0175,-1.9817,-1.9616,-1.9727,-1.9375,-1.9125,-1.9184,-1.9139,-1.9106,-1.9229,-1.9364,-1.9454,-1.9588,-1.9721,-1.9809,-1.9781,-1.9576,-1.9133,-1.8665,-1.8814,-1.9296,-1.977,-1.988,-1.9628,-1.9252,-1.9084,-1.8776,-1.8135,-1.7896,-1.7764,-1.7543,-1.7169,-1.6961,-1.6867,-1.6511,-1.63,-1.6219,-1.6144,-1.6044,-1.5925,-1.5869,-1.5836,-1.5792,-1.5792,-1.5792,-3.5357,-3.4399,-3.3532,-3.29,-3.2266,-3.0562,-2.923,-2.814,-2.7535,-2.728,-2.7289,-2.6897,-2.6519,-2.6223,-2.5375,-2.4437,-2.348,-2.2234,-2.1193,-2.0364,-1.9917,-1.9642,-1.9423,-1.9188,-1.8978,-1.8843,-1.8453,-1.8204,-1.8229,-1.8317,-1.8455,-1.8593,-1.8982,-1.9409,-1.9786,-1.9798,-1.9798,-1.9748,-1.9117,-1.8719,-1.8618,-1.8557,-1.8244,-1.7713,-1.7609,-1.73,-1.676,-1.671,-1.6647,-1.6534,-1.6534,-1.6722,-1.7137,-1.7187,-1.7388,-1.7727,-1.7426,-1.7187,-1.7187,-1.7187,-1.7187,-1.72,-1.7576,-1.7815,-1.7827,-1.7827,-1.7987,-1.8282,-1.8387,-1.8393,-1.8531,-1.8388,-1.8336,-1.8494,-1.841,-1.8287,-1.8455,-1.8351,-1.8326,-1.8506,-1.8577,-1.8653,-1.8813,-1.8946,-1.8936,-1.8856,-1.8472,-1.7837,-1.729,-1.7157,-1.7745,-1.8542,-1.9064,-1.8876,-1.8246,-1.8094,-1.7751,-1.6914,-1.6731,-1.6665,-1.648,-1.6312,-1.62,-1.6225,-1.6169,-1.6057,-1.5957,-1.5957,-1.5913,-1.5836,-1.5836,-1.5792,-1.5792,-1.5792,-1.5792,-3.4525,-3.3702,-3.2792,-3.1549,-3.0096,-2.9341,-2.8652,-2.7997,-2.6958,-2.6274,-2.5905,-2.6189,-2.5887,-2.5302,-2.4531,-2.383,-2.3136,-2.2021,-2.1394,-2.1132,-2.0158,-1.9629,-1.9529,-1.8947,-1.8584,-1.8507,-1.8469,-1.8447,-1.8342,-1.8731,-1.9133,-1.961,-1.971,-1.9736,-1.9798,-1.9798,-1.9798,-1.9798,-1.971,-1.9422,-1.8995,-1.8957,-1.8681,-1.8141,-1.8141,-1.7865,-1.7338,-1.7287,-1.7061,-1.6541,-1.6547,-1.6547,-1.6622,-1.6609,-1.6635,-1.671,-1.6647,-1.6597,-1.6609,-1.6584,-1.6622,-1.6597,-1.6685,-1.6691,-1.6735,-1.6666,-1.7137,-1.7877,-1.8188,-1.797,-1.767,-1.7696,-1.7574,-1.729,-1.7114,-1.687,-1.699,-1.6815,-1.6716,-1.6759,-1.7071,-1.6969,-1.7213,-1.7427,-1.7545,-1.7747,-1.7542,-1.7271,-1.7028,-1.6905,-1.6888,-1.7098,-1.7225,-1.7408,-1.7203,-1.6982,-1.6867,-1.6565,-1.6349,-1.6275,-1.6188,-1.6088,-1.6001,-1.6013,-1.5925,-1.5881,-1.5836,-1.5836,-1.5836,-1.5836,-1.5792,-1.5792,-1.5792,-1.5792,-1.5792,-3.3122,-3.2276,-3.1436,-3.0304,-2.8928,-2.8042,-2.7111,-2.6103,-2.4874,-2.4189,-2.3883,-2.398,-2.401,-2.3948,-2.3385,-2.2583,-2.1694,-2.1211,-2.0623,-2.0022,-1.9777,-1.9642,-1.9594,-1.9687,-1.9615,-1.9443,-1.9455,-1.9406,-1.9295,-1.9384,-1.9597,-1.9773,-1.9798,-1.9798,-1.9798,-1.9798,-1.9798,-1.9798,-1.9798,-1.9698,-1.9522,-1.9497,-1.9233,-1.8756,-1.8694,-1.843,-1.7953,-1.7865,-1.7765,-1.7513,-1.7212,-1.7036,-1.7024,-1.671,-1.6534,-1.6534,-1.6534,-1.6534,-1.6534,-1.6534,-1.6534,-1.6534,-1.6479,-1.6436,-1.6479,-1.6392,-1.6573,-1.7042,-1.7187,-1.7118,-1.6942,-1.6904,-1.6847,-1.6688,-1.6577,-1.659,-1.6675,-1.6565,-1.6565,-1.6705,-1.6705,-1.6718,-1.6803,-1.6888,-1.6888,-1.6888,-1.6778,-1.6693,-1.6577,-1.6491,-1.6448,-1.6405,-1.6534,-1.6607,-1.662,-1.6607,-1.6436,-1.6262,-1.6132,-1.6044,-1.5969,-1.5925,-1.5881,-1.5869,-1.5836,-1.5792,-1.5836,-1.5792,-1.5792,-1.5792,-1.5792,-1.5792,-1.5792,-1.5792,-1.5792,-3.1705,-3.1028,-3.0057,-2.8776,-2.7469,-2.6528,-2.5512,-2.4438,-2.3377,-2.2831,-2.255,-2.2271,-2.2374,-2.2648,-2.2309,-2.1629,-2.0777,-2.0699,-2.0267,-1.9486,-1.9852,-1.9999,-1.9953,-2.0304,-2.0398,-2.0233,-2.0156,-2.0067,-1.9978,-1.9862,-1.9798,-1.9798,-1.9798,-1.9798,-1.9798,-1.9798,-1.9798,-1.9798,-1.9798,-1.9798,-1.9798,-1.9798,-1.961,-1.9271,-1.9233,-1.8982,-1.8468,-1.843,-1.8355,-1.8191,-1.7815,-1.7526,-1.7375,-1.6986,-1.6685,-1.6547,-1.6534,-1.6534,-1.6534,-1.6534,-1.6534,-1.6479,-1.6436,-1.6479,-1.6479,-1.6349,-1.6362,-1.6516,-1.6534,-1.6559,-1.6479,-1.6479,-1.6436,-1.6479,-1.6448,-1.6479,-1.662,-1.6577,-1.6565,-1.6748,-1.6663,-1.6718,-1.6803,-1.6761,-1.6675,-1.6565,-1.6479,-1.6349,-1.6231,-1.6231,-1.6188,-1.6156,-1.6144,-1.6244,-1.6318,-1.6318,-1.6175,-1.6076,-1.5988,-1.5913,-1.5792,-1.5792,-1.5792,-1.5836,-1.5836,-1.5792,-1.5792,-1.5792,-1.5792,-1.5792,-1.5792,-1.5748,-1.576,-1.5748,-1.5703,-3.0489,-3.0176,-2.8747,-2.7094,-2.5305,-2.4823,-2.4233,-2.3685,-2.3055,-2.2684,-2.2405,-2.1826,-2.1564,-2.1616,-2.1577,-2.1211,-2.0751,-2.0699,-2.0646,-2.0515,-2.0607,-2.066,-2.0636,-2.0562,-2.0398,-2.0233,-2.0131,-1.9978,-1.9798,-1.9798,-1.9798,-1.9798,-1.9798,-1.9798,-1.9798,-1.9798,-1.9798,-1.9798,-1.9798,-1.9798,-1.9798,-1.9798,-1.9748,-1.9723,-1.9761,-1.9497,-1.9008,-1.8995,-1.8769,-1.8242,-1.8204,-1.794,-1.7463,-1.7338,-1.7036,-1.6554,-1.6534,-1.6534,-1.6534,-1.6534,-1.6534,-1.6534,-1.6479,-1.6479,-1.6479,-1.6479,-1.6479,-1.6534,-1.6534,-1.6534,-1.6534,-1.6479,-1.6479,-1.6479,-1.6479,-1.6534,-1.6522,-1.6459,-1.6509,-1.6471,-1.6409,-1.6431,-1.6587,-1.6718,-1.657,-1.6471,-1.6454,-1.6405,-1.6231,-1.6188,-1.61,-1.6044,-1.5988,-1.6044,-1.6144,-1.6144,-1.6044,-1.5988,-1.5869,-1.5824,-1.5792,-1.5792,-1.5792,-1.5792,-1.5792,-1.5792,-1.5792,-1.5792,-1.5792,-1.5748,-1.5703,-1.5671,-1.5626,-1.557,-1.5513,-2.8514,-2.7542,-2.6801,-2.5908,-2.5033,-2.4158,-2.3449,-2.2935,-2.2035,-2.157,-2.1391,-2.1105,-2.1013,-2.1026,-2.1013,-2.0895,-2.0725,-2.0612,-2.0562,-2.0562,-2.0562,-2.0562,-2.0562,-2.0612,-2.0599,-2.0498,-2.0398,-2.0195,-1.9926,-1.9862,-1.9798,-1.9798,-1.9798,-1.9798,-1.9798,-1.9798,-1.9798,-1.9798,-1.9798,-1.9798,-1.9748,-1.9484,-1.9409,-1.9643,-1.9759,-1.9723,-1.9535,-1.9522,-1.9422,-1.9233,-1.892,-1.8493,-1.7915,-1.7212,-1.6748,-1.6559,-1.6534,-1.6534,-1.6534,-1.6534,-1.6534,-1.6479,-1.6479,-1.6436,-1.6479,-1.6479,-1.6436,-1.6479,-1.6534,-1.6534,-1.6534,-1.6534,-1.6534,-1.6534,-1.6534,-1.6534,-1.6446,-1.622,-1.5994,-1.5944,-1.5718,-1.552,-1.5658,-1.5793,-1.5911,-1.5907,-1.604,-1.6114,-1.6076,-1.6013,-1.5852,-1.5869,-1.5869,-1.5881,-1.5925,-1.5925,-1.5881,-1.5881,-1.5836,-1.5836,-1.5792,-1.5792,-1.5792,-1.5792,-1.5792,-1.5792,-1.5792,-1.5703,-1.5703,-1.5603,-1.5513,-1.5435,-1.5447,-1.53,-1.5198,-2.6933,-2.5743,-2.5439,-2.4919,-2.4218,-2.3108,-2.2504,-2.2101,-2.1068,-2.0509,-2.0437,-2.0437,-2.0332,-2.0113,-2.0113,-2.0064,-2.0116,-2.0367,-2.0461,-2.0385,-2.0204,-2.0217,-2.0346,-2.0317,-2.033,-2.0422,-2.0309,-2.0105,-1.985,-1.9635,-1.9445,-1.9382,-1.9283,-1.9283,-1.9408,-1.9394,-1.9457,-1.9581,-1.9494,-1.9445,-1.9332,-1.8884,-1.8722,-1.8982,-1.9082,-1.9358,-1.9722,-1.9747,-1.9798,-1.9748,-1.9459,-1.8957,-1.8204,-1.7137,-1.6534,-1.6534,-1.6534,-1.6534,-1.6534,-1.6534,-1.6534,-1.6534,-1.6491,-1.6436,-1.6479,-1.6479,-1.6436,-1.6479,-1.6534,-1.6534,-1.6479,-1.6479,-1.6479,-1.6479,-1.6534,-1.6534,-1.6509,-1.6195,-1.5932,-1.5718,-1.5454,-1.5153,-1.4952,-1.5109,-1.5191,-1.52,-1.5421,-1.5453,-1.5435,-1.5393,-1.5319,-1.5319,-1.5259,-1.5235,-1.5229,-1.5169,-1.5548,-1.5644,-1.5692,-1.5728,-1.5672,-1.5696,-1.5708,-1.5744,-1.578,-1.5792,-1.5748,-1.5659,-1.5525,-1.5367,-1.5198,-1.5074,-1.5028,-1.4937,-1.4834,-2.5741,-2.497,-2.4762,-2.4014,-2.2975,-2.1872,-2.131,-2.1307,-2.0329,-1.9939,-1.9917,-1.9826,-1.9525,-1.9107,-1.9053,-1.8916,-1.9089,-1.9817,-2.0167,-1.9965,-1.9605,-1.9643,-2.0028,-1.9654,-1.963,-1.9927,-1.9722,-1.9619,-1.9517,-1.9107,-1.8834,-1.861,-1.8325,-1.835,-1.8609,-1.8621,-1.8843,-1.9089,-1.8806,-1.8609,-1.8548,-1.8081,-1.7859,-1.7848,-1.7896,-1.8363,-1.9467,-1.9633,-1.9748,-1.9798,-1.9736,-1.9271,-1.8166,-1.7112,-1.6534,-1.6534,-1.6534,-1.6534,-1.6534,-1.6534,-1.6534,-1.6534,-1.6534,-1.6479,-1.6479,-1.6479,-1.6479,-1.6534,-1.6534,-1.6534,-1.6479,-1.6479,-1.6436,-1.6479,-1.6491,-1.6479,-1.6466,-1.6441,-1.6228,-1.5715,-1.5436,-1.5417,-1.504,-1.4898,-1.4854,-1.4765,-1.4707,-1.4675,-1.4595,-1.4595,-1.4385,-1.4397,-1.4554,-1.4699,-1.4506,-1.4373,-1.4947,-1.5428,-1.5476,-1.5512,-1.5416,-1.5392,-1.5343,-1.5379,-1.5504,-1.5485,-1.5369,-1.526,-1.522,-1.5108,-1.488,-1.4697,-1.4662,-1.4616,-1.4466,-2.4849,-2.4041,-2.3718,-2.3288,-2.2618,-2.1913,-2.1452,-2.1161,-2.0337,-1.9895,-1.9734,-1.9355,-1.9081,-1.8904,-1.8812,-1.866,-1.8559,-1.8748,-1.8778,-1.8776,-1.8637,-1.8649,-1.8836,-1.8973,-1.8986,-1.906,-1.9256,-1.9208,-1.902,-1.8759,-1.8609,-1.8523,-1.8056,-1.786,-1.7946,-1.791,-1.797,-1.8055,-1.7946,-1.7849,-1.7812,-1.7326,-1.7181,-1.7388,-1.7253,-1.7434,-1.8055,-1.8746,-1.9321,-1.9748,-1.9459,-1.8769,-1.7739,-1.6936,-1.6547,-1.6534,-1.6534,-1.6534,-1.6534,-1.6479,-1.6479,-1.6534,-1.6534,-1.6534,-1.6534,-1.6534,-1.6534,-1.6534,-1.6534,-1.6534,-1.6479,-1.6479,-1.6436,-1.6448,-1.6362,-1.6262,-1.6139,-1.5783,-1.5235,-1.4785,-1.4663,-1.4618,-1.4673,-1.4719,-1.4845,-1.4664,-1.4743,-1.4748,-1.4429,-1.4232,-1.4329,-1.4329,-1.4329,-1.4184,-1.4048,-1.3963,-1.4277,-1.4682,-1.485,-1.5067,-1.5019,-1.4983,-1.4935,-1.4941,-1.5078,-1.5057,-1.4955,-1.4887,-1.4801,-1.4698,-1.4479,-1.4398,-1.4326,-1.4201,-1.4032,-2.4173,-2.3538,-2.3127,-2.2768,-2.2346,-2.1444,-2.0955,-2.0663,-1.9721,-1.9265,-1.9068,-1.878,-1.8422,-1.8221,-1.8131,-1.7939,-1.7655,-1.738,-1.7276,-1.7313,-1.7604,-1.7753,-1.8034,-1.838,-1.858,-1.8537,-1.8591,-1.8547,-1.8326,-1.7958,-1.7763,-1.7642,-1.7206,-1.7049,-1.7159,-1.7087,-1.7147,-1.7315,-1.7183,-1.7027,-1.6872,-1.6501,-1.6347,-1.6504,-1.6405,-1.6606,-1.7147,-1.7726,-1.8339,-1.8846,-1.8596,-1.8006,-1.7343,-1.6817,-1.6479,-1.6479,-1.6491,-1.6479,-1.6479,-1.6479,-1.6479,-1.6479,-1.6534,-1.6534,-1.6534,-1.6534,-1.6534,-1.6534,-1.6534,-1.6534,-1.6479,-1.6479,-1.6448,-1.6362,-1.6318,-1.6175,-1.5996,-1.5536,-1.5054,-1.4684,-1.4463,-1.4385,-1.4377,-1.4506,-1.4744,-1.4529,-1.4517,-1.4502,-1.4114,-1.3833,-1.3809,-1.3722,-1.3577,-1.3541,-1.3638,-1.3638,-1.365,-1.3891,-1.4132,-1.4397,-1.4542,-1.4554,-1.453,-1.4416,-1.4464,-1.4304,-1.4205,-1.4292,-1.4294,-1.4189,-1.4014,-1.3967,-1.3873,-1.3594,-1.3407,-2.3668,-2.3407,-2.2891,-2.2441,-2.1931,-2.0474,-1.9962,-1.99,-1.8785,-1.8262,-1.8179,-1.81,-1.77,-1.7131,-1.7153,-1.6939,-1.6473,-1.6254,-1.5981,-1.5987,-1.6353,-1.6949,-1.7572,-1.7843,-1.7983,-1.8059,-1.7782,-1.7605,-1.7472,-1.6884,-1.6338,-1.6397,-1.6031,-1.5842,-1.615,-1.6185,-1.6385,-1.6654,-1.6396,-1.6138,-1.6009,-1.5683,-1.5437,-1.5393,-1.5517,-1.5875,-1.6452,-1.6688,-1.7058,-1.7626,-1.752,-1.7256,-1.7077,-1.671,-1.6491,-1.6436,-1.6392,-1.6392,-1.6392,-1.6392,-1.6448,-1.6479,-1.6479,-1.6534,-1.6534,-1.6534,-1.6534,-1.6534,-1.6534,-1.6534,-1.6479,-1.6479,-1.6349,-1.6231,-1.6188,-1.6088,-1.5944,-1.5644,-1.5207,-1.4877,-1.4789,-1.4659,-1.4293,-1.4375,-1.4409,-1.4269,-1.4021,-1.3831,-1.3553,-1.3336,-1.2866,-1.2842,-1.3023,-1.3059,-1.3204,-1.3204,-1.3216,-1.3312,-1.3456,-1.3648,-1.3864,-1.385,-1.3799,-1.3714,-1.3743,-1.3576,-1.3519,-1.3572,-1.3543,-1.332,-1.3296,-1.3398,-1.3279,-1.3006,-1.2917,-2.348,-2.3128,-2.2322,-2.1721,-2.1262,-2.0096,-1.9566,-1.9434,-1.8565,-1.8079,-1.7996,-1.7617,-1.7284,-1.7015,-1.6918,-1.6663,-1.6262,-1.5856,-1.5558,-1.53,-1.5393,-1.5975,-1.6601,-1.6873,-1.6942,-1.6903,-1.7036,-1.6963,-1.6622,-1.628,-1.608,-1.5997,-1.5407,-1.5154,-1.5246,-1.5268,-1.5267,-1.5381,-1.5313,-1.5222,-1.5153,-1.5062,-1.4983,-1.5006,-1.5153,-1.5358,-1.568,-1.5771,-1.6281,-1.7088,-1.7097,-1.688,-1.6635,-1.648,-1.6436,-1.6436,-1.6392,-1.6392,-1.6392,-1.6392,-1.6392,-1.6436,-1.6479,-1.6534,-1.6534,-1.6534,-1.6534,-1.6534,-1.6534,-1.6534,-1.6534,-1.6479,-1.6349,-1.6088,-1.5824,-1.5558,-1.5412,-1.5175,-1.5016,-1.4913,-1.5024,-1.5008,-1.4946,-1.505,-1.5041,-1.4726,-1.4353,-1.3975,-1.371,-1.3168,-1.2854,-1.2758,-1.2818,-1.277,-1.2758,-1.2758,-1.2782,-1.2794,-1.2842,-1.2842,-1.2924,-1.2948,-1.279,-1.2668,-1.2931,-1.2884,-1.2803,-1.28,-1.2637,-1.2517,-1.2562,-1.2644,-1.2556,-1.232,-1.2441,-2.2992,-2.2527,-2.1614,-2.0965,-2.044,-1.9554,-1.9034,-1.8707,-1.813,-1.7781,-1.763,-1.7369,-1.7115,-1.6973,-1.6846,-1.6547,-1.61,-1.5736,-1.5367,-1.5062,-1.4983,-1.539,-1.5925,-1.6219,-1.6207,-1.6088,-1.6272,-1.6166,-1.5869,-1.5602,-1.5427,-1.5265,-1.4935,-1.4697,-1.4708,-1.4662,-1.4638,-1.4638,-1.4627,-1.4627,-1.4569,-1.4673,-1.4662,-1.4743,-1.488,-1.5108,-1.5267,-1.5435,-1.5813,-1.6324,-1.6463,-1.6418,-1.6268,-1.6349,-1.6405,-1.6392,-1.6392,-1.6405,-1.6318,-1.6349,-1.6392,-1.6392,-1.6436,-1.6436,-1.6448,-1.6491,-1.6491,-1.6479,-1.6479,-1.6534,-1.6479,-1.6349,-1.6088,-1.578,-1.5424,-1.5153,-1.5153,-1.5051,-1.4903,-1.4915,-1.5006,-1.5153,-1.5153,-1.5435,-1.5428,-1.5207,-1.4839,-1.4509,-1.4201,-1.3504,-1.3107,-1.3155,-1.2938,-1.2878,-1.2854,-1.2818,-1.2603,-1.2591,-1.2484,-1.2401,-1.233,-1.2305,-1.2257,-1.2203,-1.2223,-1.2174,-1.2134,-1.2058,-1.2005,-1.1912,-1.1887,-1.1936,-1.1958,-1.1765,-1.1881,-2.2354,-2.1844,-2.0841,-2.016,-1.9674,-1.8884,-1.8457,-1.8081,-1.7587,-1.7293,-1.7293,-1.7225,-1.7073,-1.6876,-1.6761,-1.6461,-1.5957,-1.5603,-1.5244,-1.4971,-1.4789,-1.5017,-1.5525,-1.5824,-1.5812,-1.5691,-1.5513,-1.538,-1.5154,-1.4764,-1.4603,-1.4589,-1.4452,-1.4384,-1.4384,-1.4384,-1.4384,-1.4384,-1.4337,-1.4326,-1.428,-1.443,-1.4512,-1.4512,-1.4777,-1.5006,-1.5198,-1.5379,-1.5549,-1.5683,-1.5748,-1.5905,-1.5988,-1.6219,-1.6318,-1.6275,-1.6318,-1.6318,-1.6231,-1.6318,-1.6362,-1.6362,-1.6349,-1.6349,-1.6362,-1.6362,-1.6392,-1.6479,-1.6491,-1.6479,-1.6405,-1.6057,-1.578,-1.5558,-1.5187,-1.5062,-1.5153,-1.5051,-1.4903,-1.4903,-1.4903,-1.4949,-1.5051,-1.5232,-1.5546,-1.5413,-1.5107,-1.4803,-1.4526,-1.4021,-1.3855,-1.3951,-1.3588,-1.3106,-1.3021,-1.2947,-1.2661,-1.2412,-1.2305,-1.221,-1.215,-1.2077,-1.1968,-1.1937,-1.1923,-1.1708,-1.142,-1.1358,-1.1377,-1.1287,-1.1287,-1.1508,-1.1659,-1.1358,-1.1297,-2.1658,-2.1274,-2.0349,-1.9751,-1.9322,-1.8508,-1.8018,-1.7784,-1.7555,-1.7365,-1.735,-1.7253,-1.7073,-1.6888,-1.6718,-1.6374,-1.5836,-1.548,-1.5074,-1.4708,-1.4662,-1.4719,-1.504,-1.539,-1.5412,-1.5187,-1.5187,-1.4926,-1.4512,-1.4373,-1.4233,-1.4161,-1.4114,-1.4114,-1.4104,-1.4114,-1.4114,-1.4114,-1.4057,-1.4046,-1.4104,-1.4197,-1.4326,-1.4419,-1.4731,-1.496,-1.5108,-1.5153,-1.5244,-1.539,-1.5582,-1.5836,-1.5944,-1.6088,-1.6175,-1.6275,-1.6275,-1.6231,-1.62,-1.6244,-1.6244,-1.6231,-1.6132,-1.6132,-1.6231,-1.6231,-1.6275,-1.6392,-1.6436,-1.6436,-1.6275,-1.5913,-1.5603,-1.5412,-1.5142,-1.4915,-1.4971,-1.496,-1.4915,-1.4949,-1.5142,-1.5322,-1.5198,-1.5424,-1.5591,-1.5588,-1.5381,-1.5012,-1.4773,-1.4478,-1.4478,-1.4578,-1.4002,-1.3519,-1.3412,-1.3158,-1.2582,-1.229,-1.2125,-1.2077,-1.1979,-1.187,-1.1808,-1.1697,-1.1582,-1.1298,-1.1061,-1.0919,-1.0991,-1.0834,-1.0726,-1.0925,-1.1035,-1.0795,-1.0892,-2.1099,-2.0724,-1.9835,-1.9194,-1.8765,-1.8206,-1.7814,-1.7625,-1.7447,-1.7323,-1.7295,-1.7212,-1.7086,-1.6876,-1.6663,-1.6318,-1.5792,-1.5267,-1.4846,-1.4569,-1.4523,-1.4534,-1.4616,-1.4846,-1.4869,-1.4777,-1.4731,-1.4501,-1.4269,-1.4082,-1.3952,-1.3915,-1.3868,-1.3821,-1.3821,-1.3821,-1.381,-1.3821,-1.3821,-1.381,-1.381,-1.401,-1.4244,-1.4419,-1.4651,-1.4834,-1.5006,-1.5006,-1.5108,-1.5312,-1.5582,-1.5792,-1.5944,-1.6044,-1.6188,-1.6275,-1.6231,-1.6144,-1.6144,-1.61,-1.6044,-1.6013,-1.5925,-1.5925,-1.5969,-1.5969,-1.61,-1.6275,-1.6349,-1.6349,-1.6132,-1.5647,-1.5379,-1.5187,-1.496,-1.4789,-1.4789,-1.48,-1.488,-1.4915,-1.5051,-1.5198,-1.53,-1.548,-1.5603,-1.5623,-1.5656,-1.5377,-1.527,-1.5037,-1.4977,-1.4839,-1.4286,-1.3929,-1.3848,-1.338,-1.2518,-1.2196,-1.1954,-1.1918,-1.1892,-1.1745,-1.1634,-1.1533,-1.1373,-1.1136,-1.0899,-1.0736,-1.0621,-1.0575,-1.0527,-1.0497,-1.0525,-1.0673,-1.0848,-2.058,-2.0194,-1.9348,-1.8736,-1.8319,-1.8069,-1.7828,-1.757,-1.7365,-1.7323,-1.724,-1.7253,-1.7128,-1.6876,-1.665,-1.6262,-1.5659,-1.5142,-1.4673,-1.443,-1.443,-1.443,-1.4466,-1.4466,-1.4466,-1.4523,-1.4419,-1.4233,-1.4046,-1.3905,-1.3763,-1.3763,-1.3668,-1.3668,-1.361,-1.361,-1.3658,-1.3668,-1.3668,-1.3668,-1.3658,-1.3868,-1.415,-1.4488,-1.4616,-1.4743,-1.4869,-1.4949,-1.5062,-1.5312,-1.5582,-1.5792,-1.6001,-1.6088,-1.62,-1.62,-1.6188,-1.61,-1.6001,-1.5957,-1.5913,-1.5748,-1.5671,-1.5614,-1.5659,-1.5703,-1.5836,-1.6057,-1.6188,-1.612,-1.5913,-1.5424,-1.5062,-1.4869,-1.4708,-1.4569,-1.4523,-1.4627,-1.4662,-1.488,-1.5006,-1.5108,-1.5244,-1.539,-1.5525,-1.5659,-1.5748,-1.5756,-1.5636,-1.5509,-1.5389,-1.5267,-1.4728,-1.3893,-1.3716,-1.338,-1.2513,-1.2005,-1.1745,-1.1745,-1.1719,-1.156,-1.1448,-1.1335,-1.1136,-1.0937,-1.0774,-1.0621,-1.0505,-1.039,-1.039,-1.0438,-1.0515,-1.0582,-1.0794,-1.9993,-1.9686,-1.9272,-1.8836,-1.8464,-1.8242,-1.8003,-1.7842,-1.7638,-1.7543,-1.7447,-1.7365,-1.7144,-1.6879,-1.6748,-1.6175,-1.5339,-1.4835,-1.455,-1.431,-1.4299,-1.4299,-1.422,-1.4095,-1.4182,-1.4233,-1.4107,-1.3899,-1.38,-1.3668,-1.3668,-1.3621,-1.3621,-1.361,-1.361,-1.361,-1.361,-1.361,-1.361,-1.361,-1.3668,-1.3773,-1.401,-1.4395,-1.4488,-1.4651,-1.4823,-1.4915,-1.5096,-1.5424,-1.5659,-1.5881,-1.6057,-1.6088,-1.61,-1.6144,-1.61,-1.5957,-1.5824,-1.5824,-1.5736,-1.5558,-1.5345,-1.53,-1.5345,-1.5402,-1.557,-1.5748,-1.5824,-1.5724,-1.5603,-1.5108,-1.4834,-1.4651,-1.4466,-1.4269,-1.4233,-1.4244,-1.4348,-1.4616,-1.4834,-1.5051,-1.5153,-1.5334,-1.5525,-1.5614,-1.5703,-1.5736,-1.5688,-1.5664,-1.5596,-1.5419,-1.5274,-1.4252,-1.3435,-1.3057,-1.2465,-1.1845,-1.156,-1.1485,-1.1459,-1.1335,-1.1223,-1.1136,-1.1012,-1.086,-1.0659,-1.0505,-1.0428,-1.0351,-1.0361,-1.0361,-1.0477,-1.0582,-1.0708,-1.9899,-1.9669,-1.925,-1.8912,-1.8528,-1.8214,-1.7989,-1.7801,-1.761,-1.7528,-1.734,-1.706,-1.674,-1.6391,-1.596,-1.5352,-1.4704,-1.4221,-1.3948,-1.3762,-1.3674,-1.363,-1.3674,-1.353,-1.3637,-1.3654,-1.3602,-1.3668,-1.3695,-1.3621,-1.3621,-1.361,-1.361,-1.361,-1.361,-1.361,-1.361,-1.361,-1.361,-1.361,-1.361,-1.3716,-1.3952,-1.414,-1.4316,-1.4512,-1.4708,-1.4857,-1.5074,-1.5424,-1.5703,-1.5869,-1.6001,-1.6044,-1.6032,-1.6057,-1.5925,-1.578,-1.5647,-1.5558,-1.5379,-1.53,-1.5074,-1.4994,-1.504,-1.5119,-1.5345,-1.557,-1.5525,-1.5424,-1.539,-1.4926,-1.4616,-1.4419,-1.4176,-1.3988,-1.3905,-1.3915,-1.4057,-1.4302,-1.4477,-1.4731,-1.5006,-1.5198,-1.5435,-1.557,-1.5659,-1.5703,-1.5703,-1.5614,-1.548,-1.5149,-1.4834,-1.4057,-1.3103,-1.2704,-1.2292,-1.1718,-1.1335,-1.1298,-1.1223,-1.1136,-1.1099,-1.105,-1.0888,-1.0697,-1.0544,-1.038,-1.0351,-1.0322,-1.0322,-1.0361,-1.0505,-1.0631,-1.0718,-1.9919,-1.969,-1.9273,-1.8898,-1.8553,-1.8201,-1.7949,-1.7706,-1.7464,-1.7275,-1.7154,-1.6599,-1.6153,-1.5775,-1.5219,-1.4563,-1.3929,-1.3609,-1.3365,-1.3209,-1.3083,-1.2933,-1.2911,-1.2913,-1.3076,-1.3506,-1.3337,-1.3369,-1.3643,-1.3668,-1.3621,-1.361,-1.361,-1.361,-1.361,-1.361,-1.361,-1.361,-1.361,-1.36,-1.3507,-1.358,-1.3668,-1.3786,-1.3982,-1.4209,-1.4461,-1.4755,-1.5062,-1.5424,-1.5691,-1.5881,-1.5957,-1.5957,-1.5957,-1.5913,-1.5736,-1.557,-1.5424,-1.5289,-1.5108,-1.4926,-1.4811,-1.4719,-1.4719,-1.4846,-1.5108,-1.5357,-1.5267,-1.5074,-1.4937,-1.4662,-1.4337,-1.4093,-1.3858,-1.3668,-1.361,-1.3563,-1.3668,-1.3858,-1.4093,-1.4362,-1.4663,-1.5051,-1.5289,-1.539,-1.548,-1.5525,-1.5525,-1.5289,-1.5096,-1.4642,-1.4149,-1.352,-1.2857,-1.2322,-1.1951,-1.1463,-1.1185,-1.1061,-1.1023,-1.0975,-1.0899,-1.085,-1.0697,-1.0544,-1.0418,-1.0341,-1.0312,-1.0322,-1.0322,-1.04,-1.0544,-1.0621,-1.0669,-1.9863,-1.956,-1.9236,-1.8874,-1.8461,-1.8198,-1.8002,-1.7746,-1.7207,-1.6953,-1.6731,-1.6133,-1.5654,-1.5222,-1.4762,-1.4347,-1.395,-1.3466,-1.3096,-1.291,-1.282,-1.2737,-1.2835,-1.2889,-1.2978,-1.3216,-1.3224,-1.3436,-1.3481,-1.3527,-1.361,-1.361,-1.361,-1.361,-1.361,-1.361,-1.361,-1.36,-1.3579,-1.3382,-1.3082,-1.3111,-1.3047,-1.3052,-1.339,-1.3828,-1.4094,-1.4507,-1.5015,-1.541,-1.5656,-1.5856,-1.5957,-1.5869,-1.5792,-1.5703,-1.5558,-1.5424,-1.5198,-1.5062,-1.488,-1.4651,-1.4477,-1.4373,-1.4419,-1.4477,-1.4662,-1.4662,-1.4616,-1.4523,-1.4419,-1.4093,-1.3858,-1.3716,-1.3573,-1.342,-1.3314,-1.3382,-1.343,-1.3443,-1.3705,-1.4007,-1.4286,-1.4744,-1.5153,-1.521,-1.5255,-1.5266,-1.5174,-1.488,-1.4631,-1.4161,-1.3521,-1.2881,-1.2422,-1.1906,-1.157,-1.1151,-1.1044,-1.086,-1.0822,-1.0784,-1.0621,-1.0544,-1.0467,-1.0428,-1.039,-1.0351,-1.0322,-1.0322,-1.0322,-1.0438,-1.0582,-1.0621,-1.0611,-1.9429,-1.9151,-1.8745,-1.8165,-1.7537,-1.7204,-1.6978,-1.6786,-1.6494,-1.626,-1.6053,-1.5485,-1.4869,-1.4266,-1.3753,-1.341,-1.3123,-1.2777,-1.2485,-1.2374,-1.2217,-1.2127,-1.2073,-1.2088,-1.2316,-1.2676,-1.2636,-1.2583,-1.2923,-1.3372,-1.361,-1.3579,-1.36,-1.361,-1.3517,-1.36,-1.3445,-1.3227,-1.2989,-1.2751,-1.264,-1.2621,-1.2624,-1.251,-1.3011,-1.3301,-1.3602,-1.3885,-1.4474,-1.4885,-1.5219,-1.5417,-1.5652,-1.5703,-1.5659,-1.5334,-1.5232,-1.5096,-1.5006,-1.4823,-1.4605,-1.4419,-1.4291,-1.415,-1.4104,-1.4104,-1.4186,-1.4269,-1.4197,-1.4104,-1.3999,-1.3858,-1.3668,-1.3478,-1.3296,-1.32,-1.3094,-1.3142,-1.318,-1.3233,-1.3309,-1.3563,-1.3753,-1.3949,-1.4316,-1.4516,-1.4516,-1.4449,-1.435,-1.415,-1.3905,-1.3651,-1.2969,-1.2265,-1.1867,-1.1444,-1.1217,-1.0909,-1.0833,-1.0697,-1.0659,-1.0582,-1.0467,-1.0428,-1.039,-1.0351,-1.0351,-1.0322,-1.0322,-1.0322,-1.0322,-1.0399,-1.0446,-1.0436,-1.0484,-1.8989,-1.8386,-1.8047,-1.7496,-1.6754,-1.6401,-1.6191,-1.6009,-1.5784,-1.5608,-1.5316,-1.4783,-1.405,-1.3446,-1.3087,-1.2818,-1.2484,-1.2054,-1.1895,-1.1734,-1.1597,-1.1577,-1.1605,-1.1545,-1.1675,-1.203,-1.202,-1.2152,-1.2496,-1.2844,-1.3129,-1.3233,-1.3144,-1.3196,-1.3248,-1.3176,-1.301,-1.2806,-1.2536,-1.2361,-1.2246,-1.2289,-1.2246,-1.2328,-1.2587,-1.2921,-1.3085,-1.3534,-1.4069,-1.4369,-1.4654,-1.485,-1.5014,-1.516,-1.5166,-1.4946,-1.4835,-1.4777,-1.4686,-1.4558,-1.4373,-1.4186,-1.4046,-1.3821,-1.381,-1.3716,-1.3716,-1.3836,-1.38,-1.3716,-1.3631,-1.3583,-1.344,-1.3248,-1.3113,-1.3027,-1.2929,-1.3017,-1.2984,-1.2926,-1.295,-1.2983,-1.3136,-1.3162,-1.3411,-1.3759,-1.3792,-1.3695,-1.3554,-1.34,-1.3108,-1.2848,-1.2362,-1.1725,-1.1383,-1.1028,-1.0777,-1.0687,-1.0621,-1.0544,-1.0544,-1.0467,-1.039,-1.0351,-1.0351,-1.0322,-1.0322,-1.0322,-1.0322,-1.0322,-1.0302,-1.0253,-1.029,-1.025,-1.0196,-1.85,-1.7029,-1.7225,-1.6981,-1.6544,-1.6465,-1.6222,-1.5879,-1.5405,-1.5098,-1.4835,-1.4128,-1.3595,-1.3198,-1.2931,-1.2662,-1.2377,-1.2066,-1.187,-1.1708,-1.1571,-1.1522,-1.1485,-1.1475,-1.1588,-1.1883,-1.1736,-1.1808,-1.2099,-1.2066,-1.2218,-1.2228,-1.2446,-1.243,-1.2474,-1.2557,-1.2527,-1.2361,-1.2246,-1.211,-1.1991,-1.1943,-1.1894,-1.1833,-1.2279,-1.2748,-1.2865,-1.3395,-1.3806,-1.3964,-1.404,-1.4146,-1.4299,-1.4441,-1.4462,-1.4357,-1.4406,-1.4347,-1.4299,-1.4294,-1.4186,-1.3905,-1.3668,-1.3573,-1.3515,-1.3372,-1.3314,-1.3467,-1.342,-1.3344,-1.322,-1.3123,-1.3162,-1.3113,-1.3027,-1.2978,-1.2929,-1.2929,-1.2869,-1.2682,-1.2605,-1.2603,-1.2414,-1.2403,-1.2634,-1.2973,-1.2966,-1.2881,-1.2786,-1.2623,-1.2234,-1.1921,-1.1613,-1.1236,-1.0938,-1.0697,-1.0611,-1.0582,-1.0544,-1.0505,-1.0418,-1.039,-1.0351,-1.0322,-1.0322,-1.0322,-1.0322,-1.0322,-1.0361,-1.0322,-1.0253,-1.0075,-0.9856,-0.9715,-0.9627,-1.7714,-1.6803,-1.6268,-1.5816,-1.5478,-1.5261,-1.5093,-1.4931,-1.4668,-1.446,-1.4285,-1.3752,-1.3344,-1.3012,-1.2685,-1.2473,-1.2197,-1.1906,-1.1771,-1.1671,-1.1571,-1.1522,-1.1448,-1.1394,-1.1405,-1.1544,-1.1323,-1.1129,-1.1214,-1.1297,-1.1146,-1.1237,-1.1766,-1.2181,-1.2223,-1.2006,-1.1933,-1.188,-1.1764,-1.157,-1.1651,-1.1659,-1.1659,-1.1711,-1.2019,-1.2364,-1.2461,-1.2724,-1.3042,-1.3287,-1.338,-1.3453,-1.361,-1.3735,-1.3724,-1.3656,-1.3806,-1.3857,-1.3782,-1.3875,-1.3905,-1.3763,-1.3573,-1.3478,-1.3372,-1.3266,-1.318,-1.319,-1.3152,-1.3113,-1.3123,-1.3075,-1.3075,-1.3027,-1.2978,-1.2929,-1.2891,-1.2891,-1.2655,-1.2467,-1.2252,-1.2177,-1.1892,-1.1627,-1.1885,-1.2195,-1.2118,-1.2079,-1.2047,-1.1981,-1.1662,-1.1378,-1.1095,-1.0945,-1.0671,-1.0572,-1.0495,-1.0505,-1.0505,-1.0467,-1.0418,-1.0418,-1.039,-1.0351,-1.0322,-1.0361,-1.0351,-1.0351,-1.039,-1.0361,-1.0067,-0.9687,-0.9475,-0.9209,-0.9117,-1.7128,-1.6488,-1.5638,-1.5131,-1.4794,-1.4543,-1.4351,-1.4235,-1.4262,-1.4118,-1.3841,-1.3547,-1.3207,-1.2838,-1.2508,-1.221,-1.2004,-1.1819,-1.1682,-1.1608,-1.1533,-1.1485,-1.1421,-1.1309,-1.1168,-1.1136,-1.0899,-1.0728,-1.0663,-1.0554,-1.0575,-1.0775,-1.1146,-1.1552,-1.1686,-1.1622,-1.1454,-1.1439,-1.133,-1.1244,-1.1432,-1.1544,-1.1619,-1.1745,-1.2014,-1.2184,-1.228,-1.2446,-1.2514,-1.2675,-1.2739,-1.2773,-1.2946,-1.3042,-1.2999,-1.3015,-1.3184,-1.3365,-1.3289,-1.347,-1.3647,-1.3563,-1.3515,-1.342,-1.3334,-1.3238,-1.3152,-1.3123,-1.3085,-1.3075,-1.3065,-1.3065,-1.3075,-1.3027,-1.2881,-1.2832,-1.2832,-1.2861,-1.2488,-1.2223,-1.2037,-1.1855,-1.1429,-1.1168,-1.1358,-1.1625,-1.1714,-1.1623,-1.147,-1.1419,-1.1287,-1.1005,-1.0774,-1.0615,-1.0467,-1.0457,-1.0495,-1.0621,-1.0582,-1.0544,-1.0505,-1.0467,-1.0467,-1.0467,-1.0428,-1.039,-1.0428,-1.0467,-1.0467,-1.0438,-0.9985,-0.9471,-0.9007,-0.8756,-0.8646,-1.6908,-1.6,-1.5492,-1.5117,-1.4808,-1.4578,-1.442,-1.4287,-1.4268,-1.4105,-1.3775,-1.3399,-1.3022,-1.2697,-1.233,-1.2029,-1.1822,-1.1708,-1.1608,-1.1485,-1.141,-1.1384,-1.1309,-1.1147,-1.0937,-1.0764,-1.0611,-1.0467,-1.0351,-1.0351,-1.0341,-1.038,-1.0636,-1.0804,-1.0866,-1.0922,-1.1016,-1.1168,-1.1206,-1.1309,-1.1496,-1.1634,-1.1745,-1.1856,-1.2041,-1.2162,-1.221,-1.2258,-1.2339,-1.23,-1.2238,-1.2196,-1.2114,-1.2374,-1.2379,-1.2316,-1.2872,-1.3078,-1.317,-1.3429,-1.3521,-1.3515,-1.3515,-1.343,-1.321,-1.3123,-1.3162,-1.3172,-1.3075,-1.3065,-1.3055,-1.3055,-1.3017,-1.2978,-1.2832,-1.2725,-1.2735,-1.2619,-1.2258,-1.1955,-1.183,-1.1649,-1.1075,-1.0766,-1.0874,-1.1077,-1.1276,-1.1236,-1.1083,-1.1052,-1.1024,-1.0943,-1.0691,-1.0633,-1.0582,-1.0505,-1.0505,-1.0659,-1.0708,-1.0621,-1.0582,-1.0544,-1.0544,-1.0592,-1.0544,-1.0505,-1.0544,-1.0621,-1.0598,-1.0467,-0.9823,-0.9255,-0.873,-0.8389,-0.8299,-1.649,-1.5913,-1.5522,-1.5163,-1.4794,-1.4578,-1.4433,-1.4287,-1.4235,-1.4026,-1.3661,-1.3331,-1.2918,-1.2508,-1.2138,-1.1847,-1.1623,-1.1522,-1.1421,-1.1239,-1.1212,-1.1126,-1.105,-1.0937,-1.0774,-1.0621,-1.0505,-1.039,-1.0312,-1.0205,-1.0244,-1.0312,-1.038,-1.0534,-1.0746,-1.0833,-1.0957,-1.1092,-1.1158,-1.1233,-1.1496,-1.1645,-1.1782,-1.1856,-1.2077,-1.2174,-1.2174,-1.2222,-1.2161,-1.2052,-1.1979,-1.1844,-1.1782,-1.1986,-1.1937,-1.2048,-1.2557,-1.3192,-1.3394,-1.3616,-1.3563,-1.3573,-1.3525,-1.3478,-1.344,-1.3334,-1.3334,-1.3208,-1.3042,-1.3042,-1.3122,-1.2997,-1.292,-1.2871,-1.2783,-1.2627,-1.2521,-1.2292,-1.203,-1.1709,-1.1506,-1.1327,-1.0911,-1.0718,-1.0784,-1.0899,-1.1108,-1.1129,-1.1005,-1.103,-1.1002,-1.0953,-1.086,-1.0784,-1.0697,-1.0621,-1.0621,-1.0746,-1.0784,-1.0736,-1.0697,-1.0621,-1.0631,-1.0669,-1.0631,-1.0582,-1.0736,-1.0819,-1.0756,-1.0474,-0.9922,-0.9402,-0.894,-0.8471,-0.8088,-1.6219,-1.5841,-1.5492,-1.5133,-1.4763,-1.4578,-1.442,-1.4287,-1.4203,-1.396,-1.3661,-1.3276,-1.2849,-1.2389,-1.2004,-1.17,-1.1437,-1.1325,-1.1223,-1.104,-1.0992,-1.0916,-1.0802,-1.0677,-1.0621,-1.0467,-1.0361,-1.0244,-1.0205,-1.0049,-1.0088,-1.0166,-1.0273,-1.039,-1.0592,-1.0718,-1.0871,-1.0995,-1.1071,-1.1195,-1.1384,-1.1533,-1.1682,-1.1819,-1.1943,-1.2052,-1.2041,-1.2016,-1.1954,-1.1929,-1.1819,-1.1719,-1.1719,-1.1719,-1.1682,-1.1872,-1.2297,-1.301,-1.3434,-1.3647,-1.3573,-1.361,-1.361,-1.3563,-1.3511,-1.3256,-1.3185,-1.3087,-1.2953,-1.2906,-1.2899,-1.276,-1.2647,-1.259,-1.255,-1.2395,-1.2225,-1.2033,-1.1798,-1.1484,-1.1311,-1.1085,-1.0809,-1.0758,-1.0697,-1.085,-1.0975,-1.0964,-1.0975,-1.1002,-1.0992,-1.0954,-1.0916,-1.0812,-1.0774,-1.0774,-1.0784,-1.0822,-1.0822,-1.0822,-1.0822,-1.0746,-1.0746,-1.0746,-1.0746,-1.0822,-1.0975,-1.1035,-1.0978,-1.0756,-1.0316,-0.9766,-0.9212,-0.8777,-0.8349,-1.6117,-1.5752,-1.5389,-1.4927,-1.4603,-1.4422,-1.4347,-1.4287,-1.4098,-1.3914,-1.3754,-1.3151,-1.272,-1.2401,-1.1929,-1.1549,-1.1292,-1.1153,-1.1002,-1.0809,-1.0634,-1.0588,-1.057,-1.0474,-1.0251,-1.0195,-1.0128,-1.004,-1.006,-0.9941,-0.9902,-0.999,-1.0098,-1.0205,-1.0361,-1.0592,-1.0736,-1.086,-1.0985,-1.1071,-1.1223,-1.141,-1.1533,-1.1671,-1.1819,-1.1881,-1.1844,-1.1782,-1.1719,-1.1719,-1.1682,-1.1682,-1.1682,-1.173,-1.1645,-1.1801,-1.2263,-1.278,-1.3367,-1.3563,-1.3573,-1.3573,-1.3573,-1.3515,-1.3365,-1.316,-1.2996,-1.2721,-1.2509,-1.2453,-1.2373,-1.2263,-1.2147,-1.2177,-1.2195,-1.2063,-1.1921,-1.1717,-1.1533,-1.1364,-1.1276,-1.1054,-1.0683,-1.0582,-1.057,-1.0774,-1.0888,-1.1012,-1.1023,-1.1071,-1.105,-1.0975,-1.0899,-1.086,-1.0822,-1.0822,-1.0822,-1.0871,-1.0871,-1.0871,-1.0871,-1.0871,-1.0881,-1.0909,-1.0937,-1.1012,-1.1099,-1.1185,-1.1239,-1.0946,-1.0593,-1.0253,-0.9724,-0.9375,-0.9052,-1.5452,-1.5101,-1.4258,-1.3754,-1.3473,-1.3654,-1.3924,-1.4214,-1.4078,-1.3835,-1.356,-1.3104,-1.265,-1.2197,-1.1856,-1.1511,-1.1191,-1.0916,-1.0697,-1.0464,-1.0113,-1.0078,-1.0021,-0.9933,-0.9686,-0.9696,-0.9715,-0.9733,-0.9553,-0.955,-0.9713,-0.9802,-0.9941,-1.001,-1.0166,-1.039,-1.0544,-1.0697,-1.0822,-1.0937,-1.1012,-1.1201,-1.1362,-1.1522,-1.1645,-1.1708,-1.1708,-1.1571,-1.1496,-1.1571,-1.156,-1.1597,-1.1793,-1.1864,-1.1927,-1.2564,-1.2753,-1.289,-1.3507,-1.3525,-1.3525,-1.3573,-1.3515,-1.3525,-1.3392,-1.3114,-1.2816,-1.2406,-1.2001,-1.1854,-1.1748,-1.1644,-1.1588,-1.1593,-1.1603,-1.1528,-1.1384,-1.1324,-1.1103,-1.1089,-1.1005,-1.0795,-1.0487,-1.0367,-1.0376,-1.0608,-1.0774,-1.0916,-1.1033,-1.1071,-1.1071,-1.0985,-1.0947,-1.0871,-1.0871,-1.0871,-1.0871,-1.0881,-1.0881,-1.0881,-1.0881,-1.0919,-1.1006,-1.1044,-1.1061,-1.1099,-1.1185,-1.1223,-1.126,-1.1223,-1.0946,-1.0635,-1.0326,-0.9971,-0.9739,-1.5082,-1.4689,-1.3789,-1.3311,-1.3276,-1.3331,-1.3713,-1.4109,-1.4026,-1.3782,-1.3446,-1.3035,-1.2615,-1.2233,-1.1808,-1.1426,-1.1067,-1.0715,-1.0387,-0.9912,-0.9618,-0.9513,-0.9448,-0.9307,-0.9183,-0.9177,-0.9207,-0.9245,-0.9142,-0.931,-0.9506,-0.9515,-0.9704,-0.9832,-0.995,-1.0127,-1.0273,-1.0428,-1.0582,-1.0736,-1.0888,-1.0992,-1.1191,-1.1362,-1.1496,-1.1533,-1.1533,-1.1394,-1.1384,-1.1485,-1.1511,-1.1686,-1.1912,-1.2099,-1.2368,-1.2913,-1.3043,-1.321,-1.358,-1.3563,-1.3515,-1.3515,-1.3505,-1.3392,-1.3135,-1.2806,-1.2389,-1.1953,-1.1534,-1.1177,-1.1084,-1.1027,-1.0966,-1.0955,-1.0927,-1.0846,-1.0826,-1.0799,-1.0755,-1.0724,-1.0587,-1.044,-1.0253,-1.0194,-1.0192,-1.0386,-1.05,-1.0562,-1.0768,-1.0957,-1.0995,-1.0957,-1.0957,-1.0957,-1.0919,-1.0881,-1.0881,-1.0881,-1.0881,-1.0919,-1.093,-1.093,-1.1006,-1.1082,-1.1158,-1.1147,-1.1109,-1.1185,-1.1223,-1.1147,-1.1109,-1.092,-1.0704,-1.0584,-1.0442,-1.4901,-1.4525,-1.3721,-1.3414,-1.3593,-1.3356,-1.3458,-1.3807,-1.3644,-1.365,-1.3374,-1.2965,-1.2591,-1.2222,-1.176,-1.1341,-1.0954,-1.0601,-1.0097,-0.9502,-0.9224,-0.9075,-0.8849,-0.8692,-0.858,-0.858,-0.8651,-0.8794,-0.8955,-0.9035,-0.9055,-0.9168,-0.9377,-0.9496,-0.9585,-0.9813,-0.9961,-1.004,-1.0273,-1.0467,-1.0697,-1.085,-1.0964,-1.1136,-1.1223,-1.1271,-1.1309,-1.1271,-1.1233,-1.1437,-1.1601,-1.1774,-1.213,-1.2324,-1.2653,-1.2924,-1.3076,-1.3326,-1.3518,-1.361,-1.3563,-1.3515,-1.3494,-1.3264,-1.2913,-1.2505,-1.2068,-1.1474,-1.1,-1.0599,-1.045,-1.0331,-1.0288,-1.0346,-1.0374,-1.0352,-1.0382,-1.0406,-1.0474,-1.0439,-1.0361,-1.0186,-1.0167,-1.0118,-1.0165,-1.0223,-1.0328,-1.0361,-1.0535,-1.0812,-1.0833,-1.0881,-1.0871,-1.0833,-1.0843,-1.0833,-1.0871,-1.0871,-1.0881,-1.0881,-1.0919,-1.0919,-1.0957,-1.0995,-1.1023,-1.1023,-1.1023,-1.1023,-1.1023,-1.1012,-1.0985,-1.1082,-1.1067,-1.101,-1.102,-1.407,-1.3812,-1.3267,-1.3038,-1.2969,-1.2684,-1.2518,-1.2459,-1.2277,-1.2654,-1.3069,-1.2754,-1.2437,-1.2113,-1.166,-1.125,-1.0916,-1.0514,-0.9934,-0.9317,-0.8901,-0.8511,-0.8285,-0.8021,-0.7915,-0.7963,-0.8128,-0.8317,-0.8488,-0.8553,-0.8624,-0.8812,-0.8947,-0.9015,-0.9164,-0.9394,-0.9464,-0.9524,-0.9739,-1.0079,-1.0351,-1.0611,-1.084,-1.0975,-1.1061,-1.113,-1.1168,-1.1168,-1.1244,-1.1421,-1.1649,-1.1957,-1.2305,-1.23,-1.2589,-1.2973,-1.3032,-1.3297,-1.3558,-1.3684,-1.3616,-1.3647,-1.3543,-1.3062,-1.2655,-1.2246,-1.1719,-1.103,-1.0514,-1.0148,-0.9842,-0.9708,-0.9622,-0.9753,-0.9866,-0.993,-1.0,-1.0082,-1.0203,-1.0155,-1.0137,-1.0069,-1.005,-1.0089,-1.0166,-1.0244,-1.034,-1.0387,-1.0464,-1.0669,-1.0669,-1.0669,-1.0669,-1.0669,-1.0718,-1.0756,-1.0794,-1.0833,-1.0833,-1.0833,-1.0881,-1.0833,-1.0784,-1.0812,-1.085,-1.0822,-1.0746,-1.0746,-1.0736,-1.0774,-1.0975,-1.112,-1.1287,-1.1324,-1.1394,-1.2883,-1.2954,-1.2337,-1.2215,-1.2278,-1.2006,-1.1845,-1.1838,-1.1657,-1.1815,-1.2205,-1.2113,-1.2072,-1.1947,-1.1597,-1.126,-1.0926,-1.0534,-0.9797,-0.9073,-0.8573,-0.8004,-0.7672,-0.7355,-0.7219,-0.7239,-0.745,-0.7652,-0.7886,-0.7891,-0.7962,-0.8382,-0.8477,-0.8429,-0.856,-0.875,-0.882,-0.8937,-0.911,-0.9463,-0.9915,-1.0273,-1.0611,-1.0784,-1.0899,-1.0957,-1.1054,-1.1082,-1.1233,-1.1522,-1.1859,-1.215,-1.24,-1.2464,-1.273,-1.3118,-1.3269,-1.3322,-1.363,-1.3705,-1.3627,-1.369,-1.3408,-1.2896,-1.2469,-1.2009,-1.1308,-1.0649,-1.0189,-0.9808,-0.956,-0.9376,-0.9408,-0.9502,-0.9519,-0.9596,-0.968,-0.975,-0.9811,-0.9793,-0.9804,-0.9853,-0.9769,-0.9706,-0.981,-1.0089,-1.0195,-1.0272,-1.0379,-1.0544,-1.0505,-1.0544,-1.0582,-1.0582,-1.0631,-1.0669,-1.0708,-1.0708,-1.0746,-1.0669,-1.0669,-1.0659,-1.0659,-1.0544,-1.0505,-1.0438,-1.04,-1.0467,-1.0505,-1.0582,-1.0899,-1.1185,-1.1389,-1.1601,-1.1712,-1.1556,-1.207,-1.1611,-1.1493,-1.1715,-1.1415,-1.13,-1.1365,-1.1193,-1.0991,-1.0915,-1.1158,-1.1469,-1.1586,-1.1501,-1.1239,-1.0926,-1.0467,-0.9655,-0.8926,-0.8483,-0.773,-0.7136,-0.6735,-0.6665,-0.6638,-0.6755,-0.6961,-0.7166,-0.7201,-0.7478,-0.7976,-0.7825,-0.7549,-0.7832,-0.7959,-0.7989,-0.8102,-0.8333,-0.8735,-0.9305,-0.9876,-1.0282,-1.057,-1.0685,-1.0733,-1.085,-1.0922,-1.11,-1.1575,-1.1957,-1.2294,-1.2436,-1.2501,-1.2911,-1.3182,-1.3332,-1.3563,-1.3889,-1.3744,-1.3761,-1.3657,-1.3205,-1.2772,-1.2346,-1.1669,-1.0986,-1.034,-0.9885,-0.9554,-0.9306,-0.9185,-0.9208,-0.9199,-0.9239,-0.9239,-0.9319,-0.9399,-0.9399,-0.9399,-0.9496,-0.9545,-0.9557,-0.9441,-0.9601,-0.9868,-1.0031,-1.005,-1.0146,-1.034,-1.0467,-1.0505,-1.0582,-1.0582,-1.0582,-1.0582,-1.0621,-1.0582,-1.0582,-1.0505,-1.0428,-1.039,-1.0312,-1.0127,-1.0088,-1.0088,-1.0166,-1.0244,-1.0312,-1.0467,-1.0909,-1.1298,-1.149,-1.17,-1.1957,-1.04,-1.1998,-1.2301,-1.218,-1.1665,-1.1282,-1.0749,-1.0084,-0.9882,-0.9808,-0.9884,-0.9825,-1.0178,-1.1074,-1.1042,-1.0847,-1.0548,-1.0157,-0.9525,-0.8718,-0.8254,-0.7466,-0.6754,-0.634,-0.6269,-0.6207,-0.6253,-0.6456,-0.6605,-0.6719,-0.6893,-0.7182,-0.707,-0.6913,-0.6892,-0.701,-0.7039,-0.7222,-0.7484,-0.782,-0.8432,-0.9078,-0.9829,-1.0028,-1.0091,-1.0238,-1.0354,-1.0294,-1.0693,-1.1274,-1.192,-1.2258,-1.2376,-1.2408,-1.2705,-1.3087,-1.3242,-1.3576,-1.3747,-1.392,-1.4003,-1.3928,-1.345,-1.2788,-1.222,-1.1432,-1.0695,-0.996,-0.9545,-0.9346,-0.9136,-0.9024,-0.8975,-0.8967,-0.9007,-0.8935,-0.8935,-0.8975,-0.8975,-0.9056,-0.9136,-0.9297,-0.946,-0.946,-0.9635,-0.9845,-1.0001,-1.006,-1.0138,-1.0283,-1.0418,-1.0505,-1.0582,-1.0495,-1.0457,-1.0544,-1.0582,-1.0505,-1.0428,-1.0312,-1.0244,-1.0137,-1.0019,-0.9813,-0.9734,-0.9734,-0.9853,-1.0088,-1.0361,-1.0544,-1.1033,-1.141,-1.1601,-1.1836,-1.2138]},{"header":{"parameterUnit":"m.s-1","parameterCategory":1,"la1":31.0,"la2":29.5877,"lo1":-88.7671,"lo2":-86.6584,"dy":0.0162,"dx":0.0185,"nx":115,"ny":88,"refTime":"2023-10-08T18:00:00:Z","depth":0,"parameterNumber":3,"parameterNumberName":"V-component_of_WINDS"},"data":[0.0,0.0,0.0,0.0,0.0,0.0,0.0,0.0,0.0,0.0,0.0,0.0,0.0,0.0,0.0,0.0,0.0,0.0,0.0,0.0,0.0,0.0,0.0,0.0,0.0,0.0,0.0,0.0,0.0,0.0,0.0,0.0,0.0,0.0,0.0,0.0,0.0,0.0,0.0,0.0,0.0,0.0,0.0,0.0,0.0,0.0,0.0,0.0,0.0,0.0,0.0,0.0,0.0,0.0,0.0,0.0,0.0,0.0,0.0,0.0,0.0,0.0,0.0,0.0,0.0,0.0,0.0,0.0,0.0,0.0,0.0,0.0,0.0,0.0,0.0,0.0,0.0,0.0,0.0,0.0,0.0,0.0,0.0,0.0,0.0,0.0,0.0,0.0,0.0,0.0,0.0,0.0,0.0,0.0,0.0,0.0,0.0,0.0,0.0,0.0,0.0,0.0,0.0,0.0,0.0,0.0,0.0,0.0,0.0,0.0,0.0,0.0,0.0,0.0,0.0,0.0,0.0,0.0,0.0,0.0,0.0,0.0,0.0,0.0,0.0,0.0,0.0,0.0,0.0,0.0,0.0,0.0,0.0,0.0,0.0,0.0,0.0,0.0,0.0,0.0,0.0,0.0,0.0,0.0,0.0,0.0,0.0,0.0,0.0,0.0,0.0,0.0,0.0,0.0,0.0,0.0,0.0,0.0,0.0,0.0,0.0,0.0,0.0,0.0,0.0,0.0,0.0,0.0,0.0,0.0,0.0,0.0,0.0,0.0,0.0,0.0,0.0,0.0,0.0,0.0,0.0,0.0,0.0,0.0,0.0,0.0,0.0,0.0,0.0,0.0,0.0,0.0,0.0,0.0,0.0,0.0,0.0,0.0,0.0,0.0,0.0,0.0,0.0,0.0,0.0,0.0,0.0,0.0,0.0,0.0,0.0,0.0,0.0,0.0,0.0,0.0,0.0,0.0,0.0,0.0,0.0,0.0,0.0,0.0,0.0,0.0,0.0,0.0,0.0,0.0,0.0,0.0,0.0,0.0,0.0,0.0,0.0,0.0,0.0,0.0,0.0,0.0,0.0,0.0,0.0,0.0,0.0,0.0,0.0,0.0,0.0,0.0,0.0,0.0,0.0,0.0,0.0,0.0,0.0,0.0,0.0,0.0,0.0,0.0,0.0,0.0,0.0,0.0,0.0,0.0,0.0,0.0,0.0,0.0,0.0,0.0,0.0,0.0,0.0,0.0,0.0,0.0,0.0,0.0,0.0,0.0,0.0,0.0,0.0,0.0,0.0,0.0,0.0,0.0,0.0,0.0,0.0,0.0,0.0,0.0,0.0,0.0,0.0,0.0,0.0,0.0,0.0,0.0,0.0,0.0,0.0,0.0,0.0,0.0,0.0,0.0,0.0,0.0,0.0,0.0,0.0,0.0,0.0,0.0,0.0,0.0,0.0,0.0,0.0,0.0,0.0,0.0,0.0,0.0,0.0,0.0,0.0,0.0,0.0,0.0,0.0,0.0,0.0,0.0,0.0,0.0,0.0,0.0,0.0,0.0,0.0,0.0,0.0,0.0,0.0,0.0,0.0,0.0,0.0,0.0,0.0,0.0,0.0,0.0,0.0,0.0,0.0,0.0,0.0,0.0,0.0,0.0,0.0,0.0,0.0,0.0,0.0,0.0,0.0,0.0,0.0,0.0,0.0,0.0,0.0,0.0,0.0,0.0,0.0,0.0,0.0,0.0,0.0,0.0,0.0,0.0,0.0,0.0,0.0,0.0,0.0,0.0,0.0,0.0,0.0,0.0,0.0,0.0,0.0,0.0,0.0,0.0,0.0,0.0,0.0,0.0,0.0,0.0,0.0,0.0,0.0,0.0,0.0,0.0,0.0,0.0,0.0,0.0,0.0,0.0,0.0,0.0,0.0,0.0,0.0,0.0,0.0,0.0,0.0,0.0,0.0,0.0,0.0,0.0,0.0,0.0,0.0,0.0,0.0,0.0,0.0,0.0,0.0,0.0,0.0,0.0,0.0,0.0,0.0,0.0,0.0,0.0,0.0,0.0,0.0,0.0,0.0,0.0,0.0,0.0,0.0,0.0,0.0,0.0,0.0,0.0,0.0,0.0,0.0,0.0,0.0,0.0,0.0,0.0,0.0,0.0,0.0,0.0,0.0,0.0,0.0,0.0,0.0,0.0,0.0,0.0,0.0,0.0,0.0,0.0,0.0,0.0,0.0,0.0,0.0,0.0,0.0,0.0,0.0,0.0,0.0,0.0,0.0,0.0,0.0,0.0,0.0,0.0,0.0,0.0,0.0,0.0,0.0,0.0,0.0,0.0,0.0,0.0,0.0,0.0,0.0,0.0,0.0,0.0,0.0,0.0,0.0,0.0,0.0,0.0,0.0,0.0,0.0,0.0,0.0,0.0,0.0,0.0,0.0,0.0,0.0,0.0,0.0,0.0,0.0,0.0,0.0,0.0,0.0,0.0,0.0,0.0,0.0,0.0,0.0,0.0,0.0,0.0,0.0,0.0,0.0,0.0,0.0,0.0,0.0,0.0,0.0,0.0,0.0,0.0,0.0,0.0,0.0,0.0,0.0,0.0,0.0,0.0,0.0,0.0,0.0,0.0,0.0,0.0,0.0,0.0,0.0,0.0,0.0,0.0,0.0,0.0,0.0,0.0,0.0,0.0,0.0,0.0,0.0,0.0,0.0,0.0,0.0,0.0,0.0,0.0,0.0,0.0,0.0,0.0,0.0,0.0,0.0,0.0,0.0,0.0,0.0,0.0,0.0,0.0,0.0,0.0,0.0,0.0,0.0,0.0,0.0,0.0,0.0,0.0,0.0,0.0,0.0,0.0,0.0,0.0,0.0,0.0,0.0,0.0,0.0,0.0,0.0,0.0,0.0,0.0,0.0,0.0,0.0,0.0,0.0,0.0,0.0,0.0,0.0,0.0,0.0,0.0,0.0,0.0,0.0,0.0,0.0,0.0,0.0,0.0,0.0,0.0,0.0,0.0,0.0,0.0,0.0,0.0,0.0,0.0,0.0,0.0,0.0,0.0,0.0,0.0,0.0,0.0,0.0,0.0,0.0,0.0,0.0,0.0,0.0,0.0,0.0,0.0,0.0,0.0,0.0,0.0,0.0,0.0,0.0,0.0,0.0,0.0,0.0,0.0,0.0,0.0,0.0,0.0,0.0,0.0,0.0,0.0,0.0,0.0,0.0,0.0,0.0,0.0,0.0,0.0,0.0,0.0,0.0,0.0,0.0,0.0,0.0,0.0,0.0,0.0,0.0,0.0,0.0,0.0,0.0,0.0,0.0,0.0,0.0,0.0,0.0,0.0,0.0,0.0,0.0,0.0,0.0,0.0,0.0,0.0,0.0,0.0,0.0,0.0,0.0,0.0,0.0,0.0,0.0,0.0,0.0,0.0,0.0,0.0,0.0,0.0,0.0,0.0,0.0,0.0,0.0,0.0,0.0,0.0,0.0,0.0,0.0,0.0,0.0,0.0,0.0,0.0,0.0,0.0,0.0,0.0,0.0,0.0,0.0,0.0,0.0,0.0,0.0,0.0,0.0,0.0,0.0,0.0,0.0,0.0,0.0,0.0,0.0,0.0,0.0,0.0,0.0,0.0,0.0,0.0,0.0,0.0,0.0,0.0,0.0,0.0,0.0,0.0,0.0,0.0,0.0,0.0,0.0,0.0,0.0,0.0,0.0,0.0,0.0,0.0,0.0,0.0,0.0,0.0,0.0,0.0,0.0,0.0,0.0,0.0,0.0,0.0,0.0,0.0,0.0,0.0,0.0,0.0,0.0,0.0,0.0,0.0,0.0,0.0,0.0,0.0,0.0,0.0,0.0,0.0,0.0,0.0,0.0,0.0,0.0,0.0,0.0,0.0,0.0,0.0,0.0,0.0,0.0,0.0,0.0,0.0,0.0,0.0,0.0,0.0,0.0,0.0,0.0,0.0,0.0,0.0,0.0,0.0,0.0,0.0,0.0,0.0,0.0,0.0,0.0,0.0,0.0,0.0,0.0,0.0,0.0,0.0,0.0,0.0,0.0,0.0,0.0,0.0,0.0,0.0,0.0,0.0,0.0,0.0,0.0,0.0,0.0,0.0,0.0,0.0,0.0,0.0,0.0,0.0,0.0,0.0,0.0,0.0,0.0,0.0,0.0,0.0,0.0,0.0,0.0,0.0,0.0,0.0,0.0,0.0,0.0,0.0,0.0,0.0,0.0,0.0,0.0,0.0,0.0,0.0,0.0,0.0,0.0,0.0,-1.1006,0.0,0.0,0.0,0.0,0.0,0.0,0.0,0.0,0.0,0.0,0.0,0.0,0.0,0.0,0.0,0.0,0.0,0.0,0.0,0.0,0.0,0.0,0.0,0.0,0.0,0.0,0.0,0.0,0.0,0.0,0.0,0.0,0.0,0.0,0.0,0.0,0.0,0.0,0.0,0.0,0.0,0.0,0.0,0.0,0.0,0.0,0.0,0.0,0.0,0.0,0.0,0.0,0.0,0.0,0.0,0.0,0.0,0.0,0.0,0.0,0.0,0.0,0.0,0.0,0.0,0.0,0.0,0.0,0.0,0.0,0.0,0.0,0.0,0.0,0.0,0.0,0.0,0.0,0.0,0.0,0.0,0.0,0.0,0.0,0.0,0.0,0.0,0.0,0.0,0.0,0.0,0.0,0.0,0.0,0.0,0.0,0.0,0.0,0.0,0.0,0.0,0.0,0.0,0.0,0.0,0.0,0.0,0.0,0.0,0.0,-1.0308,-0.966,-0.9901,-1.0252,-1.0692,0.0,0.0,0.0,0.0,0.0,0.0,0.0,0.0,0.0,0.0,0.0,0.0,0.0,0.0,0.0,0.0,0.0,0.0,0.0,0.0,0.0,0.0,0.0,0.0,0.0,0.0,0.0,0.0,0.0,0.0,0.0,0.0,0.0,0.0,0.0,0.0,0.0,0.0,0.0,0.0,0.0,0.0,0.0,0.0,0.0,0.0,0.0,0.0,0.0,0.0,0.0,0.0,0.0,0.0,0.0,0.0,0.0,0.0,0.0,0.0,0.0,0.0,0.0,0.0,0.0,0.0,0.0,0.0,0.0,0.0,0.0,0.0,0.0,0.0,0.0,0.0,0.0,0.0,0.0,0.0,0.0,0.0,0.0,0.0,0.0,0.0,0.0,0.0,0.0,0.0,0.0,0.0,0.0,0.0,0.0,0.0,0.0,0.0,0.0,0.0,0.0,0.0,0.0,0.0,0.0,0.0,0.0,0.0,0.0,0.0,0.0,0.0,-0.9318,-1.0077,-1.0864,0.0,0.0,0.0,0.0,0.0,0.0,0.0,0.0,0.0,0.0,0.0,0.0,0.0,0.0,0.0,0.0,0.0,0.0,0.0,0.0,0.0,0.0,0.0,0.0,0.0,0.0,0.0,0.0,0.0,0.0,0.0,0.0,0.0,0.0,0.0,0.0,0.0,0.0,0.0,0.0,0.0,0.0,0.0,0.0,0.0,0.0,0.0,0.0,0.0,0.0,0.0,0.0,0.0,0.0,0.0,0.0,0.0,0.0,0.0,0.0,0.0,0.0,0.0,0.0,0.0,0.0,0.0,0.0,0.0,0.0,0.0,0.0,0.0,0.0,0.0,0.0,0.0,0.0,0.0,0.0,0.0,0.0,0.0,0.0,0.0,0.0,0.0,0.0,0.0,0.0,0.0,0.0,0.0,0.0,0.0,0.0,0.0,0.0,0.0,0.0,0.0,0.0,0.0,0.0,0.0,0.0,0.0,0.0,0.0,0.0,-0.807,-0.8,-0.8755,0.0,-1.1806,0.0,0.0,0.0,0.0,0.0,0.0,0.0,0.0,0.0,0.0,0.0,0.0,0.0,0.0,0.0,0.0,0.0,0.0,0.0,0.0,0.0,0.0,0.0,0.0,0.0,0.0,0.0,0.0,0.0,0.0,0.0,0.0,0.0,0.0,0.0,0.0,0.0,0.0,0.0,0.0,0.0,0.0,0.0,0.0,0.0,0.0,0.0,0.0,0.0,0.0,0.0,0.0,0.0,0.0,0.0,0.0,0.0,0.0,0.0,0.0,0.0,0.0,0.0,0.0,0.0,0.0,0.0,0.0,0.0,0.0,0.0,0.0,0.0,0.0,0.0,0.0,0.0,0.0,0.0,0.0,0.0,0.0,0.0,0.0,0.0,0.0,0.0,0.0,0.0,0.0,0.0,0.0,0.0,0.0,0.0,0.0,0.0,0.0,0.0,0.0,0.0,0.0,0.0,0.0,0.0,0.0,0.0,0.0,0.0,0.0,-0.7476,-0.7815,-0.9233,-1.0665,0.0,0.0,0.0,0.0,0.0,0.0,0.0,0.0,0.0,0.0,0.0,0.0,0.0,0.0,0.0,0.0,0.0,0.0,0.0,0.0,0.0,0.0,0.0,0.0,0.0,0.0,0.0,0.0,0.0,0.0,0.0,0.0,0.0,0.0,0.0,0.0,0.0,0.0,0.0,0.0,0.0,0.0,0.0,0.0,0.0,0.0,0.0,0.0,0.0,0.0,0.0,0.0,0.0,0.0,0.0,0.0,0.0,0.0,0.0,0.0,0.0,0.0,0.0,0.0,0.0,0.0,0.0,0.0,0.0,0.0,0.0,0.0,0.0,0.0,0.0,0.0,0.0,0.0,0.0,0.0,0.0,0.0,0.0,0.0,0.0,0.0,0.0,0.0,0.0,0.0,0.0,0.0,0.0,0.0,0.0,0.0,0.0,0.0,0.0,0.0,0.0,0.0,0.0,0.0,0.0,0.0,0.0,0.0,0.0,0.0,-0.6721,-0.6957,-0.807,-0.9681,-1.1178,-1.2441,0.0,0.0,0.0,0.0,0.0,0.0,0.0,0.0,0.0,0.0,0.0,0.0,0.0,0.0,0.0,0.0,0.0,0.0,0.0,0.0,0.0,0.0,0.0,0.0,0.0,0.0,0.0,0.0,0.0,0.0,0.0,0.0,0.0,0.0,0.0,0.0,0.0,0.0,0.0,0.0,0.0,0.0,0.0,0.0,0.0,0.0,0.0,0.0,0.0,0.0,0.0,0.0,0.0,0.0,0.0,0.0,0.0,0.0,0.0,0.0,0.0,0.0,0.0,0.0,0.0,0.0,0.0,0.0,0.0,0.0,0.0,0.0,0.0,0.0,0.0,0.0,0.0,0.0,0.0,0.0,0.0,0.0,0.0,0.0,0.0,0.0,0.0,0.0,0.0,0.0,0.0,0.0,0.0,0.0,0.0,0.0,0.0,0.0,0.0,0.0,0.0,0.0,0.0,0.0,0.0,0.0,0.0,0.0,-0.5855,-0.5827,-0.6662,-0.8607,-0.9828,-1.1161,0.0,0.0,0.0,0.0,0.0,0.0,0.0,0.0,0.0,0.0,0.0,0.0,0.0,0.0,0.0,0.0,0.0,0.0,0.0,0.0,0.0,0.0,0.0,0.0,0.0,0.0,0.0,0.0,0.0,0.0,0.0,0.0,0.0,0.0,0.0,0.0,0.0,0.0,0.0,0.0,0.0,0.0,0.0,0.0,0.0,0.0,0.0,0.0,0.0,0.0,0.0,0.0,0.0,0.0,0.0,0.0,0.0,0.0,0.0,0.0,0.0,0.0,0.0,0.0,0.0,0.0,0.0,0.0,0.0,0.0,0.0,0.0,0.0,0.0,0.0,0.0,0.0,0.0,0.0,0.0,0.0,0.0,0.0,0.0,0.0,0.0,0.0,0.0,0.0,0.0,0.0,0.0,0.0,0.0,0.0,0.0,0.0,0.0,0.0,0.0,0.0,0.0,0.0,0.0,0.0,0.0,0.0,0.0,0.0,-0.562,-0.6259,-0.7034,-0.7993,-0.9616,-1.0999,0.0,0.0,0.0,0.0,0.0,0.0,0.0,0.0,0.0,0.0,0.0,0.0,0.0,0.0,0.0,0.0,0.0,0.0,0.0,0.0,0.0,0.0,0.0,0.0,0.0,0.0,0.0,0.0,0.0,0.0,0.0,0.0,0.0,0.0,0.0,0.0,0.0,0.0,0.0,0.0,0.0,0.0,0.0,0.0,0.0,0.0,0.0,0.0,0.0,0.0,0.0,0.0,0.0,0.0,0.0,0.0,0.0,0.0,0.0,0.0,0.0,0.0,0.0,0.0,0.0,0.0,0.0,0.0,0.0,0.0,0.0,0.0,0.0,0.0,0.0,0.0,0.0,0.0,0.0,0.0,0.0,0.0,0.0,0.0,0.0,0.0,0.0,0.0,0.0,0.0,0.0,0.0,0.0,0.0,0.0,0.0,0.0,0.0,0.0,0.0,0.0,0.0,0.0,0.0,0.0,0.0,0.0,0.0,0.0,-0.5589,0.0,-0.7351,-0.7944,-0.9611,-1.0958,0.0,0.0,0.0,0.0,0.0,0.0,0.0,0.0,0.0,0.0,0.0,0.0,0.0,0.0,0.0,0.0,0.0,0.0,0.0,0.0,0.0,0.0,0.0,0.0,0.0,0.0,0.0,0.0,0.0,0.0,0.0,0.0,0.0,0.0,0.0,0.0,0.0,0.0,0.0,0.0,0.0,0.0,0.0,0.0,0.0,0.0,0.0,0.0,0.0,0.0,0.0,0.0,0.0,0.0,0.0,0.0,0.0,0.0,0.0,0.0,0.0,0.0,0.0,0.0,0.0,0.0,0.0,0.0,0.0,0.0,0.0,0.0,0.0,0.0,0.0,0.0,0.0,0.0,0.0,0.0,0.0,0.0,0.0,0.0,0.0,0.0,0.0,0.0,0.0,0.0,0.0,0.0,0.0,0.0,0.0,0.0,0.0,0.0,0.0,0.0,0.0,0.0,0.0,0.0,0.0,0.0,0.0,0.0,-0.6888,-0.5739,-0.6357,-0.729,-0.8696,-0.9917,-1.1214,0.0,0.0,0.0,0.0,0.0,0.0,0.0,0.0,0.0,0.0,0.0,0.0,0.0,0.0,0.0,0.0,0.0,0.0,0.0,0.0,0.0,0.0,0.0,0.0,0.0,0.0,0.0,0.0,0.0,0.0,0.0,0.0,0.0,0.0,0.0,0.0,0.0,0.0,0.0,0.0,0.0,0.0,0.0,0.0,0.0,0.0,0.0,0.0,0.0,0.0,0.0,0.0,0.0,0.0,0.0,0.0,0.0,0.0,0.0,0.0,0.0,0.0,0.0,0.0,0.0,0.0,0.0,0.0,0.0,0.0,0.0,0.0,0.0,0.0,0.0,0.0,0.0,0.0,0.0,0.0,0.0,0.0,0.0,0.0,0.0,0.0,0.0,0.0,0.0,0.0,0.0,0.0,0.0,0.0,0.0,0.0,0.0,0.0,0.0,0.0,0.0,0.0,0.0,0.0,0.0,0.0,0.0,0.0,0.0,-0.6443,-0.7316,-0.8185,-0.9004,-1.0366,-1.1619,0.0,0.0,0.0,0.0,0.0,0.0,0.0,0.0,0.0,0.0,0.0,0.0,0.0,0.0,0.0,0.0,0.0,0.0,0.0,0.0,0.0,0.0,0.0,0.0,0.0,0.0,0.0,0.0,0.0,0.0,0.0,0.0,0.0,0.0,0.0,0.0,0.0,0.0,0.0,0.0,0.0,0.0,0.0,0.0,0.0,0.0,0.0,0.0,0.0,0.0,0.0,0.0,0.0,0.0,0.0,0.0,0.0,0.0,0.0,0.0,0.0,0.0,0.0,0.0,0.0,0.0,0.0,0.0,0.0,0.0,0.0,0.0,0.0,0.0,0.0,0.0,0.0,0.0,0.0,0.0,0.0,0.0,0.0,0.0,0.0,0.0,0.0,0.0,0.0,0.0,0.0,0.0,0.0,0.0,0.0,0.0,0.0,0.0,0.0,0.0,0.0,0.0,0.0,0.0,0.0,0.0,0.0,0.0,0.0,-0.9114,-0.9045,-0.924,-0.9705,-1.0891,-1.1953,-1.2934,0.0,0.0,0.0,0.0,0.0,0.0,0.0,0.0,0.0,0.0,0.0,0.0,0.0,0.0,0.0,0.0,0.0,0.0,0.0,0.0,0.0,0.0,0.0,0.0,0.0,0.0,0.0,0.0,0.0,0.0,0.0,0.0,0.0,0.0,0.0,0.0,0.0,0.0,0.0,0.0,0.0,0.0,0.0,0.0,0.0,0.0,0.0,0.0,0.0,0.0,0.0,0.0,0.0,0.0,0.0,0.0,0.0,0.0,0.0,0.0,0.0,0.0,0.0,0.0,0.0,0.0,0.0,0.0,0.0,0.0,0.0,0.0,0.0,0.0,0.0,0.0,0.0,0.0,0.0,0.0,0.0,0.0,0.0,0.0,0.0,0.0,0.0,0.0,0.0,0.0,0.0,0.0,0.0,0.0,0.0,0.0,0.0,0.0,0.0,0.0,0.0,0.0,0.0,0.0,0.0,0.0,0.0,0.0,-1.3196,-1.1521,-1.0691,-1.0937,-1.1643,-1.2422,0.0,0.0,0.0,0.0,0.0,0.0,0.0,0.0,0.0,0.0,0.0,0.0,0.0,0.0,0.0,0.0,0.0,0.0,0.0,0.0,0.0,0.0,0.0,0.0,0.0,0.0,0.0,0.0,0.0,0.0,0.0,0.0,0.0,0.0,0.0,0.0,0.0,0.0,0.0,0.0,0.0,0.0,0.0,0.0,0.0,0.0,0.0,0.0,0.0,0.0,0.0,0.0,0.0,0.0,0.0,0.0,0.0,0.0,0.0,0.0,0.0,0.0,0.0,0.0,0.0,0.0,0.0,0.0,0.0,0.0,0.0,0.0,0.0,0.0,0.0,0.0,0.0,0.0,0.0,0.0,0.0,0.0,0.0,0.0,0.0,0.0,0.0,0.0,0.0,0.0,0.0,0.0,0.0,0.0,0.0,0.0,0.0,0.0,0.0,0.0,0.0,0.0,0.0,0.0,0.0,0.0,0.0,0.0,0.0,-1.5318,-1.5169,-1.4336,-1.2768,-1.3217,-1.3683,0.0,0.0,0.0,0.0,0.0,0.0,0.0,0.0,0.0,0.0,0.0,0.0,0.0,0.0,0.0,0.0,0.0,0.0,0.0,0.0,0.0,0.0,0.0,0.0,0.0,0.0,0.0,0.0,0.0,0.0,0.0,0.0,0.0,0.0,0.0,0.0,0.0,0.0,0.0,0.0,0.0,0.0,0.0,0.0,0.0,0.0,0.0,0.0,0.0,0.0,0.0,0.0,0.0,0.0,0.0,0.0,0.0,0.0,0.0,0.0,0.0,0.0,0.0,0.0,0.0,0.0,0.0,0.0,0.0,0.0,0.0,0.0,0.0,0.0,0.0,0.0,0.0,0.0,0.0,0.0,0.0,0.0,0.0,0.0,0.0,0.0,0.0,0.0,0.0,0.0,0.0,0.0,0.0,0.0,0.0,0.0,0.0,0.0,0.0,0.0,0.0,0.0,0.0,0.0,0.0,0.0,0.0,0.0,-1.8565,-1.7796,-1.7529,-1.677,-1.5275,-1.4994,-1.4942,0.0,0.0,0.0,0.0,0.0,0.0,0.0,0.0,0.0,0.0,0.0,0.0,0.0,0.0,0.0,0.0,0.0,0.0,0.0,0.0,0.0,0.0,0.0,0.0,0.0,0.0,0.0,0.0,0.0,0.0,0.0,0.0,0.0,0.0,0.0,0.0,0.0,0.0,0.0,0.0,0.0,0.0,0.0,0.0,0.0,0.0,0.0,0.0,0.0,0.0,0.0,0.0,0.0,0.0,0.0,0.0,0.0,0.0,0.0,0.0,0.0,0.0,0.0,0.0,0.0,0.0,0.0,0.0,0.0,0.0,0.0,0.0,0.0,0.0,0.0,0.0,0.0,0.0,0.0,0.0,0.0,0.0,0.0,0.0,0.0,0.0,0.0,0.0,0.0,0.0,0.0,0.0,0.0,0.0,0.0,0.0,0.0,0.0,0.0,0.0,0.0,0.0,0.0,0.0,0.0,0.0,0.0,0.0,-2.05,-2.0174,-1.9277,-1.8562,-1.8191,-1.6775,-1.5914,0.0,0.0,0.0,0.0,0.0,0.0,0.0,0.0,0.0,0.0,0.0,0.0,0.0,0.0,0.0,0.0,0.0,0.0,0.0,0.0,0.0,0.0,0.0,0.0,0.0,0.0,0.0,0.0,0.0,0.0,0.0,0.0,0.0,0.0,0.0,0.0,0.0,0.0,0.0,0.0,0.0,0.0,0.0,0.0,0.0,0.0,0.0,0.0,0.0,0.0,0.0,0.0,0.0,0.0,0.0,0.0,0.0,0.0,0.0,0.0,0.0,0.0,0.0,0.0,0.0,0.0,0.0,0.0,0.0,0.0,0.0,0.0,0.0,0.0,0.0,0.0,0.0,0.0,0.0,0.0,0.0,0.0,0.0,0.0,0.0,0.0,0.0,0.0,0.0,0.0,0.0,0.0,0.0,0.0,0.0,0.0,0.0,0.0,0.0,0.0,0.0,0.0,0.0,0.0,0.0,0.0,0.0,0.0,-2.2547,-2.1599,-2.1499,-2.0933,-1.9938,-1.8109,-1.7007,0.0,0.0,0.0,0.0,0.0,0.0,0.0,0.0,0.0,0.0,0.0,0.0,0.0,0.0,0.0,0.0,0.0,0.0,0.0,0.0,0.0,0.0,0.0,0.0,0.0,0.0,0.0,0.0,0.0,0.0,0.0,0.0,0.0,0.0,0.0,0.0,0.0,0.0,0.0,0.0,0.0,0.0,0.0,0.0,0.0,0.0,0.0,0.0,-1.6422,0.0,0.0,0.0,0.0,0.0,0.0,0.0,0.0,0.0,0.0,0.0,0.0,0.0,0.0,0.0,0.0,0.0,0.0,0.0,0.0,0.0,0.0,0.0,0.0,0.0,0.0,0.0,0.0,0.0,0.0,0.0,0.0,0.0,0.0,0.0,0.0,0.0,0.0,0.0,0.0,0.0,0.0,0.0,0.0,0.0,0.0,0.0,0.0,0.0,0.0,0.0,0.0,0.0,0.0,0.0,0.0,0.0,0.0,0.0,-2.3169,-2.2623,-2.2247,-2.1653,-2.0593,-1.9521,-1.8753,0.0,0.0,0.0,0.0,0.0,0.0,0.0,0.0,0.0,0.0,0.0,0.0,0.0,0.0,0.0,0.0,0.0,0.0,0.0,0.0,0.0,0.0,0.0,0.0,0.0,0.0,0.0,0.0,0.0,0.0,0.0,0.0,0.0,0.0,0.0,0.0,0.0,0.0,0.0,0.0,0.0,0.0,0.0,0.0,0.0,0.0,0.0,0.0,0.0,0.0,0.0,0.0,0.0,0.0,0.0,0.0,0.0,0.0,0.0,0.0,0.0,0.0,0.0,0.0,0.0,0.0,0.0,0.0,0.0,0.0,0.0,0.0,0.0,0.0,0.0,0.0,0.0,0.0,0.0,0.0,0.0,0.0,0.0,0.0,0.0,0.0,0.0,0.0,0.0,0.0,0.0,0.0,0.0,0.0,0.0,0.0,0.0,0.0,0.0,0.0,0.0,0.0,0.0,0.0,0.0,0.0,0.0,-2.4048,-2.3378,-2.3371,-2.2568,-2.1739,-2.0942,-2.0787,-2.0498,-2.0,0.0,0.0,0.0,0.0,0.0,0.0,0.0,0.0,0.0,0.0,0.0,0.0,0.0,0.0,0.0,0.0,0.0,0.0,0.0,0.0,0.0,0.0,0.0,0.0,0.0,0.0,0.0,0.0,0.0,0.0,0.0,0.0,0.0,0.0,0.0,0.0,0.0,0.0,-1.5014,-1.3141,0.0,0.0,0.0,0.0,0.0,0.0,0.0,0.0,-1.858,0.0,0.0,0.0,0.0,0.0,0.0,0.0,0.0,0.0,0.0,0.0,0.0,0.0,0.0,0.0,0.0,0.0,0.0,0.0,0.0,0.0,0.0,0.0,0.0,0.0,0.0,0.0,0.0,0.0,0.0,0.0,0.0,0.0,0.0,0.0,0.0,0.0,0.0,0.0,0.0,0.0,0.0,0.0,0.0,0.0,0.0,0.0,0.0,0.0,0.0,0.0,0.0,0.0,0.0,0.0,0.0,-2.5027,-2.4649,-2.426,-2.391,-2.3317,-2.2695,-2.2176,-2.167,-2.1399,-2.1296,0.0,0.0,0.0,0.0,0.0,0.0,0.0,0.0,0.0,0.0,0.0,0.0,0.0,0.0,0.0,0.0,0.0,0.0,0.0,0.0,0.0,0.0,0.0,0.0,0.0,0.0,0.0,0.0,0.0,0.0,0.0,0.0,0.0,0.0,0.0,0.0,0.0,0.0,0.0,-1.3808,-1.3347,0.0,0.0,0.0,0.0,0.0,0.0,0.0,0.0,-1.9705,0.0,0.0,0.0,0.0,0.0,0.0,0.0,0.0,0.0,0.0,0.0,0.0,0.0,0.0,0.0,0.0,0.0,0.0,0.0,0.0,0.0,0.0,0.0,0.0,0.0,0.0,0.0,0.0,0.0,0.0,0.0,0.0,0.0,0.0,0.0,0.0,0.0,0.0,0.0,0.0,0.0,0.0,0.0,0.0,0.0,0.0,0.0,0.0,0.0,0.0,0.0,0.0,0.0,0.0,0.0,-2.4524,-2.4292,-2.4158,-2.4102,-2.3567,-2.3054,-2.2684,-2.2198,-2.1794,0.0,0.0,0.0,0.0,0.0,0.0,0.0,0.0,0.0,0.0,0.0,0.0,0.0,0.0,0.0,0.0,0.0,0.0,0.0,0.0,0.0,0.0,0.0,0.0,0.0,0.0,0.0,0.0,0.0,0.0,0.0,0.0,0.0,0.0,0.0,0.0,0.0,0.0,0.0,0.0,-1.5635,-1.5287,-1.5457,0.0,0.0,0.0,0.0,0.0,0.0,-2.0812,-2.1373,0.0,0.0,0.0,0.0,0.0,0.0,0.0,0.0,0.0,0.0,0.0,0.0,0.0,0.0,0.0,0.0,0.0,0.0,0.0,0.0,0.0,0.0,0.0,0.0,0.0,0.0,0.0,0.0,0.0,0.0,0.0,0.0,0.0,0.0,0.0,0.0,0.0,0.0,0.0,0.0,0.0,0.0,0.0,0.0,0.0,0.0,0.0,0.0,0.0,0.0,0.0,0.0,0.0,0.0,0.0,-2.4113,-2.3946,-2.3927,-2.4211,-2.3713,-2.3299,-2.2989,-2.262,-2.2177,0.0,0.0,0.0,0.0,0.0,0.0,0.0,0.0,0.0,0.0,0.0,0.0,0.0,0.0,0.0,0.0,0.0,0.0,0.0,0.0,0.0,0.0,0.0,0.0,0.0,0.0,0.0,0.0,0.0,0.0,0.0,0.0,0.0,0.0,0.0,0.0,0.0,0.0,0.0,0.0,0.0,-1.7315,-1.7397,-1.7768,0.0,0.0,0.0,0.0,-2.1332,-2.2134,0.0,0.0,0.0,0.0,0.0,0.0,0.0,0.0,0.0,0.0,0.0,0.0,0.0,0.0,0.0,0.0,0.0,0.0,0.0,0.0,0.0,0.0,0.0,0.0,0.0,0.0,0.0,0.0,0.0,0.0,0.0,0.0,0.0,0.0,0.0,0.0,0.0,0.0,0.0,0.0,0.0,0.0,0.0,0.0,0.0,0.0,0.0,0.0,0.0,0.0,0.0,0.0,0.0,0.0,0.0,0.0,-2.4189,-2.4124,-2.4193,-2.4402,-2.3967,-2.363,-2.3406,-2.2945,-2.2472,0.0,0.0,0.0,0.0,0.0,0.0,0.0,0.0,0.0,0.0,0.0,0.0,0.0,0.0,0.0,0.0,0.0,0.0,0.0,0.0,0.0,0.0,0.0,0.0,0.0,0.0,0.0,0.0,0.0,0.0,0.0,0.0,0.0,0.0,0.0,0.0,0.0,0.0,0.0,0.0,0.0,-1.9197,-1.9106,-1.9348,-1.9648,0.0,0.0,-2.1034,-2.2426,-2.2971,0.0,0.0,0.0,0.0,0.0,0.0,0.0,0.0,0.0,0.0,0.0,0.0,0.0,0.0,0.0,0.0,0.0,0.0,0.0,0.0,0.0,0.0,0.0,0.0,0.0,0.0,0.0,0.0,0.0,0.0,0.0,0.0,0.0,0.0,0.0,0.0,0.0,0.0,0.0,0.0,0.0,0.0,0.0,0.0,0.0,0.0,0.0,0.0,0.0,0.0,0.0,0.0,0.0,0.0,0.0,-2.2628,-2.3165,-2.3686,-2.3985,-2.4146,-2.4063,-2.3912,-2.3744,-2.3203,-2.2664,0.0,0.0,0.0,0.0,0.0,0.0,0.0,0.0,0.0,0.0,0.0,0.0,0.0,0.0,0.0,0.0,0.0,0.0,0.0,0.0,0.0,0.0,0.0,0.0,0.0,0.0,0.0,0.0,0.0,0.0,0.0,0.0,0.0,0.0,0.0,0.0,0.0,0.0,0.0,0.0,0.0,0.0,-2.1009,-2.1341,0.0,0.0,0.0,-2.2927,-2.3672,0.0,0.0,0.0,0.0,0.0,0.0,0.0,0.0,0.0,0.0,0.0,0.0,0.0,0.0,0.0,0.0,0.0,0.0,0.0,0.0,0.0,0.0,0.0,0.0,0.0,0.0,0.0,0.0,0.0,0.0,0.0,0.0,0.0,0.0,0.0,0.0,0.0,0.0,0.0,0.0,0.0,0.0,0.0,0.0,0.0,0.0,0.0,0.0,0.0,0.0,0.0,0.0,0.0,0.0,0.0,0.0,0.0,-2.2606,-2.3166,-2.3594,-2.3856,-2.4022,-2.4043,-2.3867,-2.3479,0.0,0.0,0.0,0.0,0.0,0.0,0.0,0.0,0.0,0.0,0.0,0.0,0.0,0.0,0.0,0.0,0.0,0.0,0.0,0.0,0.0,0.0,0.0,0.0,0.0,0.0,0.0,-2.2964,0.0,0.0,0.0,0.0,0.0,0.0,0.0,0.0,0.0,0.0,0.0,0.0,0.0,0.0,-2.1973,-2.2601,-2.3145,-2.3535,0.0,0.0,-2.4655,-2.4871,-2.5246,-2.5578,0.0,0.0,0.0,0.0,0.0,0.0,0.0,0.0,0.0,0.0,0.0,0.0,0.0,0.0,0.0,0.0,0.0,0.0,0.0,0.0,0.0,0.0,0.0,0.0,0.0,0.0,0.0,0.0,0.0,0.0,0.0,0.0,0.0,0.0,0.0,0.0,0.0,0.0,0.0,0.0,0.0,0.0,0.0,0.0,0.0,0.0,0.0,0.0,0.0,0.0,0.0,0.0,0.0,0.0,0.0,-2.3058,-2.2815,-2.3033,-2.3758,-2.3822,-2.3822,-2.378,-2.3727,-2.3307,0.0,0.0,0.0,0.0,0.0,0.0,0.0,0.0,0.0,0.0,0.0,0.0,0.0,0.0,0.0,0.0,0.0,0.0,0.0,0.0,0.0,0.0,0.0,0.0,0.0,0.0,0.0,0.0,0.0,0.0,0.0,0.0,0.0,0.0,0.0,0.0,0.0,0.0,0.0,0.0,0.0,-2.3494,-2.3554,-2.4193,-2.4727,0.0,0.0,-2.5421,-2.5907,-2.6009,-2.6033,-2.6128,0.0,0.0,0.0,0.0,0.0,0.0,0.0,0.0,0.0,0.0,0.0,0.0,0.0,0.0,0.0,0.0,0.0,0.0,0.0,0.0,0.0,0.0,0.0,0.0,0.0,0.0,0.0,0.0,0.0,0.0,0.0,0.0,0.0,0.0,0.0,0.0,0.0,0.0,0.0,0.0,0.0,0.0,0.0,0.0,0.0,0.0,0.0,0.0,0.0,0.0,0.0,0.0,0.0,-2.2036,-2.3109,-2.3383,-2.3705,-2.4062,-2.4357,-2.4425,-2.4205,-2.428,-2.3801,0.0,0.0,0.0,0.0,0.0,0.0,0.0,0.0,0.0,0.0,0.0,0.0,0.0,0.0,0.0,0.0,0.0,0.0,0.0,0.0,0.0,0.0,0.0,0.0,0.0,0.0,0.0,0.0,-2.2501,-2.186,-2.1553,0.0,0.0,0.0,0.0,0.0,0.0,0.0,0.0,0.0,0.0,-2.4515,-2.4942,-2.5685,0.0,0.0,-2.6408,-2.6691,-2.6794,-2.6527,-2.6466,-2.6647,-2.5914,0.0,0.0,0.0,0.0,0.0,0.0,0.0,0.0,0.0,0.0,0.0,0.0,0.0,0.0,0.0,0.0,0.0,0.0,0.0,0.0,0.0,0.0,0.0,0.0,0.0,0.0,0.0,0.0,0.0,0.0,0.0,0.0,0.0,0.0,0.0,0.0,0.0,0.0,0.0,0.0,0.0,0.0,0.0,0.0,0.0,0.0,0.0,0.0,0.0,0.0,0.0,0.0,-2.2176,-2.3251,-2.3549,-2.3899,-2.4243,-2.4634,-2.4778,-2.4585,-2.4607,-2.4247,0.0,0.0,0.0,0.0,0.0,0.0,0.0,0.0,0.0,0.0,0.0,0.0,0.0,0.0,0.0,0.0,0.0,0.0,0.0,0.0,0.0,0.0,0.0,0.0,0.0,0.0,0.0,0.0,-2.2493,-2.1862,-2.1588,0.0,0.0,0.0,0.0,0.0,0.0,0.0,0.0,0.0,0.0,-2.5579,-2.5946,-2.6714,-2.7182,-2.7071,-2.7411,-2.7572,-2.7379,-2.7034,-2.6719,-2.6703,0.0,0.0,0.0,0.0,0.0,0.0,0.0,0.0,0.0,0.0,0.0,0.0,0.0,0.0,0.0,0.0,0.0,0.0,0.0,0.0,0.0,0.0,0.0,0.0,0.0,0.0,0.0,0.0,0.0,0.0,0.0,0.0,0.0,0.0,0.0,0.0,0.0,0.0,0.0,0.0,0.0,0.0,0.0,0.0,0.0,0.0,0.0,0.0,0.0,0.0,0.0,0.0,0.0,-2.2563,-2.3566,-2.3299,-2.3461,-2.4093,-2.4555,-2.4743,-2.4707,-2.4656,-2.4481,-2.3899,0.0,0.0,0.0,0.0,0.0,0.0,0.0,0.0,0.0,0.0,0.0,0.0,0.0,0.0,0.0,0.0,0.0,0.0,0.0,0.0,0.0,0.0,0.0,0.0,0.0,0.0,-2.3517,-2.2249,-2.1526,0.0,0.0,0.0,0.0,0.0,0.0,0.0,0.0,0.0,0.0,-2.5936,-2.6682,-2.6386,-2.712,-2.7754,-2.7754,-2.7893,-2.7932,-2.7667,-2.7295,-2.6768,0.0,0.0,0.0,0.0,0.0,0.0,0.0,0.0,0.0,0.0,0.0,0.0,0.0,0.0,0.0,0.0,0.0,0.0,0.0,0.0,0.0,0.0,0.0,0.0,0.0,0.0,0.0,-2.1784,-2.1761,0.0,0.0,0.0,0.0,0.0,0.0,0.0,0.0,0.0,0.0,0.0,-2.566,-2.5672,0.0,0.0,0.0,0.0,0.0,0.0,0.0,0.0,0.0,0.0,0.0,0.0,-2.3039,-2.3991,-2.4213,-2.4378,-2.4509,-2.4982,-2.5173,-2.495,-2.4752,-2.4589,-2.4356,0.0,0.0,0.0,0.0,0.0,0.0,0.0,0.0,0.0,0.0,0.0,0.0,0.0,0.0,0.0,0.0,0.0,0.0,0.0,0.0,0.0,0.0,0.0,0.0,0.0,-2.3043,0.0,0.0,0.0,0.0,0.0,0.0,0.0,0.0,0.0,0.0,0.0,-2.578,-2.592,-2.6465,-2.6875,-2.6875,-2.727,-2.7468,0.0,0.0,0.0,0.0,0.0,0.0,0.0,0.0,0.0,0.0,0.0,0.0,0.0,0.0,-2.7634,-2.7197,-2.6956,-2.6817,-2.6867,0.0,0.0,0.0,0.0,0.0,0.0,0.0,0.0,0.0,0.0,0.0,0.0,0.0,0.0,0.0,0.0,-2.4089,0.0,0.0,0.0,0.0,0.0,0.0,0.0,0.0,-2.7183,-2.7435,-2.7435,-2.7364,-2.7215,0.0,-2.6573,-2.5703,0.0,0.0,0.0,0.0,0.0,0.0,0.0,0.0,-2.3521,-2.4166,-2.4402,-2.4456,-2.4418,-2.4898,-2.5076,-2.4786,-2.4811,-2.473,-2.4575,-2.3451,-2.295,0.0,0.0,0.0,0.0,0.0,0.0,0.0,0.0,0.0,0.0,0.0,0.0,0.0,0.0,0.0,0.0,0.0,0.0,0.0,0.0,0.0,0.0,0.0,-2.2927,0.0,0.0,0.0,0.0,0.0,0.0,0.0,0.0,0.0,-2.5538,-2.62,-2.6725,-2.6637,-2.6976,-2.7134,-2.7184,0.0,0.0,0.0,0.0,0.0,0.0,0.0,-2.6753,-2.6663,-2.6524,-2.676,-2.7722,-2.8459,-2.8971,-2.9353,0.0,0.0,-2.8539,-2.8226,-2.8145,-2.8224,-2.8545,-2.9,-2.9524,-2.9726,-2.9848,0.0,0.0,0.0,0.0,0.0,0.0,0.0,0.0,-2.584,-2.619,0.0,-2.5826,0.0,0.0,0.0,0.0,0.0,0.0,0.0,0.0,-2.9215,-2.951,-2.9471,-2.9198,-2.9103,-2.8925,-2.7618,-2.6917,-2.6595,-2.5249,0.0,0.0,0.0,0.0,0.0,0.0,-2.3949,-2.4041,-2.376,-2.3688,-2.3793,-2.4214,-2.4374,-2.4397,-2.4689,-2.4702,-2.4456,-2.3744,-2.3461,-2.3551,-2.2941,0.0,0.0,0.0,0.0,0.0,0.0,0.0,0.0,0.0,0.0,0.0,0.0,0.0,0.0,0.0,0.0,0.0,0.0,0.0,0.0,-2.4163,0.0,0.0,0.0,0.0,0.0,0.0,0.0,0.0,0.0,0.0,-2.6677,-2.6907,-2.7044,-2.6987,0.0,0.0,0.0,0.0,-2.7995,-2.7984,-2.7908,-2.7741,-2.7357,-2.7267,-2.7026,-2.6336,0.0,0.0,-2.9135,-2.9909,-3.0329,-3.062,-3.0817,-3.0863,-2.9715,-2.9591,-2.98,-3.0008,-3.0119,-3.0433,-3.0556,-3.0159,-2.9857,-2.4756,0.0,0.0,0.0,0.0,-2.554,-2.6166,-2.7126,-2.7429,-2.7627,-2.769,-2.7755,0.0,0.0,0.0,0.0,0.0,0.0,-2.8767,-2.9171,-2.9559,-2.9611,-2.9379,-2.9295,-2.8996,-2.8565,-2.817,-2.7574,-2.6674,-2.5866,-2.5244,-2.4901,0.0,0.0,0.0,0.0,-2.3858,-2.3537,-2.3774,-2.3787,-2.3358,-2.393,-2.4021,-2.3707,-2.3866,-2.3883,-2.3689,-2.3255,-2.3208,-2.3491,-2.3091,0.0,0.0,0.0,0.0,0.0,0.0,0.0,0.0,0.0,0.0,0.0,0.0,0.0,0.0,0.0,0.0,0.0,0.0,0.0,-2.4137,-2.4176,-2.4153,0.0,0.0,0.0,0.0,0.0,0.0,0.0,0.0,0.0,-2.7135,-2.7529,-2.7841,0.0,0.0,-2.7273,-2.719,-2.7243,-2.725,-2.7239,0.0,0.0,0.0,-2.6952,-2.7005,-2.7117,-2.7739,-2.8528,-2.9303,-2.9446,-2.9481,-2.9712,-2.9915,-2.9842,-2.9649,-2.9754,-3.0019,-3.0227,-3.012,-3.0105,-3.0528,-3.0622,-3.0671,-2.6736,-2.6901,-2.6668,-2.671,-2.7059,-2.7306,-2.7751,-2.842,-2.8642,-2.8818,-2.887,-2.8786,-2.84,-2.7738,-2.713,0.0,0.0,0.0,-2.8852,-2.9203,-2.947,-2.9516,-2.9274,-2.8969,-2.8552,-2.8046,-2.7756,-2.717,-2.6321,-2.5759,-2.5197,-2.4635,0.0,0.0,-2.3759,-2.3759,-2.3485,-2.2923,-2.3014,-2.3014,-2.2884,-2.3306,-2.3362,-2.3173,-2.3378,-2.3527,-2.3554,-2.3314,-2.332,-2.3622,-2.3312,-2.3216,0.0,0.0,0.0,0.0,0.0,0.0,0.0,0.0,0.0,0.0,0.0,-2.5196,-2.5438,0.0,0.0,0.0,-2.5326,-2.4951,-2.4459,-2.4827,0.0,0.0,0.0,0.0,0.0,0.0,0.0,-2.7417,-2.7828,-2.7914,-2.7493,-2.7792,-2.7999,-2.7676,-2.7659,-2.7545,-2.7464,0.0,-2.7232,-2.7036,-2.6852,-2.6771,-2.6645,-2.6759,-2.7076,-2.7603,-2.8336,-2.8956,-2.931,-2.9171,-2.9031,-2.9118,-2.9029,-2.894,-2.9063,-2.9147,-2.9443,-3.0147,-3.0038,-2.9884,-3.0414,-3.0359,-3.0205,-2.8533,-2.9307,-2.8008,-2.7785,-2.8244,-2.8959,-2.9158,-2.9038,-2.9566,-2.9779,-2.9754,-2.9239,-2.895,-2.88,-2.7758,0.0,-2.7608,-2.7825,-2.8318,-2.8886,-2.9086,-2.9118,-2.9039,-2.8326,-2.7754,-2.7301,-2.6674,-2.6102,-2.5589,-2.5127,-2.4603,-2.3981,-2.404,-2.3694,-2.3184,-2.3158,-2.2884,-2.2348,-2.1812,-2.1773,-2.2323,-2.2523,-2.2657,-2.2751,-2.316,-2.3458,-2.3682,-2.3595,-2.3663,-2.3851,-2.3659,-2.3509,-2.3509,0.0,0.0,0.0,0.0,0.0,0.0,0.0,0.0,0.0,0.0,0.0,0.0,0.0,0.0,0.0,-2.5992,0.0,-2.5488,-2.5879,0.0,0.0,0.0,-2.6918,-2.6738,-2.7275,-2.7578,-2.7459,0.0,0.0,-2.7652,0.0,-2.7705,-2.7327,-2.777,-2.806,-2.7844,-2.7808,-2.7587,-2.7105,-2.7136,-2.7014,-2.6617,-2.6752,-2.7053,-2.7788,-2.8556,-2.8904,-2.8908,-2.8631,-2.8625,-2.8492,-2.812,-2.7838,-2.8174,-2.7737,-2.7963,-2.9549,-2.9681,-2.9669,-3.0051,-2.9459,-2.8876,-2.7743,-2.8584,-2.8796,-2.9297,-2.98,-2.9688,-2.9639,-2.9616,-2.9729,-2.9779,-2.9779,-2.9654,-2.9114,-2.826,-2.7582,-2.741,-2.7634,-2.8092,-2.8201,-2.8164,-2.7851,-2.7572,-2.7196,-2.67,-2.6314,-2.6068,-2.58,-2.519,-2.4309,-2.4023,-2.3734,-2.3257,-2.3231,-2.3042,-2.2625,-2.2692,-2.2417,-2.1734,-2.159,-2.1629,-2.1865,-2.2472,-2.2723,-2.2576,-2.2867,-2.3014,-2.2951,-2.3011,-2.3227,-2.3555,-2.354,-2.3509,-2.3566,-2.3595,0.0,0.0,0.0,0.0,0.0,0.0,0.0,0.0,0.0,-2.6094,-2.6229,0.0,-2.6409,0.0,-2.6062,-2.6004,-2.5783,-2.6497,0.0,0.0,-2.6711,-2.6803,-2.6867,-2.6654,-2.6519,-2.6595,-2.6665,-2.6617,-2.6297,-2.6673,-2.6867,-2.6789,-2.7127,-2.7372,-2.7296,-2.7131,-2.7019,-2.6876,-2.7131,-2.7124,-2.6639,-2.6655,-2.6955,-2.7451,-2.7442,-2.742,-2.7604,-2.6821,-2.6206,-2.6241,-2.5908,-2.5724,-2.5932,-2.5955,-2.6341,-2.7057,-2.7701,-2.8274,-2.8618,-2.8226,-2.7963,-2.7668,-2.8516,-2.8981,-2.9487,-3.0031,-3.001,-2.9927,-2.9792,-2.9779,-2.9779,-2.9779,-2.9592,-2.8937,-2.7902,-2.7703,-2.7564,-2.7347,-2.7549,-2.7464,-2.7211,-2.6817,-2.6582,-2.6446,-2.5739,-2.5348,-2.5249,-2.4681,-2.393,-2.3111,-2.3017,-2.2615,-2.1861,-2.1884,-2.1686,-2.1246,-2.1714,-2.1517,-2.0584,-2.1022,-2.1218,-2.1116,-2.2132,-2.2563,-2.2297,-2.2656,-2.2804,-2.2814,-2.3024,-2.3275,-2.3451,-2.3553,-2.3566,-2.3595,-2.3595,-2.3595,0.0,0.0,0.0,0.0,0.0,0.0,0.0,0.0,0.0,0.0,0.0,-2.6674,0.0,-2.6288,-2.6293,-2.5945,-2.6546,-2.6925,-2.6661,-2.6598,-2.6535,-2.6535,-2.6321,-2.6184,-2.606,-2.6122,-2.606,-2.5824,-2.6035,-2.6271,-2.6257,-2.635,-2.6611,-2.698,-2.6797,-2.6481,-2.6237,-2.6473,-2.6569,-2.6226,-2.6355,-2.6531,-2.654,-2.6426,-2.6307,-2.6089,-2.5445,-2.4943,-2.4902,-2.4625,-2.4394,-2.4293,-2.4434,-2.4676,-2.4797,-2.522,-2.5926,-2.6903,-2.6814,-2.6586,-2.7925,-2.8591,-2.8727,-2.9114,-2.9533,-2.993,-2.9882,-2.9679,-2.9679,-2.9641,-2.9617,-2.925,-2.8549,-2.7672,-2.7906,-2.7627,-2.6938,-2.6765,-2.657,-2.6349,-2.6028,-2.5959,-2.6089,-2.5056,-2.4581,-2.4558,-2.3511,-2.2668,-2.2029,-2.2015,-2.1485,-2.0506,-2.0557,-2.0347,-1.9784,-2.0601,-2.0469,-1.9508,-2.0348,-2.0655,-2.0382,-2.167,-2.2228,-2.2105,-2.2526,-2.2785,-2.2979,-2.3319,-2.3509,-2.3509,-2.3566,-2.3595,-2.3595,-2.3595,-2.3595,0.0,-2.3595,0.0,0.0,0.0,0.0,0.0,0.0,0.0,0.0,-2.6982,-2.6727,-2.6218,-2.6552,-2.658,-2.6075,-2.6408,-2.66,-2.6235,-2.6041,-2.59,-2.5778,-2.5834,-2.5733,-2.5441,-2.5503,-2.5564,-2.5363,-2.538,-2.538,-2.5357,-2.5169,-2.5358,-2.635,-2.6251,-2.5832,-2.5435,-2.5378,-2.5384,-2.5426,-2.5686,-2.5628,-2.5247,-2.536,-2.5385,-2.484,-2.4286,-2.397,-2.3969,-2.3561,-2.3202,-2.2927,-2.2985,-2.3034,-2.295,-2.2965,-2.3564,-2.5087,-2.5165,-2.4991,-2.733,-2.7719,-2.8208,-2.8655,-2.9175,-2.8823,-2.8808,-2.9101,-2.9089,-2.8925,-2.8632,-2.8421,-2.8177,-2.8014,-2.7699,-2.7233,-2.6674,-2.6842,-2.6604,-2.6054,-2.5316,-2.5056,-2.5263,-2.4286,-2.3515,-2.2949,-2.2586,-2.1945,-2.1053,-2.0951,-2.0838,-2.0699,-2.0741,-2.0471,-1.9888,0.0,0.0,0.0,-1.9773,-2.0175,-2.0758,-2.1162,-2.1745,-2.2543,-2.2754,0.0,-2.3363,-2.3466,-2.3538,-2.3566,-2.3595,0.0,0.0,0.0,0.0,0.0,0.0,0.0,0.0,0.0,0.0,0.0,-2.5388,-2.5935,-2.6341,-2.6497,-2.6525,-2.6433,-2.6773,-2.6835,-2.6507,-2.6287,-2.6122,-2.574,-2.478,-2.4093,-2.408,-2.3721,-2.3429,-2.3373,-2.3387,-2.34,-2.3313,-2.3194,-2.3336,-2.3738,-2.3315,-2.3298,-2.3903,-2.4474,-2.4746,-2.473,-2.4377,-2.4134,-2.4359,-2.4107,-2.3919,-2.3757,-2.3797,-2.3902,-2.384,-2.3036,-2.2457,-2.2512,-2.1823,-2.1295,-2.1269,-2.1384,-2.1653,-2.1836,-2.1887,-2.2319,-2.3703,-2.3554,-2.3135,-2.7278,0.0,-2.7905,-2.827,0.0,-2.816,-2.8077,-2.8306,-2.8499,-2.852,-2.8292,-2.8404,-2.8297,-2.805,-2.7866,-2.7568,-2.7043,-2.6438,-2.5961,-2.5494,-2.461,-2.4326,-2.4553,-2.3588,-2.298,-2.2692,-2.1985,-2.1241,-2.0419,-2.0349,-2.0191,-1.9955,-2.0258,-2.0298,-2.0049,-2.0324,-2.0,-1.9128,-1.9362,-1.9751,-2.0272,-2.0696,-2.1225,-2.1831,0.0,0.0,0.0,0.0,0.0,0.0,0.0,0.0,0.0,0.0,0.0,-2.3565,-2.331,-2.3131,-2.3131,-2.3176,-2.331,-2.3683,-2.4552,-2.5312,-2.5872,-2.6002,-2.5979,-2.5807,-2.5994,-2.5883,-2.5256,-2.5134,-2.4902,-2.4419,-2.3742,-2.338,-2.346,-2.3311,-2.3189,-2.3056,-2.307,-2.303,-2.2818,-2.2818,-2.2857,-2.3055,-2.2631,-2.2392,-2.2684,-2.3175,-2.3566,-2.3782,-2.353,-2.3326,-2.3295,-2.309,-2.2624,-2.2336,-2.229,-2.2249,-2.2161,-2.1707,-2.1375,-2.1407,-2.1112,-2.0833,-2.0691,-2.0793,-2.0902,-2.082,-2.0805,-2.1009,-2.1762,-2.2094,-2.2335,-2.7395,-2.7705,-2.7753,-2.79,-2.8147,-2.7606,-2.7429,-2.7545,0.0,0.0,0.0,-2.8663,-2.8638,-2.8208,-2.8173,-2.7954,-2.7516,-2.6112,-2.5329,-2.5066,-2.401,-2.3638,-2.383,-2.283,-2.2364,-2.2425,-2.1407,-2.0564,-1.9977,-2.0065,-1.9861,-1.9491,-2.007,-2.0377,-2.0475,-2.0944,-2.0494,-1.9109,-1.9468,-1.9749,-1.9886,-2.0509,-2.0963,-2.1087,-2.1359,-2.152,-2.152,-2.164,-2.1695,-2.1695,-2.1695,-2.1949,-2.2499,-2.2544,-2.2727,-2.3191,-2.2787,-2.2503,-2.2488,-2.1994,-2.1959,-2.2565,-2.3518,-2.4492,-2.5416,-2.5506,-2.5379,-2.5091,-2.5091,-2.4771,-2.3848,-2.3736,-2.3473,-2.2842,-2.2668,-2.2637,-2.2738,-2.2931,-2.287,-2.2867,-2.272,-2.2729,-2.2444,-2.2329,-2.2385,-2.2369,-2.1884,-2.1731,-2.1812,-2.199,-2.2246,-2.2307,-2.2248,-2.2295,-2.2142,-2.2062,-2.1787,-2.1189,-2.1128,-2.095,-2.0685,-2.0625,-2.0707,-2.0792,-2.0866,-2.0715,-2.0442,-2.0452,-2.0459,-2.0076,-2.0041,-2.0025,-2.0222,-2.0965,-2.1645,-2.7198,-2.7211,-2.752,-2.7682,-2.7594,-2.7053,-2.7042,-2.7333,-2.7569,-2.7758,-2.804,-2.8552,-2.8899,-2.8931,-2.8683,-2.8232,-2.76,-2.6315,-2.5558,0.0,-2.3461,-2.2826,-2.2985,-2.1873,-2.1152,-2.0813,-2.0646,-2.0294,-1.9871,-2.0325,-2.0548,-2.0548,-2.1138,-2.1426,-2.1346,-2.134,-2.1256,-2.0999,-2.0884,-2.0901,-2.0954,-2.1097,-2.1222,-2.144,-2.1465,-2.156,-2.164,-2.168,-2.1695,-2.1695,-2.1695,-2.1754,-2.1829,-2.1829,-2.1874,-2.1949,-2.1889,-2.1844,-2.1829,-2.1739,-2.1739,-2.1854,-2.2009,-2.3001,-2.5047,-2.5236,-2.5236,-2.514,-2.4974,-2.465,-2.3731,-2.3126,-2.2488,-2.1643,-2.1097,-2.0806,-2.0918,-2.1078,-2.1179,-2.1149,-2.0792,-2.0757,-2.0792,-2.0511,-2.0429,-2.0234,-2.0402,-2.0112,-2.0343,-2.062,-2.065,-2.0375,-2.0329,-2.0423,-2.0595,-2.0545,-2.0651,-2.067,-2.0727,-2.0824,-2.0831,-2.06,-2.0416,-2.0519,-2.0287,-2.0064,-1.9957,-1.9999,-2.0127,-2.008,-2.008,-2.015,-2.0235,-2.0496,-2.0604,-2.6892,-2.6813,-2.682,-2.6843,-2.6858,-2.6519,-2.6509,-2.6762,-2.708,-2.753,-2.7931,-2.8112,-2.8274,-2.8414,-2.8165,-2.7414,-2.6311,-2.5199,-2.4184,-2.3326,-2.2606,-2.2366,-2.2542,-2.2113,-2.181,-2.1675,-2.1317,-2.1042,-2.0842,-2.1111,-2.1246,-2.1291,-2.1904,-2.2398,-2.2614,-2.2587,-2.2587,-2.2572,-2.1713,-2.1263,-2.1304,-2.1344,-2.1262,-2.0985,-2.1024,-2.0899,-2.0617,-2.0602,-2.0602,-2.0602,-2.0602,-2.0767,-2.1141,-2.1156,-2.1321,-2.165,-2.1365,-2.1156,-2.1171,-2.1156,-2.1171,-2.1171,-2.15,-2.2133,-2.3213,-2.3317,-2.3274,-2.3171,-2.3171,-2.2966,-2.2308,-2.2105,-2.1786,-2.1155,-2.0869,-2.0781,-2.0753,-2.0795,-2.0851,-2.0711,-2.0585,-2.05,-2.0373,-2.0244,-2.0158,-2.013,-1.9921,-1.9726,-1.9498,-1.9653,-1.9894,-2.0031,-2.0142,-2.0061,-1.9936,-1.9936,-1.9959,-1.9966,-2.005,-2.0167,-2.036,-2.0191,-2.0213,-2.019,-2.0029,-1.995,-1.994,-2.0025,-2.008,-2.02,-2.022,-2.027,-2.0304,-2.0304,-2.0304,-2.6523,-2.6395,-2.608,-2.5937,-2.6012,-2.5987,-2.6089,-2.6356,-2.6707,-2.7161,-2.7649,-2.7731,-2.7824,-2.7755,-2.7451,-2.6669,-2.54,-2.4264,-2.323,-2.2321,-2.212,-2.2104,-2.2245,-2.2268,-2.2319,-2.2357,-2.1894,-2.1695,-2.1724,-2.1829,-2.1994,-2.2158,-2.2622,-2.3131,-2.358,-2.3595,-2.3595,-2.3535,-2.2483,-2.1821,-2.1702,-2.1728,-2.1456,-2.0831,-2.0893,-2.0617,-1.9974,-1.9914,-1.9839,-1.9705,-1.9705,-1.9929,-2.0423,-2.0483,-2.0722,-2.1126,-2.0767,-2.0483,-2.0483,-2.0483,-2.0483,-2.0498,-2.0946,-2.1231,-2.1246,-2.1246,-2.1341,-2.1501,-2.1719,-2.1535,-2.1131,-2.1152,-2.1093,-2.0721,-2.0717,-2.0669,-2.0677,-2.0743,-2.0713,-2.0553,-2.0541,-2.0445,-2.0352,-2.0228,-2.013,-2.0044,-1.9895,-1.9551,-1.9203,-1.9139,-1.945,-1.9884,-2.0089,-1.9891,-1.9652,-1.966,-1.9628,-1.9457,-1.9589,-1.9773,-1.9903,-1.9965,-2.0005,-2.0036,-2.0056,-2.0096,-2.015,-2.015,-2.0185,-2.027,-2.027,-2.0304,-2.0304,-2.0304,-2.0304,-2.6134,-2.586,-2.5505,-2.5095,-2.4809,-2.5282,-2.5798,-2.6222,-2.6376,-2.662,-2.706,-2.784,-2.7882,-2.7492,-2.7006,-2.635,-2.5582,-2.4457,-2.376,-2.347,-2.2586,-2.2089,-2.2074,-2.1701,-2.1473,-2.1669,-2.1624,-2.1694,-2.1859,-2.2323,-2.2903,-2.337,-2.349,-2.352,-2.3595,-2.3595,-2.3595,-2.3595,-2.349,-2.3146,-2.2637,-2.2592,-2.2263,-2.162,-2.162,-2.1291,-2.0662,-2.0602,-2.0333,-1.9801,-1.972,-1.972,-1.9809,-1.9794,-1.9824,-1.9914,-1.9839,-1.9779,-1.9794,-1.9765,-1.9809,-1.9779,-1.9884,-1.9981,-1.9944,-1.9951,-2.0423,-2.1306,-2.158,-2.1227,-2.0688,-2.0537,-2.0306,-1.9803,-1.9775,-1.9753,-1.9805,-1.9775,-1.9833,-1.9796,-1.9812,-1.9694,-1.9715,-1.9526,-1.9315,-1.9368,-1.9397,-1.9351,-1.9332,-1.9362,-1.9428,-1.9582,-1.947,-1.9333,-1.9359,-1.945,-1.9575,-1.9654,-1.9833,-1.9919,-1.999,-2.0045,-2.0115,-2.0131,-2.02,-2.0235,-2.027,-2.027,-2.027,-2.027,-2.0304,-2.0304,-2.0304,-2.0304,-2.0304,-2.5301,-2.4991,-2.4671,-2.4431,-2.4381,-2.4484,-2.4734,-2.5097,-2.5092,-2.5269,-2.5612,-2.6055,-2.6318,-2.648,-2.5857,-2.5081,-2.4094,-2.3557,-2.2904,-2.2236,-2.2062,-2.2104,-2.2147,-2.2351,-2.2466,-2.2564,-2.2579,-2.2621,-2.2793,-2.3101,-2.3355,-2.3565,-2.3595,-2.3595,-2.3595,-2.3595,-2.3595,-2.3595,-2.3595,-2.3475,-2.3266,-2.3236,-2.2921,-2.2353,-2.2278,-2.1964,-2.1395,-2.1291,-2.1171,-2.0872,-2.0513,-2.0303,-2.0288,-1.9914,-1.9705,-1.9705,-1.9705,-1.9705,-1.9705,-1.9705,-1.9705,-1.9705,-1.9726,-1.9762,-1.9726,-1.9797,-2.0104,-2.04,-2.0483,-2.0311,-2.0102,-2.0057,-1.9901,-1.9626,-1.9669,-1.9683,-1.9611,-1.9654,-1.9654,-1.956,-1.956,-1.9574,-1.9501,-1.9428,-1.9428,-1.9428,-1.9472,-1.9545,-1.9669,-1.9741,-1.9777,-1.9812,-1.9705,-1.9617,-1.9632,-1.9617,-1.9762,-1.9904,-2.001,-2.008,-2.0166,-2.02,-2.0235,-2.022,-2.027,-2.0304,-2.027,-2.0304,-2.0304,-2.0304,-2.0304,-2.0304,-2.0304,-2.0304,-2.0304,-2.4548,-2.4242,-2.3802,-2.3616,-2.3564,-2.3573,-2.379,-2.412,-2.4207,-2.4376,-2.4609,-2.4626,-2.4849,-2.5154,-2.4776,-2.3916,-2.2975,-2.2888,-2.241,-2.1641,-2.2048,-2.2309,-2.2454,-2.2849,-2.3157,-2.3275,-2.329,-2.3392,-2.3494,-2.3566,-2.3595,-2.3595,-2.3595,-2.3595,-2.3595,-2.3595,-2.3595,-2.3595,-2.3595,-2.3595,-2.3595,-2.3595,-2.337,-2.2966,-2.2921,-2.2622,-2.2009,-2.1964,-2.1874,-2.168,-2.1231,-2.0887,-2.0707,-2.0243,-1.9884,-1.972,-1.9705,-1.9705,-1.9705,-1.9705,-1.9705,-1.9726,-1.9762,-1.9726,-1.9726,-1.9833,-1.9848,-1.9771,-1.9705,-1.9735,-1.9726,-1.9726,-1.9762,-1.9726,-1.9777,-1.9726,-1.9632,-1.9669,-1.9654,-1.9523,-1.9596,-1.9574,-1.9501,-1.9538,-1.9611,-1.9654,-1.9726,-1.9833,-1.9955,-1.9955,-1.999,-2.0041,-2.0025,-1.997,-1.9884,-1.9884,-1.9975,-2.003,-2.01,-2.0185,-2.0304,-2.0304,-2.0304,-2.027,-2.027,-2.0304,-2.0304,-2.0304,-2.0304,-2.0304,-2.0304,-2.0339,-2.0354,-2.0339,-2.0373,-2.3821,-2.3682,-2.2969,-2.2434,-2.2095,-2.2548,-2.3097,-2.3685,-2.4083,-2.4433,-2.4451,-2.4134,-2.3949,-2.4007,-2.3963,-2.3557,-2.2946,-2.2888,-2.283,-2.2685,-2.2786,-2.2844,-2.2918,-2.3037,-2.3157,-2.3275,-2.3363,-2.3494,-2.3595,-2.3595,-2.3595,-2.3595,-2.3595,-2.3595,-2.3595,-2.3595,-2.3595,-2.3595,-2.3595,-2.3595,-2.3595,-2.3595,-2.3535,-2.3505,-2.355,-2.3236,-2.2753,-2.2637,-2.2368,-2.1739,-2.1695,-2.138,-2.0812,-2.0662,-2.0303,-1.9816,-1.9705,-1.9705,-1.9705,-1.9705,-1.9705,-1.9705,-1.9726,-1.9726,-1.9726,-1.9726,-1.9726,-1.9705,-1.9705,-1.9705,-1.9705,-1.9726,-1.9726,-1.9726,-1.9726,-1.9705,-1.969,-1.9615,-1.9675,-1.963,-1.9555,-1.9409,-1.9507,-1.9574,-1.9573,-1.963,-1.9696,-1.9812,-1.9955,-1.999,-2.0061,-2.008,-2.01,-2.008,-2.0025,-2.0025,-2.008,-2.01,-2.022,-2.0254,-2.0304,-2.0304,-2.0304,-2.0304,-2.0304,-2.0304,-2.0304,-2.0304,-2.0304,-2.0339,-2.0373,-2.0423,-2.0457,-2.0475,-2.0494,-2.2478,-2.2006,-2.1897,-2.1933,-2.205,-2.2234,-2.2644,-2.3136,-2.322,-2.3335,-2.3447,-2.3337,-2.3235,-2.325,-2.3235,-2.3105,-2.2917,-2.2992,-2.3037,-2.3037,-2.3037,-2.3037,-2.3037,-2.2992,-2.2978,-2.3068,-2.3157,-2.3334,-2.3538,-2.3566,-2.3595,-2.3595,-2.3595,-2.3595,-2.3595,-2.3595,-2.3595,-2.3595,-2.3595,-2.3595,-2.3535,-2.3221,-2.3233,-2.3724,-2.3653,-2.3505,-2.3281,-2.3266,-2.3146,-2.2921,-2.2547,-2.2039,-2.135,-2.0513,-1.9959,-1.9735,-1.9705,-1.9705,-1.9705,-1.9705,-1.9705,-1.9726,-1.9726,-1.9762,-1.9726,-1.9726,-1.9762,-1.9726,-1.9705,-1.9705,-1.9705,-1.9705,-1.9705,-1.9705,-1.9705,-1.9705,-1.96,-1.9331,-1.9061,-1.9001,-1.8732,-1.8414,-1.8578,-1.8822,-1.9131,-1.9211,-1.9632,-1.9899,-2.003,-2.0131,-2.0108,-2.022,-2.022,-2.0235,-2.02,-2.02,-2.0235,-2.0235,-2.027,-2.027,-2.0304,-2.0304,-2.0304,-2.0304,-2.0304,-2.0304,-2.0304,-2.0373,-2.0373,-2.0426,-2.0494,-2.0577,-2.0592,-2.0677,-2.0728,-2.1328,-2.0846,-2.1063,-2.1377,-2.1615,-2.1643,-2.2019,-2.2588,-2.2495,-2.248,-2.2598,-2.2598,-2.2482,-2.2338,-2.2338,-2.2382,-2.244,-2.2819,-2.3127,-2.3142,-2.2937,-2.2952,-2.3098,-2.2863,-2.2878,-2.3083,-2.326,-2.3437,-2.3551,-2.34,-2.3381,-2.3408,-2.3185,-2.3185,-2.3335,-2.3423,-2.3498,-2.3649,-2.3543,-2.3381,-2.3348,-2.2806,-2.2712,-2.313,-2.3149,-2.3275,-2.3608,-2.3638,-2.3595,-2.3535,-2.3191,-2.2592,-2.1695,-2.0423,-1.9705,-1.9705,-1.9705,-1.9705,-1.9705,-1.9705,-1.9705,-1.9705,-1.9741,-1.9762,-1.9726,-1.9726,-1.9762,-1.9726,-1.9705,-1.9705,-1.9726,-1.9726,-1.9726,-1.9726,-1.9705,-1.9705,-1.9675,-1.9301,-1.8986,-1.8732,-1.8418,-1.8059,-1.7819,-1.8248,-1.851,-1.8604,-1.9128,-1.9428,-1.9492,-1.9526,-1.9608,-1.9608,-1.9531,-1.95,-1.9405,-1.9329,-1.99,-2.0023,-2.0085,-2.0131,-2.015,-2.0181,-2.0196,-2.0243,-2.0289,-2.0304,-2.0339,-2.0407,-2.0509,-2.0579,-2.0728,-2.0843,-2.0876,-2.0941,-2.099,-2.0568,-2.0311,-2.0503,-2.0692,-2.0777,-2.0846,-2.131,-2.2161,-2.2088,-2.2048,-2.212,-2.2019,-2.1685,-2.122,-2.1347,-2.1286,-2.1576,-2.2497,-2.2996,-2.3068,-2.2553,-2.2597,-2.3039,-2.251,-2.2582,-2.3229,-2.3608,-2.3694,-2.3676,-2.3179,-2.2949,-2.2879,-2.233,-2.236,-2.298,-2.2996,-2.3269,-2.3572,-2.3223,-2.298,-2.2905,-2.2328,-2.2055,-2.2139,-2.21,-2.2576,-2.3616,-2.3606,-2.3535,-2.3595,-2.352,-2.2966,-2.165,-2.0393,-1.9705,-1.9705,-1.9705,-1.9705,-1.9705,-1.9705,-1.9705,-1.9705,-1.9705,-1.9726,-1.9726,-1.9726,-1.9726,-1.9705,-1.9705,-1.9705,-1.9726,-1.9726,-1.9762,-1.9726,-1.9741,-1.9726,-1.9711,-1.9681,-1.9426,-1.8811,-1.856,-1.8373,-1.7924,-1.7992,-1.818,-1.8152,-1.8324,-1.8449,-1.8513,-1.8513,-1.833,-1.8345,-1.8545,-1.8729,-1.8484,-1.8315,-1.9131,-1.9746,-1.9808,-1.9854,-1.9731,-1.97,-1.9639,-1.9685,-1.9934,-1.9999,-2.0211,-2.0342,-2.0663,-2.0794,-2.0958,-2.1087,-2.1135,-2.1167,-2.1246,-2.0212,-1.9995,-2.0347,-2.0603,-2.0908,-2.1254,-2.1829,-2.23,-2.2001,-2.1903,-2.1917,-2.1496,-2.1191,-2.1087,-2.117,-2.1278,-2.1444,-2.1951,-2.2181,-2.2081,-2.1917,-2.1932,-2.2055,-2.173,-2.1745,-2.212,-2.2646,-2.2993,-2.3073,-2.2959,-2.298,-2.2874,-2.2297,-2.2154,-2.2361,-2.2415,-2.2592,-2.2699,-2.2561,-2.2439,-2.2393,-2.1782,-2.1697,-2.2156,-2.169,-2.182,-2.2699,-2.2944,-2.323,-2.3535,-2.3191,-2.2368,-2.1141,-2.0183,-1.972,-1.9705,-1.9705,-1.9705,-1.9705,-1.9726,-1.9726,-1.9705,-1.9705,-1.9705,-1.9705,-1.9705,-1.9705,-1.9705,-1.9705,-1.9705,-1.9726,-1.9726,-1.9762,-1.9777,-1.9848,-1.9904,-1.9929,-1.9665,-1.9152,-1.8587,-1.8434,-1.8295,-1.8201,-1.8339,-1.8414,-1.8108,-1.837,-1.8541,-1.8221,-1.8053,-1.8176,-1.8176,-1.8176,-1.7992,-1.79,-1.7792,-1.8192,-1.8792,-1.9008,-1.9285,-1.9223,-1.9177,-1.9115,-1.921,-1.9474,-1.9712,-1.9936,-2.0303,-2.0655,-2.0991,-2.1166,-2.1245,-2.134,-2.1354,-2.1301,-1.9927,-1.9926,-2.0372,-2.0772,-2.1113,-2.1258,-2.1605,-2.1965,-2.1427,-2.1209,-2.1177,-2.0857,-2.0549,-2.0415,-2.0494,-2.0637,-2.0855,-2.1084,-2.1145,-2.119,-2.1355,-2.1536,-2.1684,-2.152,-2.1374,-2.1514,-2.2058,-2.24,-2.2531,-2.2476,-2.2432,-2.2378,-2.1826,-2.1627,-2.1864,-2.1969,-2.2046,-2.2262,-2.2093,-2.1991,-2.1889,-2.1312,-2.1208,-2.1605,-2.1188,-2.1255,-2.1848,-2.2087,-2.2445,-2.2761,-2.2359,-2.1554,-2.076,-2.013,-1.9726,-1.9726,-1.9741,-1.9726,-1.9726,-1.9726,-1.9726,-1.9726,-1.9705,-1.9705,-1.9705,-1.9705,-1.9705,-1.9705,-1.9705,-1.9705,-1.9726,-1.9726,-1.9777,-1.9848,-1.9884,-1.9975,-2.0019,-1.9885,-1.9443,-1.8964,-1.8764,-1.8578,-1.8485,-1.8484,-1.8619,-1.8266,-1.8251,-1.8313,-1.7823,-1.7547,-1.7516,-1.7485,-1.73,-1.7254,-1.7377,-1.7377,-1.7393,-1.77,-1.8007,-1.8345,-1.853,-1.8545,-1.8514,-1.8702,-1.8936,-1.9155,-1.9374,-2.013,-2.0605,-2.0938,-2.1173,-2.1507,-2.1568,-2.1236,-2.1147,-1.9772,-2.008,-2.0521,-2.0926,-2.1179,-2.0654,-2.0853,-2.1341,-2.059,-2.0193,-2.019,-2.0103,-1.9832,-1.9449,-1.956,-1.9745,-1.9807,-2.0162,-2.0454,-2.0647,-2.0931,-2.1308,-2.1507,-2.136,-2.1242,-2.1332,-2.1765,-2.2034,-2.2064,-2.1806,-2.1486,-2.1662,-2.1082,-2.0833,-2.1432,-2.1577,-2.1842,-2.2202,-2.1858,-2.1612,-2.1635,-2.1002,-2.0673,-2.0803,-2.0686,-2.0783,-2.1152,-2.1265,-2.1445,-2.1766,-2.1348,-2.0933,-2.0625,-2.0092,-1.9741,-1.9762,-1.9797,-1.9797,-1.9797,-1.9797,-1.9777,-1.9726,-1.9726,-1.9705,-1.9705,-1.9705,-1.9705,-1.9705,-1.9705,-1.9705,-1.9726,-1.9726,-1.9833,-1.9955,-1.999,-2.0045,-2.0135,-2.0296,-2.0089,-1.9653,-1.9449,-1.9278,-1.8796,-1.8734,-1.8609,-1.8346,-1.7946,-1.7623,-1.727,-1.6993,-1.6394,-1.6363,-1.6594,-1.664,-1.6824,-1.6824,-1.684,-1.6962,-1.7222,-1.7469,-1.7746,-1.7807,-1.7821,-1.8034,-1.8404,-1.86,-1.8954,-1.9656,-2.0173,-2.0414,-2.0871,-2.1545,-2.1458,-2.0915,-2.0671,-1.9965,-2.0283,-2.0276,-2.0523,-2.0803,-2.045,-2.0528,-2.0841,-2.0261,-1.9991,-1.9986,-1.9566,-1.9365,-1.9317,-1.9376,-1.9596,-1.9904,-2.0204,-2.046,-2.0677,-2.0803,-2.0632,-2.0409,-2.0287,-2.028,-2.0414,-2.1038,-2.1421,-2.1662,-2.1604,-2.1631,-2.1717,-2.1108,-2.0857,-2.108,-2.1209,-2.1305,-2.1464,-2.1369,-2.1242,-2.1243,-2.1116,-2.0909,-2.0844,-2.0761,-2.0756,-2.0808,-2.074,-2.0839,-2.1196,-2.1113,-2.0661,-2.018,-1.9903,-1.9762,-1.9762,-1.9797,-1.9797,-1.9797,-1.9797,-1.9797,-1.9762,-1.9726,-1.9705,-1.9705,-1.9705,-1.9705,-1.9705,-1.9705,-1.9705,-1.9705,-1.9726,-1.9833,-2.0045,-2.0254,-2.046,-2.0545,-2.0697,-2.0668,-2.0526,-2.0396,-2.0189,-2.0016,-1.9791,-1.9601,-1.9104,-1.8454,-1.7807,-1.7469,-1.6778,-1.6379,-1.6256,-1.6332,-1.6271,-1.6256,-1.6256,-1.6286,-1.6376,-1.6512,-1.666,-1.6843,-1.6874,-1.6896,-1.6964,-1.7716,-1.8063,-1.8455,-1.8977,-1.9367,-1.9838,-2.0202,-2.0633,-2.0389,-2.0007,-1.9909,-1.9724,-2.0106,-1.9893,-2.007,-2.044,-2.0161,-2.0145,-2.0237,-1.9785,-1.9575,-1.958,-1.929,-1.9176,-1.9354,-1.9465,-1.972,-2.0061,-2.0323,-2.0579,-2.0827,-2.0909,-2.061,-2.02,-1.994,-1.9925,-2.0045,-2.0548,-2.0879,-2.1155,-2.1376,-2.1528,-2.1499,-2.123,-2.1087,-2.1103,-2.1135,-2.1199,-2.1199,-2.1183,-2.1183,-2.1199,-2.1151,-2.1135,-2.1055,-2.0958,-2.0794,-2.0726,-2.0577,-2.0609,-2.0707,-2.0696,-2.0457,-2.0,-1.9833,-1.9812,-1.9797,-1.9797,-1.9812,-1.9884,-1.9833,-1.9797,-1.9797,-1.9762,-1.9762,-1.9777,-1.9741,-1.9741,-1.9726,-1.9726,-1.9705,-1.9726,-1.9833,-2.0045,-2.0289,-2.0561,-2.0761,-2.0761,-2.0811,-2.0893,-2.0909,-2.0844,-2.0761,-2.0761,-2.0577,-2.0289,-1.9818,-1.9165,-1.8655,-1.8177,-1.7284,-1.6701,-1.6763,-1.6561,-1.6484,-1.6527,-1.6555,-1.6351,-1.6335,-1.6344,-1.6382,-1.6436,-1.6479,-1.6564,-1.6797,-1.7215,-1.7631,-1.7989,-1.8392,-1.8844,-1.9249,-1.9493,-1.967,-1.961,-1.9293,-1.9199,-1.9177,-1.9582,-1.9434,-1.9639,-1.9934,-1.964,-1.9535,-1.9645,-1.9277,-1.9121,-1.9121,-1.913,-1.9213,-1.9413,-1.9538,-1.9792,-2.015,-2.0426,-2.0695,-2.0893,-2.1023,-2.086,-2.0509,-2.0254,-2.0239,-2.0357,-2.0494,-2.0691,-2.0954,-2.1183,-2.1247,-2.1327,-2.1326,-2.1325,-2.1325,-2.1325,-2.1325,-2.1325,-2.1356,-2.134,-2.1371,-2.1294,-2.1214,-2.1214,-2.1007,-2.0844,-2.0728,-2.0595,-2.054,-2.0438,-2.0339,-2.0266,-2.01,-1.994,-1.9884,-1.9919,-1.9884,-1.9884,-1.9955,-1.9884,-1.9848,-1.9848,-1.9833,-1.9833,-1.9848,-1.9848,-1.9797,-1.9726,-1.9741,-1.9726,-1.9812,-2.0096,-2.0289,-2.046,-2.0712,-2.0827,-2.0761,-2.0811,-2.0893,-2.0893,-2.0893,-2.0861,-2.0811,-2.0679,-2.0444,-2.0177,-1.9599,-1.9119,-1.8592,-1.7946,-1.7654,-1.7777,-1.7392,-1.6851,-1.6892,-1.6949,-1.6651,-1.6472,-1.6479,-1.6501,-1.657,-1.6623,-1.6701,-1.6891,-1.7187,-1.7358,-1.7502,-1.7914,-1.8386,-1.8601,-1.8784,-1.9152,-1.9403,-1.8809,-1.8526,-1.8579,-1.8988,-1.8729,-1.8825,-1.9071,-1.8752,-1.8739,-1.8988,-1.8908,-1.895,-1.9017,-1.9078,-1.9213,-1.9428,-1.9574,-1.9863,-2.027,-2.0543,-2.0843,-2.1103,-2.1135,-2.1119,-2.0892,-2.061,-2.0545,-2.0712,-2.0712,-2.0925,-2.1214,-2.1309,-2.1402,-2.1497,-2.1528,-2.1528,-2.1511,-2.1528,-2.1528,-2.1528,-2.1542,-2.1526,-2.1511,-2.145,-2.134,-2.1277,-2.1039,-2.0877,-2.0794,-2.0761,-2.0695,-2.061,-2.0491,-2.027,-2.0135,-2.0045,-1.9975,-1.9919,-1.9919,-1.9955,-2.0005,-1.997,-1.997,-1.9955,-2.001,-2.001,-1.9955,-1.9955,-1.9919,-1.9797,-1.9762,-1.9762,-1.9919,-2.0185,-2.0426,-2.0545,-2.0745,-2.0909,-2.0893,-2.0877,-2.0909,-2.0861,-2.0745,-2.0613,-2.0728,-2.0561,-2.041,-2.0314,-1.9955,-1.9476,-1.8994,-1.8531,-1.8531,-1.8576,-1.8084,-1.7618,-1.7798,-1.7621,-1.7003,-1.6685,-1.6612,-1.6623,-1.6717,-1.6795,-1.6863,-1.694,-1.709,-1.7232,-1.7362,-1.7474,-1.7935,-1.8031,-1.8118,-1.8363,-1.8457,-1.8054,-1.795,-1.7941,-1.8254,-1.8017,-1.8135,-1.844,-1.8446,-1.8528,-1.8736,-1.8874,-1.8988,-1.904,-1.9116,-1.9228,-1.9413,-1.9596,-1.9884,-2.0304,-2.0726,-2.1006,-2.1199,-2.123,-2.1247,-2.1167,-2.1006,-2.0942,-2.1007,-2.1039,-2.1198,-2.1355,-2.1479,-2.1587,-2.1634,-2.1664,-2.1694,-2.1694,-2.1694,-2.1678,-2.1694,-2.1694,-2.1678,-2.1678,-2.1573,-2.1419,-2.1277,-2.1119,-2.099,-2.0844,-2.0844,-2.0794,-2.0693,-2.0491,-2.0304,-2.0135,-2.008,-1.999,-1.9919,-1.9955,-2.0025,-2.0025,-2.0061,-2.008,-2.0131,-2.02,-2.02,-2.0166,-2.0166,-2.0061,-1.9919,-1.9833,-1.9833,-2.001,-2.0392,-2.0595,-2.0712,-2.0877,-2.1023,-2.1023,-2.1038,-2.0958,-2.0909,-2.0811,-2.0728,-2.0677,-2.0543,-2.0426,-2.0361,-2.0311,-1.986,-1.9721,-1.9333,-1.9256,-1.9165,-1.8703,-1.8484,-1.8715,-1.8332,-1.7389,-1.7019,-1.6759,-1.6785,-1.6827,-1.693,-1.7007,-1.7099,-1.7183,-1.7314,-1.7441,-1.7519,-1.7589,-1.7776,-1.7872,-1.7731,-1.7692,-1.7763,-1.7702,-1.7192,-1.7555,-1.7421,-1.7625,-1.8002,-1.8307,-1.8542,-1.876,-1.895,-1.8988,-1.9064,-1.9078,-1.9191,-1.9413,-1.9581,-1.9904,-2.0407,-2.0842,-2.1151,-2.1294,-2.1294,-2.1294,-2.1246,-2.1246,-2.1246,-2.123,-2.1277,-2.1402,-2.1526,-2.1617,-2.1708,-2.1708,-2.1768,-2.1768,-2.1781,-2.1781,-2.1751,-2.1768,-2.1768,-2.1768,-2.1751,-2.1664,-2.1481,-2.1278,-2.1167,-2.1055,-2.0942,-2.0861,-2.0827,-2.0693,-2.0491,-2.0304,-2.0115,-2.0045,-2.0005,-2.0005,-1.999,-2.0061,-2.0115,-2.015,-2.0185,-2.0339,-2.0423,-2.0441,-2.0407,-2.0373,-2.027,-2.0096,-1.999,-1.9995,-2.0185,-2.0561,-2.0827,-2.0942,-2.1103,-2.1199,-2.123,-2.1183,-2.1135,-2.0958,-2.0844,-2.0794,-2.0695,-2.061,-2.0509,-2.0407,-2.0339,-2.0258,-2.0104,-2.003,-1.9875,-1.9896,-1.9545,-1.8948,-1.9053,-1.8933,-1.8038,-1.7225,-1.693,-1.693,-1.6972,-1.7057,-1.7133,-1.7207,-1.7314,-1.7417,-1.7496,-1.7589,-1.7658,-1.7726,-1.7726,-1.7721,-1.7675,-1.7612,-1.7529,-1.6554,-1.6888,-1.7125,-1.7488,-1.7909,-1.8163,-1.84,-1.8556,-1.875,-1.8812,-1.8874,-1.895,-1.9124,-1.9332,-1.9523,-1.9975,-2.0356,-2.0702,-2.0974,-2.1116,-2.11,-2.11,-2.1082,-2.1095,-2.1225,-2.1402,-2.1415,-2.1505,-2.1661,-2.1768,-2.1768,-2.1797,-2.1797,-2.1781,-2.1781,-2.1781,-2.1781,-2.1781,-2.1781,-2.1781,-2.1768,-2.1724,-2.1573,-2.1341,-2.1278,-2.1119,-2.0974,-2.0909,-2.0778,-2.0561,-2.0407,-2.0235,-2.0096,-2.0045,-2.0061,-2.0025,-2.0061,-2.015,-2.0254,-2.0254,-2.0323,-2.046,-2.0644,-2.0677,-2.0644,-2.0626,-2.0475,-2.0339,-2.0254,-2.0308,-2.0426,-2.0794,-2.099,-2.1119,-2.1246,-2.1355,-2.1402,-2.1419,-2.1373,-2.1167,-2.099,-2.0811,-2.0761,-2.0628,-2.0509,-2.0441,-2.0373,-2.0323,-2.0261,-2.023,-2.0234,-2.0369,-2.0454,-1.9798,-1.9276,-1.9086,-1.8567,-1.7478,-1.7057,-1.7108,-1.7149,-1.7207,-1.7281,-1.7314,-1.737,-1.7465,-1.7566,-1.7658,-1.7704,-1.7749,-1.7766,-1.7766,-1.7698,-1.7612,-1.7559,-1.6331,-1.6577,-1.7031,-1.7406,-1.7814,-1.8135,-1.8386,-1.8595,-1.8803,-1.8879,-1.8841,-1.87,-1.8673,-1.8773,-1.8604,-1.8958,-1.9513,-1.9845,-2.0013,-2.0118,-2.0178,-2.0208,-2.0273,-2.0345,-2.0603,-2.0825,-2.1046,-2.1351,-2.1705,-2.1797,-2.1797,-2.1781,-2.1781,-2.1781,-2.1781,-2.1781,-2.1781,-2.1781,-2.1781,-2.1781,-2.1781,-2.1738,-2.1587,-2.1464,-2.1324,-2.1214,-2.1103,-2.1022,-2.0843,-2.0561,-2.0373,-2.022,-2.0115,-2.008,-2.0065,-2.0096,-2.02,-2.0289,-2.0392,-2.046,-2.0595,-2.0677,-2.0843,-2.0924,-2.0892,-2.081,-2.0644,-2.0475,-2.0509,-2.0561,-2.061,-2.0925,-2.1167,-2.1277,-2.1417,-2.154,-2.1617,-2.1634,-2.1542,-2.1404,-2.1262,-2.1039,-2.0844,-2.0728,-2.0577,-2.0475,-2.0407,-2.0373,-2.0373,-2.0441,-2.0543,-2.0473,-2.0511,-1.989,-1.9244,-1.8924,-1.8659,-1.7704,-1.7207,-1.7232,-1.7281,-1.7314,-1.7338,-1.7345,-1.7425,-1.7542,-1.7635,-1.771,-1.7749,-1.7789,-1.7789,-1.7766,-1.7658,-1.7606,-1.7576,-1.6275,-1.6522,-1.6976,-1.7393,-1.776,-1.8121,-1.8425,-1.8659,-1.8646,-1.8688,-1.872,-1.8195,-1.8019,-1.8067,-1.7978,-1.8064,-1.8484,-1.8817,-1.9087,-1.9219,-1.9305,-1.9264,-1.9232,-1.9325,-1.9756,-2.0502,-2.0635,-2.0986,-2.1622,-2.1768,-2.1797,-2.1781,-2.1781,-2.1781,-2.1781,-2.1781,-2.1781,-2.1781,-2.1781,-2.1764,-2.1615,-2.1523,-2.1351,-2.1229,-2.1124,-2.1066,-2.0846,-2.0975,-2.0827,-2.0561,-2.0357,-2.0235,-2.015,-2.015,-2.015,-2.0185,-2.0323,-2.0475,-2.0561,-2.0662,-2.0794,-2.0925,-2.1054,-2.1119,-2.1119,-2.1006,-2.0794,-2.066,-2.0726,-2.0843,-2.0941,-2.1135,-2.1356,-2.1495,-2.1648,-2.1768,-2.1781,-2.1811,-2.1768,-2.1648,-2.1495,-2.1293,-2.1039,-2.0811,-2.0662,-2.061,-2.0543,-2.0509,-2.0509,-2.0662,-2.0682,-2.0528,-2.0302,-1.9763,-1.9151,-1.8616,-1.8228,-1.7567,-1.7306,-1.7362,-1.7386,-1.7394,-1.7441,-1.7448,-1.7542,-1.7635,-1.7687,-1.7732,-1.7772,-1.7789,-1.7789,-1.7743,-1.7635,-1.7589,-1.7582,-1.6374,-1.6705,-1.7018,-1.7447,-1.7828,-1.804,-1.8319,-1.8377,-1.7974,-1.7865,-1.802,-1.7376,-1.7233,-1.7434,-1.7749,-1.8037,-1.8345,-1.8535,-1.8703,-1.8784,-1.8917,-1.8973,-1.9119,-1.92,-1.9423,-1.9968,-2.0266,-2.099,-2.147,-2.1648,-2.1781,-2.1781,-2.1781,-2.1781,-2.1781,-2.1781,-2.1781,-2.1764,-2.1731,-2.1416,-2.0936,-2.078,-2.0381,-2.0099,-2.0134,-2.031,-2.0222,-2.0432,-2.0572,-2.0449,-2.0311,-2.0204,-2.015,-2.022,-2.0304,-2.0373,-2.046,-2.0561,-2.0728,-2.0827,-2.0958,-2.1119,-2.1262,-2.1309,-2.1277,-2.1262,-2.1135,-2.1135,-2.1167,-2.123,-2.1277,-2.1495,-2.1648,-2.1738,-2.1827,-2.1899,-2.194,-2.1945,-2.1915,-2.1724,-2.1513,-2.1364,-2.1179,-2.0959,-2.0761,-2.0744,-2.0711,-2.063,-2.0601,-2.067,-2.0703,-2.0508,-1.9952,-1.937,-1.8947,-1.8421,-1.7987,-1.742,-1.7419,-1.7465,-1.7489,-1.7512,-1.7589,-1.7635,-1.7681,-1.7704,-1.7726,-1.7749,-1.7789,-1.7789,-1.7789,-1.7721,-1.7612,-1.7589,-1.7572,-1.5733,-1.607,-1.6512,-1.6718,-1.6788,-1.7129,-1.7353,-1.7458,-1.7305,-1.7285,-1.729,-1.6752,-1.6442,-1.6557,-1.6759,-1.701,-1.7257,-1.7587,-1.7748,-1.792,-1.8028,-1.8065,-1.7983,-1.8091,-1.8432,-1.9061,-1.9274,-1.9657,-2.0482,-2.14,-2.1781,-2.1731,-2.1764,-2.1781,-2.1632,-2.1764,-2.1516,-2.1168,-2.0787,-2.0406,-2.013,-2.0003,-1.9816,-1.9449,-1.9565,-1.9535,-1.9517,-1.9556,-1.983,-1.9842,-1.9834,-2.0002,-2.0215,-2.0373,-2.0407,-2.0628,-2.0679,-2.0778,-2.0844,-2.0974,-2.1151,-2.1277,-2.1388,-2.1481,-2.1511,-2.1511,-2.1433,-2.1355,-2.145,-2.1511,-2.1556,-2.1648,-2.1768,-2.1886,-2.202,-2.2077,-2.2118,-2.2089,-2.2044,-2.1807,-2.1508,-2.1187,-2.0877,-2.0487,-2.0256,-2.0258,-2.0258,-2.0257,-2.0304,-2.0397,-2.0423,-2.0429,-1.9687,-1.8886,-1.8539,-1.8137,-1.7864,-1.7458,-1.7505,-1.7542,-1.7566,-1.7612,-1.7681,-1.7704,-1.7726,-1.7749,-1.7749,-1.7789,-1.7789,-1.7789,-1.7789,-1.7653,-1.7557,-1.7541,-1.7535,-1.4969,-1.5157,-1.5827,-1.6032,-1.5968,-1.633,-1.662,-1.6796,-1.6633,-1.6664,-1.6642,-1.6203,-1.5812,-1.5743,-1.6017,-1.6332,-1.6418,-1.6591,-1.6753,-1.6914,-1.7032,-1.7164,-1.7286,-1.7279,-1.7639,-1.8176,-1.851,-1.8983,-1.9805,-2.0555,-2.1114,-2.128,-2.1036,-2.1118,-2.1201,-2.1085,-2.082,-2.0395,-1.9965,-1.959,-1.9316,-1.9197,-1.9038,-1.8892,-1.8838,-1.88,-1.8687,-1.8799,-1.9013,-1.9155,-1.9184,-1.9353,-1.9745,-2.0026,-2.0217,-2.0477,-2.0702,-2.1007,-2.1071,-2.1183,-2.1309,-2.1433,-2.1526,-2.1694,-2.1678,-2.1738,-2.1738,-2.1615,-2.1661,-2.1738,-2.1814,-2.1844,-2.1932,-2.2049,-2.2152,-2.2225,-2.2282,-2.2209,-2.1933,-2.1513,-2.1133,-2.0676,-2.0324,-1.9886,-1.9696,-1.9741,-1.9789,-1.9833,-2.0,-2.015,-1.9992,-1.9975,-1.9405,-1.8583,-1.8129,-1.7821,-1.7586,-1.7526,-1.7589,-1.7635,-1.7635,-1.7681,-1.7726,-1.7749,-1.7749,-1.7789,-1.7789,-1.7789,-1.7789,-1.7789,-1.7755,-1.758,-1.7468,-1.7401,-1.7138,-1.4389,-1.41,-1.5106,-1.5697,-1.6046,-1.6322,-1.6508,-1.6515,-1.6022,-1.591,-1.6049,-1.569,-1.564,-1.5799,-1.5968,-1.6207,-1.6425,-1.6607,-1.6795,-1.6956,-1.7074,-1.7083,-1.7108,-1.7255,-1.7508,-1.8039,-1.8159,-1.8715,-1.9363,-1.9498,-1.9841,-1.9857,-2.0113,-1.9893,-1.9865,-1.9998,-1.9855,-1.959,-1.9316,-1.8917,-1.8552,-1.8303,-1.8055,-1.7627,-1.7701,-1.7872,-1.7789,-1.8102,-1.8405,-1.8531,-1.8547,-1.8687,-1.9061,-1.9515,-1.9815,-2.0035,-2.067,-2.0972,-2.11,-2.1291,-2.1433,-2.1617,-2.1768,-2.1827,-2.184,-2.1928,-2.194,-2.1869,-2.1899,-2.1991,-2.2111,-2.2168,-2.2123,-2.2152,-2.2225,-2.2254,-2.2282,-2.2282,-2.1956,-2.1317,-2.0772,-2.0268,-1.958,-1.9099,-1.9088,-1.9143,-1.9313,-1.937,-1.9783,-1.991,-1.9578,-1.9358,-1.8951,-1.8335,-1.7762,-1.7542,-1.7572,-1.7612,-1.7635,-1.7658,-1.7687,-1.7726,-1.7749,-1.7789,-1.7789,-1.7789,-1.7789,-1.7789,-1.7766,-1.7789,-1.767,-1.7277,-1.6817,-1.6492,-1.6181,-1.3778,-1.3975,-1.433,-1.4684,-1.5012,-1.5261,-1.5426,-1.5529,-1.5322,-1.5304,-1.5521,-1.5476,-1.5624,-1.5926,-1.6163,-1.6328,-1.6559,-1.6769,-1.6889,-1.6981,-1.7074,-1.7083,-1.7133,-1.7215,-1.7395,-1.7608,-1.7774,-1.7896,-1.8211,-1.8526,-1.8458,-1.8609,-1.9201,-1.9588,-1.9561,-1.9121,-1.8913,-1.8739,-1.8466,-1.7987,-1.7771,-1.7532,-1.7367,-1.712,-1.6929,-1.7018,-1.6995,-1.7117,-1.7465,-1.7793,-1.7919,-1.8181,-1.8478,-1.8991,-1.924,-1.9503,-2.0277,-2.0738,-2.1021,-2.1264,-2.1617,-2.1708,-2.1827,-2.1886,-2.1928,-2.1969,-2.2044,-2.2061,-2.2106,-2.2152,-2.2168,-2.2197,-2.2197,-2.2225,-2.2254,-2.2282,-2.2327,-2.2327,-2.1809,-2.1059,-2.0391,-1.9774,-1.9031,-1.8251,-1.8388,-1.8512,-1.8749,-1.896,-1.928,-1.9551,-1.9219,-1.8843,-1.8466,-1.8215,-1.7673,-1.7595,-1.7641,-1.7658,-1.7658,-1.7681,-1.7687,-1.7687,-1.7726,-1.7749,-1.7789,-1.7766,-1.7749,-1.7749,-1.7726,-1.7766,-1.7349,-1.6779,-1.6247,-1.5634,-1.5325,-1.3322,-1.3652,-1.3775,-1.3987,-1.4287,-1.4543,-1.4732,-1.4871,-1.4899,-1.5008,-1.5238,-1.5448,-1.574,-1.6067,-1.6301,-1.6501,-1.6675,-1.6879,-1.6998,-1.7048,-1.7099,-1.7108,-1.7174,-1.7248,-1.7363,-1.7314,-1.7441,-1.7592,-1.7746,-1.7652,-1.7776,-1.8111,-1.855,-1.8851,-1.8792,-1.8509,-1.8153,-1.7955,-1.77,-1.7314,-1.719,-1.7115,-1.7065,-1.693,-1.6765,-1.6617,-1.6595,-1.6667,-1.6835,-1.7129,-1.7373,-1.7662,-1.8067,-1.8454,-1.8651,-1.9115,-1.9731,-2.0384,-2.0759,-2.1246,-2.1735,-2.1811,-2.184,-2.1899,-2.1974,-2.2032,-2.2106,-2.2168,-2.2214,-2.2197,-2.218,-2.218,-2.2197,-2.2225,-2.231,-2.2338,-2.2338,-2.2276,-2.1522,-2.075,-2.0133,-1.9536,-1.856,-1.7872,-1.7914,-1.816,-1.8566,-1.8601,-1.8535,-1.8726,-1.8784,-1.8406,-1.8021,-1.7843,-1.7681,-1.7664,-1.7641,-1.7589,-1.7612,-1.7635,-1.7658,-1.7681,-1.7681,-1.7681,-1.7704,-1.7726,-1.7704,-1.7681,-1.7681,-1.7721,-1.7036,-1.6159,-1.5367,-1.479,-1.4605,-1.3033,-1.3015,-1.3586,-1.3974,-1.43,-1.4452,-1.461,-1.4794,-1.4839,-1.4994,-1.5298,-1.5551,-1.5868,-1.6179,-1.6436,-1.6633,-1.6805,-1.6956,-1.7048,-1.7108,-1.7158,-1.7199,-1.7248,-1.733,-1.7417,-1.7479,-1.7572,-1.7681,-1.7749,-1.7749,-1.7732,-1.771,-1.7967,-1.798,-1.7645,-1.7565,-1.746,-1.7363,-1.7338,-1.7248,-1.7124,-1.7007,-1.693,-1.6853,-1.6649,-1.6512,-1.6501,-1.649,-1.66,-1.6775,-1.6844,-1.7019,-1.7221,-1.7754,-1.8012,-1.8173,-1.9633,-2.043,-2.0673,-2.1387,-2.1744,-2.184,-2.184,-2.1915,-2.2094,-2.2168,-2.2123,-2.214,-2.2197,-2.218,-2.2163,-2.2163,-2.2209,-2.2254,-2.2338,-2.2377,-2.2394,-2.2078,-2.1339,-2.0499,-1.9984,-1.9387,-1.8341,-1.7569,-1.7572,-1.7813,-1.831,-1.8335,-1.8085,-1.8035,-1.8167,-1.8033,-1.7706,-1.7696,-1.7612,-1.7658,-1.7658,-1.7566,-1.7559,-1.7589,-1.7612,-1.7635,-1.7635,-1.7629,-1.7635,-1.7658,-1.7635,-1.7589,-1.7466,-1.7248,-1.6268,-1.5402,-1.4601,-1.4031,-1.3949,-1.2711,-1.306,-1.3493,-1.3894,-1.4287,-1.4452,-1.4624,-1.4794,-1.4871,-1.5041,-1.5374,-1.5609,-1.5953,-1.6301,-1.6554,-1.6763,-1.6991,-1.7083,-1.7174,-1.7224,-1.7265,-1.7297,-1.7345,-1.7417,-1.7496,-1.7589,-1.7658,-1.7726,-1.7772,-1.7856,-1.7833,-1.7772,-1.771,-1.7618,-1.7536,-1.7505,-1.7451,-1.7411,-1.7346,-1.7298,-1.7124,-1.7023,-1.6905,-1.6853,-1.6623,-1.6528,-1.6528,-1.6517,-1.6586,-1.6665,-1.6717,-1.6837,-1.6905,-1.7358,-1.7368,-1.7694,-1.8882,-2.0217,-2.0924,-2.1685,-2.1811,-2.1827,-2.1857,-2.1886,-2.1932,-2.1974,-2.1974,-2.1982,-2.1922,-2.1922,-2.2056,-2.2175,-2.2265,-2.2293,-2.2366,-2.2432,-2.2358,-2.1837,-2.1155,-2.0281,-1.9631,-1.8851,-1.7893,-1.7576,-1.7512,-1.7441,-1.7863,-1.7896,-1.7697,-1.7566,-1.7607,-1.7614,-1.7465,-1.7512,-1.7542,-1.7589,-1.7589,-1.7536,-1.7512,-1.7519,-1.7542,-1.7589,-1.7606,-1.7582,-1.7606,-1.7612,-1.7519,-1.7399,-1.7047,-1.6601,-1.5956,-1.5267,-1.4588,-1.3959,-1.346,-1.2615,-1.3116,-1.3527,-1.3927,-1.4319,-1.4452,-1.461,-1.4794,-1.4902,-1.5102,-1.5374,-1.5682,-1.6009,-1.6367,-1.6675,-1.6866,-1.7117,-1.7191,-1.7281,-1.7329,-1.7337,-1.7384,-1.7455,-1.7509,-1.7589,-1.7681,-1.7766,-1.7833,-1.7856,-1.7944,-1.7922,-1.7878,-1.7794,-1.7726,-1.7629,-1.7576,-1.7482,-1.7427,-1.7378,-1.7322,-1.7199,-1.7099,-1.6998,-1.6879,-1.6743,-1.6665,-1.6649,-1.6691,-1.6759,-1.6801,-1.6879,-1.6972,-1.6972,-1.6972,-1.6998,-1.7436,-1.8491,-2.0033,-2.1292,-2.1735,-2.1827,-2.1781,-2.1781,-2.1811,-2.1728,-2.1632,-2.1516,-2.1461,-2.1451,-2.1479,-2.1575,-2.1771,-2.2017,-2.2027,-2.2296,-2.2361,-2.1941,-2.1377,-2.0747,-1.9891,-1.9201,-1.8358,-1.7726,-1.7642,-1.7542,-1.7448,-1.7394,-1.7377,-1.7394,-1.7353,-1.7337,-1.7361,-1.7384,-1.7472,-1.7496,-1.7496,-1.7512,-1.7489,-1.7489,-1.7489,-1.7489,-1.7536,-1.7536,-1.7536,-1.7536,-1.7489,-1.7394,-1.7239,-1.7067,-1.6722,-1.6192,-1.5477,-1.4672,-1.4184,-1.3759,-1.2649,-1.3101,-1.3555,-1.392,-1.4288,-1.4359,-1.4599,-1.4794,-1.4921,-1.5118,-1.5343,-1.5812,-1.6136,-1.6382,-1.6801,-1.7041,-1.7142,-1.7256,-1.7353,-1.7382,-1.7353,-1.7449,-1.7505,-1.7518,-1.7491,-1.7659,-1.781,-1.7837,-1.7871,-1.8027,-1.8048,-1.8022,-1.7939,-1.7856,-1.7766,-1.7629,-1.7519,-1.7465,-1.741,-1.7378,-1.7281,-1.7158,-1.7099,-1.6981,-1.6879,-1.6811,-1.6837,-1.6905,-1.6972,-1.6972,-1.6998,-1.6998,-1.6998,-1.6988,-1.7023,-1.7578,-1.8794,-2.0157,-2.1495,-2.1811,-2.1827,-2.1827,-2.1827,-2.184,-2.1703,-2.1371,-2.1104,-2.0861,-2.0715,-2.0726,-2.0797,-2.1133,-2.147,-2.1744,-2.2114,-2.1875,-2.1395,-2.0816,-2.0179,-1.9487,-1.8859,-1.8217,-1.7779,-1.7612,-1.7505,-1.7496,-1.7425,-1.737,-1.7386,-1.7378,-1.7345,-1.7394,-1.7441,-1.7465,-1.7489,-1.7489,-1.7489,-1.7482,-1.7482,-1.7482,-1.7482,-1.7482,-1.7498,-1.7458,-1.7417,-1.737,-1.7338,-1.7306,-1.7224,-1.6855,-1.6548,-1.6094,-1.5411,-1.5077,-1.4771,-1.2073,-1.2448,-1.2504,-1.2714,-1.3124,-1.3774,-1.4356,-1.4783,-1.4966,-1.5165,-1.5463,-1.5826,-1.6191,-1.6559,-1.6853,-1.7066,-1.7232,-1.7384,-1.7542,-1.7501,-1.7255,-1.7456,-1.7444,-1.7291,-1.7207,-1.7314,-1.7527,-1.765,-1.7504,-1.7773,-1.8172,-1.8147,-1.8027,-1.7966,-1.7878,-1.7726,-1.7635,-1.7542,-1.7489,-1.7417,-1.737,-1.7248,-1.7166,-1.7083,-1.7023,-1.6956,-1.6956,-1.7074,-1.7124,-1.7074,-1.7057,-1.7032,-1.6921,-1.6943,-1.7113,-1.8453,-1.9267,-2.004,-2.1407,-2.1857,-2.1857,-2.1827,-2.184,-2.1857,-2.1641,-2.1192,-2.0711,-2.0344,-1.9973,-1.9924,-2.0145,-2.0476,-2.0798,-2.113,-2.137,-2.1121,-2.0643,-2.0118,-1.9525,-1.9014,-1.8406,-1.8145,-1.7715,-1.7513,-1.744,-1.7482,-1.7496,-1.7384,-1.7403,-1.7378,-1.7378,-1.741,-1.7434,-1.7482,-1.7482,-1.7482,-1.7482,-1.7498,-1.7498,-1.7498,-1.7498,-1.7474,-1.7443,-1.7419,-1.7362,-1.7338,-1.7306,-1.7281,-1.7257,-1.7281,-1.7018,-1.6614,-1.6209,-1.5879,-1.5586,-1.1943,-1.2271,-1.2092,-1.2359,-1.299,-1.3625,-1.4262,-1.4803,-1.5041,-1.5239,-1.5536,-1.5883,-1.6219,-1.6532,-1.6863,-1.71,-1.7288,-1.7486,-1.7546,-1.7168,-1.6999,-1.6901,-1.687,-1.6703,-1.6482,-1.6641,-1.687,-1.7027,-1.7193,-1.7789,-1.826,-1.8277,-1.8155,-1.8108,-1.8044,-1.79,-1.7794,-1.7704,-1.7612,-1.7519,-1.7425,-1.7337,-1.7232,-1.7166,-1.7124,-1.7099,-1.7099,-1.7215,-1.7199,-1.7108,-1.7066,-1.6924,-1.6933,-1.704,-1.7663,-1.8877,-1.9613,-2.0439,-2.1523,-2.1811,-2.184,-2.184,-2.1823,-2.1641,-2.1226,-2.0694,-2.0217,-1.9796,-1.9387,-1.9166,-1.9491,-1.9792,-2.0093,-2.0388,-2.0336,-2.0291,-1.9836,-1.9382,-1.8914,-1.8481,-1.8154,-1.7901,-1.767,-1.7479,-1.7389,-1.7457,-1.7388,-1.7236,-1.7316,-1.7451,-1.7427,-1.7451,-1.7451,-1.7451,-1.7474,-1.7498,-1.7498,-1.7498,-1.7498,-1.7474,-1.7491,-1.7491,-1.7443,-1.7395,-1.7346,-1.733,-1.7354,-1.7306,-1.7281,-1.733,-1.7354,-1.7058,-1.6802,-1.6693,-1.639,-1.2013,-1.2405,-1.2139,-1.2564,-1.3475,-1.371,-1.4182,-1.4871,-1.489,-1.5227,-1.5521,-1.594,-1.6262,-1.6517,-1.6873,-1.7134,-1.7361,-1.7555,-1.74,-1.6795,-1.6727,-1.6541,-1.613,-1.5682,-1.5721,-1.5721,-1.6016,-1.6626,-1.7203,-1.7733,-1.8161,-1.8388,-1.8304,-1.8243,-1.8218,-1.8074,-1.7971,-1.7927,-1.7794,-1.7681,-1.7542,-1.7448,-1.7377,-1.7314,-1.7281,-1.7273,-1.7248,-1.7273,-1.7298,-1.7117,-1.6959,-1.6815,-1.685,-1.7119,-1.7987,-1.8893,-1.9662,-2.0619,-2.1424,-2.1781,-2.1811,-2.184,-2.1807,-2.133,-2.0766,-2.0306,-1.9887,-1.9286,-1.8863,-1.8733,-1.895,-1.9127,-1.9349,-1.9561,-1.9613,-1.947,-1.9121,-1.8774,-1.8512,-1.8172,-1.8037,-1.7822,-1.7788,-1.7613,-1.7518,-1.753,-1.7446,-1.7244,-1.7276,-1.7472,-1.7505,-1.7498,-1.7482,-1.7505,-1.7522,-1.7505,-1.7482,-1.7482,-1.7498,-1.7498,-1.7474,-1.7474,-1.7451,-1.7427,-1.7386,-1.7386,-1.7386,-1.7386,-1.7386,-1.737,-1.741,-1.7395,-1.7288,-1.7116,-1.697,-1.1702,-1.2006,-1.2263,-1.2591,-1.2912,-1.3192,-1.3483,-1.3776,-1.3938,-1.4621,-1.5575,-1.6034,-1.6355,-1.6596,-1.6965,-1.724,-1.7384,-1.7585,-1.7381,-1.6809,-1.648,-1.6091,-1.5747,-1.5245,-1.5124,-1.5297,-1.5696,-1.6323,-1.7025,-1.7537,-1.798,-1.8475,-1.8344,-1.8181,-1.8281,-1.8142,-1.8083,-1.8007,-1.7937,-1.7815,-1.7749,-1.7572,-1.7432,-1.7394,-1.7362,-1.7387,-1.7363,-1.7363,-1.7314,-1.7174,-1.6949,-1.6686,-1.6479,-1.6775,-1.765,-1.8788,-1.9504,-2.0475,-2.1282,-2.1688,-2.1685,-2.1735,-2.1569,-2.0903,-2.0351,-1.9984,-1.9504,-1.8913,-1.8489,-1.8403,-1.8414,-1.8551,-1.8683,-1.8836,-1.8953,-1.8676,-1.8417,-1.8283,-1.8126,-1.8041,-1.7917,-1.7888,-1.7854,-1.7742,-1.7698,-1.7653,-1.7642,-1.7546,-1.7501,-1.7582,-1.7582,-1.7582,-1.7582,-1.7582,-1.7576,-1.7552,-1.7529,-1.7505,-1.7505,-1.7505,-1.7498,-1.7505,-1.7512,-1.7472,-1.7448,-1.7489,-1.7536,-1.7536,-1.7519,-1.7496,-1.7394,-1.7371,-1.7216,-1.7028,-1.7052,-1.1199,-1.1562,-1.1656,-1.1952,-1.2332,-1.2597,-1.3041,-1.344,-1.3649,-1.4206,-1.5072,-1.5644,-1.6166,-1.6596,-1.7032,-1.7257,-1.7401,-1.7618,-1.7054,-1.6453,-1.6124,-1.554,-1.5139,-1.4752,-1.4558,-1.4679,-1.5359,-1.6042,-1.6817,-1.7116,-1.7471,-1.8288,-1.8179,-1.777,-1.7946,-1.7941,-1.7885,-1.7827,-1.7783,-1.7797,-1.7795,-1.7704,-1.7572,-1.7512,-1.7441,-1.7451,-1.7436,-1.7395,-1.7298,-1.7083,-1.6779,-1.657,-1.653,-1.6921,-1.7765,-1.8735,-1.958,-2.0319,-2.119,-2.1513,-2.1493,-2.1592,-2.1354,-2.0638,-2.0052,-1.9694,-1.9294,-1.8727,-1.8381,-1.8254,-1.8364,-1.8502,-1.8464,-1.8548,-1.8582,-1.8433,-1.8301,-1.8241,-1.8164,-1.813,-1.8057,-1.8053,-1.7898,-1.742,-1.7429,-1.7652,-1.7659,-1.7614,-1.762,-1.7635,-1.7658,-1.7635,-1.7612,-1.7612,-1.7606,-1.7582,-1.7559,-1.7559,-1.7536,-1.7582,-1.7582,-1.7566,-1.7566,-1.7635,-1.7658,-1.7721,-1.7743,-1.7681,-1.7658,-1.7612,-1.7441,-1.7306,-1.7125,-1.6959,-1.6882,-1.0776,-1.1256,-1.1116,-1.1294,-1.1818,-1.2188,-1.2716,-1.3307,-1.3579,-1.3818,-1.4225,-1.4874,-1.5713,-1.647,-1.705,-1.7224,-1.7401,-1.7681,-1.6978,-1.6355,-1.6039,-1.5504,-1.4795,-1.412,-1.4132,-1.4317,-1.4822,-1.5544,-1.6286,-1.6463,-1.6895,-1.7914,-1.7575,-1.6757,-1.7186,-1.7364,-1.7329,-1.7277,-1.7275,-1.7425,-1.7593,-1.7817,-1.7631,-1.7505,-1.7436,-1.7429,-1.7448,-1.7311,-1.7174,-1.7,-1.6686,-1.6463,-1.6503,-1.6894,-1.7852,-1.8738,-1.9489,-2.0394,-2.1185,-2.1163,-2.1292,-2.1335,-2.0928,-2.0439,-1.9853,-1.942,-1.9029,-1.8654,-1.8302,-1.8256,-1.8363,-1.8423,-1.8368,-1.8351,-1.833,-1.833,-1.829,-1.8249,-1.8249,-1.8249,-1.8243,-1.8239,-1.788,-1.7387,-1.7411,-1.762,-1.764,-1.7584,-1.7574,-1.7642,-1.7681,-1.7658,-1.7612,-1.7612,-1.7612,-1.7612,-1.7589,-1.7612,-1.7612,-1.7658,-1.7704,-1.7726,-1.7772,-1.79,-1.7922,-1.7922,-1.7878,-1.7833,-1.7772,-1.7681,-1.7458,-1.7232,-1.7034,-1.6866,-1.6686,-1.0864,-1.1587,-1.2088,-1.2127,-1.1922,-1.2259,-1.242,-1.2342,-1.2479,-1.2956,-1.3605,-1.4031,-1.4808,-1.6112,-1.7003,-1.7358,-1.7382,-1.7681,-1.7542,-1.7018,-1.6465,-1.5741,-1.4994,-1.4324,-1.4163,-1.4275,-1.4468,-1.4848,-1.5656,-1.5735,-1.6043,-1.7023,-1.6964,-1.6586,-1.6742,-1.682,-1.6787,-1.6709,-1.6615,-1.6675,-1.6638,-1.6895,-1.7373,-1.7282,-1.7132,-1.7294,-1.7317,-1.6965,-1.6948,-1.6873,-1.6712,-1.649,-1.6499,-1.6768,-1.7567,-1.8518,-1.9267,-2.0127,-2.0671,-2.0931,-2.1157,-2.1346,-2.0911,-2.0268,-1.9747,-1.9311,-1.8903,-1.8439,-1.8239,-1.8342,-1.8426,-1.8502,-1.8505,-1.8487,-1.8467,-1.8524,-1.8524,-1.8505,-1.8505,-1.8465,-1.8426,-1.8345,-1.8173,-1.7887,-1.7838,-1.7945,-1.7859,-1.7781,-1.7737,-1.7721,-1.7687,-1.7658,-1.7612,-1.7641,-1.7664,-1.7635,-1.7612,-1.7658,-1.7704,-1.7772,-1.7833,-1.7917,-1.7983,-1.8074,-1.8117,-1.8117,-1.8053,-1.7922,-1.7766,-1.7635,-1.7403,-1.7158,-1.6959,-1.6747,-1.6554]}]]